[[{"header":{"parameterUnit":"m.s-1","parameterCategory":1,"la1":30.6,"la2":29.2853,"lo1":-89.7004,"lo2":-87.6739,"dy":0.0162,"dx":0.0183,"nx":112,"ny":82,"refTime":"2026-05-17T12:00:00:Z","depth":0,"parameterNumber":2,"parameterNumberName":"U-component_of_WINDS"},"data":[0.0,0.0,0.0,0.0,0.0,0.0,0.0,0.0,0.0,0.0,0.0,0.0,0.0,0.0,0.0,0.0,0.0,0.0,0.0,0.0,0.0,0.0,0.0,0.0,0.0,0.0,0.0,0.0,0.0,0.0,0.0,0.0,0.0,0.0,0.0,0.0,0.0,0.0,0.0,0.0,0.0,0.0,0.0,0.0,0.0,0.0,0.0,0.0,0.0,0.0,0.0,0.0,0.0,0.0,0.0,0.0,0.0,0.0,0.0,0.0,0.0,0.0,0.0,0.0,0.0,0.0,0.0,0.0,0.0,0.0,0.0,0.0,0.0,0.0,0.0,0.0,0.0,0.0,0.0,0.0,0.0,0.0,0.0,0.0,0.0,0.0,0.0,0.0,0.0,0.0,0.0,-1.076,-1.169,-1.2198,-1.1993,-1.1926,-1.1417,-1.0261,0.0,0.0,0.0,0.0,0.0,0.0,0.0,0.0,0.0,0.0,0.0,0.0,0.0,0.0,0.0,0.0,0.0,0.0,0.0,0.0,0.0,0.0,0.0,0.0,0.0,0.0,0.0,0.0,0.0,0.0,0.0,0.0,0.0,0.0,0.0,0.0,0.0,0.0,0.0,0.0,0.0,0.0,0.0,0.0,0.0,0.0,0.0,0.0,0.0,0.0,0.0,0.0,0.0,0.0,0.0,0.0,0.0,0.0,0.0,0.0,0.0,0.0,0.0,0.0,0.0,0.0,0.0,0.0,0.0,0.0,0.0,0.0,0.0,0.0,0.0,0.0,0.0,0.0,0.0,0.0,0.0,0.0,0.0,0.0,0.0,0.0,0.0,0.0,0.0,0.0,0.0,0.0,0.0,0.0,0.0,0.0,0.0,0.0,0.0,0.0,0.0,0.0,0.0,0.0,-1.0007,-1.1551,-1.2051,-1.2278,-1.2238,-1.2047,-1.1511,-1.0586,0.0,0.0,0.0,0.0,0.0,0.0,0.0,0.0,0.0,0.0,0.0,0.0,0.0,0.0,0.0,0.0,0.0,0.0,0.0,0.0,0.0,0.0,0.0,0.0,0.0,0.0,0.0,0.0,0.0,0.0,0.0,0.0,0.0,0.0,0.0,0.0,0.0,0.0,0.0,0.0,0.0,0.0,0.0,0.0,0.0,0.0,0.0,0.0,0.0,0.0,0.0,0.0,0.0,0.0,0.0,0.0,0.0,0.0,0.0,0.0,0.0,0.0,0.0,0.0,0.0,0.0,0.0,0.0,0.0,0.0,0.0,0.0,0.0,0.0,0.0,0.0,0.0,0.0,0.0,0.0,0.0,0.0,0.0,0.0,0.0,0.0,0.0,0.0,0.0,0.0,0.0,0.0,0.0,0.0,0.0,0.0,0.0,0.0,0.0,0.0,0.0,0.0,0.0,-1.002,-1.0675,-1.1971,-1.2225,-1.2305,-1.2305,-1.2037,-1.1524,-1.0653,-0.9726,0.0,0.0,0.0,0.0,0.0,0.0,0.0,0.0,0.0,0.0,0.0,0.0,0.0,0.0,0.0,0.0,0.0,0.0,0.0,0.0,0.0,0.0,0.0,0.0,0.0,0.0,0.0,0.0,0.0,0.0,0.0,0.0,0.0,0.0,0.0,0.0,0.0,0.0,0.0,0.0,0.0,0.0,0.0,0.0,0.0,0.0,0.0,0.0,0.0,0.0,0.0,0.0,0.0,0.0,0.0,0.0,0.0,0.0,0.0,0.0,0.0,0.0,0.0,0.0,0.0,0.0,0.0,0.0,0.0,0.0,0.0,0.0,0.0,0.0,0.0,0.0,0.0,0.0,0.0,0.0,0.0,0.0,0.0,0.0,0.0,0.0,0.0,0.0,0.0,0.0,0.0,0.0,0.0,0.0,0.0,0.0,0.0,0.0,0.0,0.0,0.0,0.0,-1.1035,-1.149,-1.2225,-1.2305,-1.2305,-1.2305,-1.1971,-1.1457,-1.064,-0.9673,0.0,0.0,0.0,0.0,0.0,0.0,0.0,0.0,0.0,0.0,0.0,0.0,0.0,0.0,0.0,0.0,0.0,0.0,0.0,0.0,0.0,0.0,0.0,0.0,0.0,0.0,0.0,0.0,0.0,0.0,0.0,0.0,0.0,0.0,0.0,0.0,0.0,0.0,0.0,0.0,0.0,0.0,0.0,0.0,0.0,0.0,0.0,0.0,0.0,0.0,0.0,0.0,0.0,0.0,0.0,0.0,0.0,0.0,0.0,0.0,0.0,0.0,0.0,0.0,0.0,0.0,0.0,0.0,0.0,0.0,0.0,0.0,0.0,0.0,0.0,0.0,0.0,0.0,0.0,0.0,0.0,0.0,0.0,0.0,0.0,0.0,0.0,0.0,0.0,0.0,0.0,0.0,0.0,0.0,0.0,0.0,0.0,0.0,0.0,0.0,0.0,0.0,-1.1129,-1.1966,-1.2265,-1.2305,-1.2305,-1.2305,-1.1784,-1.1196,-1.0626,-0.9472,0.0,0.0,0.0,0.0,0.0,0.0,0.0,0.0,0.0,0.0,0.0,0.0,0.0,0.0,0.0,0.0,0.0,0.0,0.0,0.0,0.0,0.0,0.0,0.0,0.0,0.0,0.0,0.0,0.0,0.0,0.0,0.0,0.0,0.0,0.0,0.0,0.0,0.0,0.0,0.0,0.0,0.0,0.0,0.0,0.0,0.0,0.0,0.0,0.0,0.0,0.0,0.0,0.0,0.0,0.0,0.0,0.0,0.0,0.0,0.0,0.0,0.0,0.0,0.0,0.0,0.0,0.0,0.0,0.0,0.0,0.0,0.0,0.0,0.0,0.0,0.0,0.0,0.0,0.0,0.0,0.0,0.0,0.0,0.0,0.0,0.0,0.0,0.0,0.0,0.0,0.0,0.0,0.0,0.0,0.0,0.0,0.0,0.0,0.0,0.0,0.0,0.0,-1.1089,-1.185,0.0,-1.2412,-1.2305,-1.2305,-1.2091,-1.157,-1.0653,0.0,0.0,0.0,0.0,0.0,0.0,0.0,0.0,0.0,0.0,0.0,0.0,0.0,0.0,0.0,0.0,0.0,0.0,0.0,0.0,0.0,0.0,0.0,0.0,0.0,0.0,0.0,0.0,0.0,0.0,0.0,0.0,0.0,0.0,0.0,0.0,0.0,0.0,0.0,0.0,0.0,0.0,0.0,0.0,0.0,0.0,0.0,0.0,0.0,0.0,0.0,0.0,0.0,0.0,0.0,0.0,0.0,0.0,0.0,0.0,0.0,0.0,0.0,0.0,0.0,0.0,0.0,0.0,0.0,0.0,0.0,0.0,0.0,0.0,0.0,0.0,0.0,0.0,0.0,0.0,0.0,0.0,0.0,0.0,0.0,0.0,0.0,0.0,0.0,0.0,0.0,0.0,0.0,0.0,0.0,0.0,0.0,0.0,0.0,0.0,0.0,0.0,-1.0586,-1.1369,-1.2078,0.0,-1.2596,-1.2412,-1.2305,-1.2051,-1.1463,-1.0519,0.0,0.0,0.0,0.0,0.0,0.0,0.0,0.0,0.0,0.0,0.0,0.0,0.0,0.0,0.0,0.0,0.0,0.0,0.0,0.0,0.0,0.0,0.0,0.0,0.0,0.0,0.0,0.0,0.0,0.0,0.0,0.0,0.0,0.0,0.0,0.0,0.0,0.0,0.0,0.0,0.0,0.0,0.0,0.0,0.0,0.0,0.0,0.0,0.0,0.0,0.0,0.0,0.0,0.0,0.0,0.0,0.0,0.0,0.0,0.0,0.0,0.0,0.0,0.0,0.0,0.0,0.0,0.0,0.0,0.0,0.0,0.0,0.0,0.0,0.0,0.0,0.0,0.0,0.0,0.0,0.0,0.0,0.0,0.0,0.0,0.0,0.0,0.0,0.0,0.0,0.0,0.0,0.0,0.0,0.0,0.0,0.0,0.0,0.0,0.0,0.0,0.0,-1.0889,-1.206,-1.2784,-1.2797,-1.2784,-1.2663,-1.2331,-1.1503,-1.0755,0.0,0.0,0.0,0.0,0.0,0.0,0.0,0.0,0.0,0.0,0.0,0.0,0.0,0.0,0.0,0.0,0.0,0.0,0.0,0.0,0.0,0.0,0.0,0.0,0.0,0.0,0.0,0.0,0.0,0.0,0.0,0.0,0.0,0.0,0.0,0.0,0.0,0.0,0.0,0.0,0.0,0.0,0.0,0.0,0.0,0.0,0.0,0.0,0.0,0.0,0.0,0.0,0.0,0.0,0.0,0.0,0.0,0.0,0.0,0.0,0.0,0.0,0.0,0.0,0.0,0.0,0.0,0.0,0.0,0.0,0.0,0.0,0.0,0.0,0.0,0.0,0.0,0.0,0.0,0.0,0.0,0.0,0.0,0.0,0.0,0.0,0.0,0.0,0.0,0.0,0.0,0.0,0.0,0.0,0.0,0.0,0.0,0.0,0.0,0.0,0.0,0.0,0.0,-1.1156,-1.2181,-1.2945,-1.3333,-1.3038,-1.2744,-1.2663,-1.2033,-1.1048,-0.9617,0.0,0.0,0.0,0.0,0.0,0.0,0.0,0.0,0.0,0.0,0.0,0.0,0.0,0.0,0.0,0.0,0.0,0.0,0.0,0.0,0.0,0.0,0.0,0.0,0.0,0.0,0.0,0.0,0.0,0.0,0.0,0.0,0.0,0.0,0.0,0.0,0.0,0.0,0.0,0.0,0.0,0.0,0.0,0.0,0.0,0.0,0.0,0.0,0.0,0.0,0.0,0.0,0.0,0.0,0.0,0.0,0.0,0.0,0.0,0.0,0.0,0.0,0.0,0.0,0.0,0.0,0.0,0.0,0.0,0.0,0.0,0.0,0.0,0.0,0.0,0.0,0.0,0.0,0.0,0.0,0.0,0.0,0.0,0.0,0.0,0.0,0.0,0.0,0.0,0.0,0.0,0.0,0.0,0.0,0.0,0.0,0.0,0.0,0.0,0.0,0.0,0.0,-1.1255,-1.2412,-1.324,-1.356,-1.332,-1.3052,-1.2811,-1.2355,-1.1248,-0.9309,0.0,0.0,0.0,0.0,0.0,0.0,0.0,0.0,0.0,0.0,0.0,0.0,0.0,0.0,0.0,0.0,0.0,0.0,0.0,0.0,0.0,0.0,0.0,0.0,0.0,0.0,0.0,0.0,0.0,0.0,0.0,0.0,0.0,0.0,0.0,0.0,0.0,0.0,0.0,0.0,0.0,0.0,0.0,0.0,0.0,0.0,0.0,0.0,0.0,0.0,0.0,0.0,0.0,0.0,0.0,0.0,0.0,0.0,0.0,0.0,0.0,0.0,0.0,0.0,0.0,0.0,0.0,0.0,0.0,0.0,0.0,0.0,0.0,0.0,0.0,0.0,0.0,0.0,0.0,0.0,0.0,0.0,0.0,0.0,0.0,0.0,0.0,0.0,0.0,0.0,0.0,0.0,0.0,0.0,0.0,0.0,0.0,0.0,0.0,0.0,0.0,0.0,-1.1322,-1.2707,-1.3613,-1.364,-1.3613,-1.3387,-1.2918,-1.2505,-1.1374,-0.9239,0.0,0.0,0.0,0.0,0.0,0.0,0.0,0.0,0.0,0.0,0.0,0.0,0.0,0.0,0.0,0.0,0.0,0.0,0.0,0.0,0.0,0.0,0.0,0.0,0.0,0.0,0.0,0.0,0.0,0.0,0.0,0.0,0.0,0.0,0.0,0.0,0.0,0.0,0.0,0.0,0.0,0.0,0.0,0.0,0.0,0.0,0.0,0.0,0.0,0.0,0.0,0.0,0.0,0.0,0.0,0.0,0.0,0.0,0.0,0.0,-1.6992,-1.5369,0.0,0.0,0.0,0.0,0.0,0.0,0.0,0.0,0.0,0.0,0.0,0.0,0.0,0.0,0.0,0.0,0.0,0.0,0.0,0.0,0.0,0.0,0.0,0.0,0.0,0.0,0.0,0.0,0.0,0.0,0.0,0.0,0.0,0.0,0.0,0.0,0.0,0.0,0.0,0.0,-1.1672,-1.2866,-1.3693,-1.3975,-1.3746,-1.3547,-1.3427,-1.2746,-1.1615,-0.9954,-0.8482,0.0,0.0,0.0,0.0,0.0,0.0,0.0,0.0,0.0,0.0,0.0,0.0,0.0,0.0,0.0,0.0,0.0,0.0,0.0,0.0,0.0,0.0,0.0,0.0,0.0,0.0,0.0,0.0,0.0,0.0,0.0,0.0,0.0,0.0,0.0,0.0,0.0,0.0,0.0,0.0,0.0,0.0,0.0,0.0,0.0,0.0,0.0,0.0,0.0,0.0,0.0,0.0,0.0,0.0,0.0,0.0,0.0,0.0,0.0,-1.8684,-1.7404,0.0,0.0,0.0,0.0,0.0,0.0,0.0,0.0,0.0,0.0,0.0,0.0,0.0,0.0,0.0,0.0,0.0,0.0,0.0,0.0,0.0,0.0,0.0,0.0,0.0,0.0,0.0,0.0,0.0,0.0,0.0,0.0,0.0,0.0,0.0,0.0,0.0,0.0,0.0,0.0,-1.1792,-1.3039,-1.3921,-1.4068,-1.3948,-1.3801,-1.3613,-1.3174,-1.2192,-1.0553,-0.943,0.0,0.0,0.0,0.0,0.0,0.0,0.0,0.0,0.0,0.0,0.0,0.0,0.0,0.0,0.0,0.0,0.0,0.0,0.0,0.0,0.0,0.0,0.0,0.0,0.0,0.0,0.0,0.0,0.0,0.0,0.0,0.0,0.0,0.0,0.0,0.0,0.0,0.0,0.0,0.0,0.0,0.0,0.0,0.0,0.0,0.0,0.0,0.0,0.0,0.0,0.0,0.0,0.0,-2.2637,-2.2891,-2.3086,-2.3144,-2.3184,-2.3042,-2.0583,-1.9888,-2.0257,-1.8011,0.0,0.0,0.0,0.0,0.0,0.0,0.0,0.0,0.0,0.0,0.0,0.0,0.0,0.0,0.0,0.0,0.0,0.0,0.0,0.0,0.0,0.0,-1.2812,-1.3052,-1.3253,-1.3106,-1.1877,0.0,0.0,0.0,0.0,0.0,0.0,0.0,0.0,0.0,0.0,0.0,-1.2047,-1.3267,-1.4108,-1.4162,-1.4122,-1.3988,-1.3706,-1.3626,-1.2896,-1.1229,-1.0575,-0.9112,0.0,0.0,0.0,0.0,0.0,0.0,0.0,0.0,0.0,0.0,0.0,0.0,0.0,0.0,0.0,0.0,0.0,0.0,0.0,0.0,0.0,0.0,0.0,0.0,0.0,0.0,0.0,0.0,0.0,0.0,0.0,0.0,-1.6026,-1.6966,0.0,0.0,0.0,0.0,0.0,0.0,0.0,0.0,0.0,0.0,0.0,0.0,0.0,-2.1738,-2.2168,-2.3691,-2.4336,-2.4102,-2.5625,-2.5977,-2.5284,-2.5703,-2.5879,-2.5859,-2.547,0.0,-2.2097,-2.0988,0.0,0.0,0.0,0.0,0.0,0.0,0.0,0.0,0.0,0.0,0.0,0.0,0.0,0.0,0.0,0.0,0.0,0.0,0.0,0.0,0.0,0.0,-1.4606,-1.4335,-1.4322,-1.4295,-1.4095,-1.2412,-1.0822,-1.0492,-1.001,-0.9499,0.0,0.0,0.0,0.0,0.0,0.0,-1.2893,-1.3654,-1.4188,-1.4442,-1.4242,-1.4068,-1.4028,-1.3746,-1.332,-1.2589,-1.1411,-0.9939,-0.8162,-0.6929,0.0,0.0,0.0,0.0,0.0,0.0,0.0,0.0,0.0,0.0,0.0,0.0,0.0,0.0,0.0,0.0,0.0,0.0,0.0,0.0,0.0,0.0,0.0,0.0,0.0,0.0,0.0,0.0,0.0,-1.584,-1.7305,-1.7695,-1.7988,-1.7812,0.0,0.0,0.0,0.0,0.0,0.0,0.0,0.0,0.0,-2.2676,-2.334,-2.4004,-2.4687,-2.5664,-2.6191,-2.625,-2.7012,-2.7187,-2.6836,-2.7012,-2.6973,-2.6738,-2.6738,-2.6094,-2.4941,-2.353,-2.2363,-2.1189,0.0,0.0,0.0,0.0,-1.6782,-1.613,-1.6104,-1.5806,-1.5303,-1.4544,0.0,0.0,0.0,0.0,0.0,0.0,0.0,-1.4061,-1.4407,-1.4974,-1.5458,-1.5498,-1.5511,-1.5458,-1.5297,-1.4188,-1.2985,-1.2007,-1.1618,-1.1082,-0.9897,-1.011,0.0,0.0,0.0,-1.2679,-1.332,-1.4108,-1.4563,-1.4522,-1.4402,-1.4269,-1.4095,-1.3975,-1.3707,-1.328,-1.2582,-1.144,-0.992,-0.9074,-0.7743,0.0,0.0,0.0,0.0,0.0,0.0,0.0,0.0,0.0,0.0,0.0,0.0,0.0,0.0,0.0,0.0,0.0,0.0,0.0,0.0,0.0,0.0,0.0,0.0,0.0,0.0,0.0,0.0,-1.748,-1.8535,-1.8652,-1.9434,-1.9453,0.0,0.0,0.0,0.0,0.0,0.0,-2.2461,-2.2754,-2.3496,-2.4883,-2.5449,-2.6104,-2.6719,-2.7129,-2.75,-2.7832,-2.7832,-2.7832,-2.7832,-2.7832,-2.7656,-2.7344,-2.7344,-2.7285,-2.7051,-2.543,-2.4153,-2.311,-2.1262,-2.0153,-1.9512,-1.8737,-1.8625,-1.8692,-1.8354,-1.8219,-1.7974,-1.6947,-1.5791,-1.473,-1.41,0.0,0.0,0.0,0.0,-1.4656,-1.5209,-1.5671,-1.6112,-1.6326,-1.638,-1.6299,-1.6005,-1.5538,-1.479,-1.3494,-1.3186,-1.2663,-1.1156,-1.1482,0.0,0.0,0.0,-1.3574,-1.3893,-1.4563,-1.4955,-1.4763,-1.4616,-1.4429,-1.4215,-1.4135,-1.3961,-1.3626,-1.34,-1.2647,-1.1246,-1.0791,-0.9536,-0.7423,0.0,0.0,0.0,0.0,0.0,0.0,0.0,0.0,0.0,0.0,0.0,0.0,0.0,0.0,0.0,0.0,0.0,0.0,0.0,0.0,0.0,0.0,0.0,0.0,0.0,0.0,0.0,0.0,0.0,-2.0429,-2.1251,0.0,0.0,0.0,0.0,-2.168,-2.25,-2.3315,-2.4238,-2.505,-2.5781,-2.6269,-2.7141,-2.7611,-2.765,-2.8008,-2.8242,-2.8262,-2.8262,-2.8262,-2.8262,-2.8262,-2.8242,-2.8223,-2.8223,-2.8008,-2.7591,-2.6211,-2.5577,-2.544,-2.4516,-2.3483,-2.2758,-2.4164,-2.3261,-2.1635,-2.3036,-2.1459,-1.8931,-1.9421,-1.7838,-1.5752,-1.5671,-1.5084,0.0,0.0,-1.5511,-1.5805,-1.6126,-1.6433,-1.666,-1.6687,-1.6687,-1.6607,-1.6313,-1.6005,-1.5465,-1.4603,-1.4215,-1.3814,-1.3173,0.0,-1.3387,-1.312,-1.3627,-1.4255,-1.4874,-1.4981,-1.5115,-1.5324,-1.4856,-1.4466,-1.4496,-1.4242,-1.3961,-1.3626,-1.3586,-1.2982,-1.1718,-1.1232,-1.0398,-0.9176,-0.7546,0.0,0.0,0.0,0.0,0.0,0.0,0.0,0.0,0.0,0.0,0.0,0.0,0.0,0.0,0.0,0.0,0.0,0.0,0.0,0.0,0.0,0.0,0.0,0.0,0.0,0.0,0.0,0.0,-2.2229,-2.3286,0.0,-2.2068,-2.273,-2.3457,-2.3906,-2.4746,-2.5723,-2.6855,-2.6953,-2.7422,-2.8398,-2.8457,-2.8613,-2.8941,-2.9043,-2.9121,-2.9101,-2.8828,-2.8691,-2.8691,-2.8418,-2.8301,-2.8301,-2.8301,-2.8203,-2.8027,-2.7578,-2.7051,-2.6423,-2.5227,-2.4527,-2.4194,-2.3814,-2.3715,-2.3732,-2.341,-2.3066,-2.2503,-2.0447,-1.8239,-1.6393,-1.6393,-1.6179,-1.6005,-1.6455,-1.6656,-1.674,-1.7034,-1.7194,-1.7275,-1.7275,-1.7128,-1.7018,-1.6911,-1.6607,-1.6246,-1.5752,-1.511,-1.4512,-1.3881,-1.4175,-1.4335,-1.3841,-1.4429,-1.5003,-1.5217,-1.5404,-1.5484,-1.5404,-1.5204,-1.4937,-1.4506,-1.4429,-1.4242,-1.3948,-1.3706,-1.3304,-1.2697,-1.2338,-1.1527,-1.0166,-0.8779,-0.7449,0.0,0.0,0.0,0.0,0.0,0.0,0.0,0.0,0.0,0.0,0.0,0.0,0.0,0.0,0.0,0.0,0.0,0.0,0.0,0.0,0.0,0.0,0.0,0.0,0.0,0.0,-2.3203,-2.3403,-2.4812,-2.5215,-2.3906,-2.4844,-2.5703,-2.6163,-2.6836,-2.7676,-2.8672,-2.8511,-2.8746,-2.9607,-2.9297,-2.9277,-2.9626,-2.9626,-2.9626,-2.9626,-2.9277,-2.9062,-2.8906,-2.8633,-2.8437,-2.8301,-2.8301,-2.8301,-2.8301,-2.8301,-2.7949,-2.7338,-2.6465,-2.6132,-2.6027,-2.5058,-2.5323,-2.5903,-2.4368,-2.4421,-2.4736,-2.1804,-1.984,-1.8593,-1.8593,-1.847,-1.8427,-1.8644,-1.8702,-1.8642,-1.8352,-1.8251,-1.8146,-1.7687,-1.7435,-1.7326,-1.7219,-1.7045,-1.6767,-1.6473,-1.5919,-1.5263,-1.4629,-1.4937,-1.5097,-1.4603,-1.511,-1.5538,-1.5538,-1.5712,-1.5704,-1.5565,-1.5458,-1.5204,-1.471,-1.4482,-1.4295,-1.4095,-1.3721,-1.3413,-1.332,-1.2866,-1.2188,-1.1179,-0.9463,-0.7778,-0.6051,0.0,0.0,0.0,0.0,0.0,0.0,0.0,0.0,0.0,0.0,0.0,0.0,0.0,0.0,0.0,0.0,0.0,0.0,0.0,0.0,0.0,0.0,0.0,-2.1855,-2.3398,-2.4316,-2.3965,-2.5781,-2.6582,-2.536,-2.6769,-2.7891,-2.8301,-2.8711,-2.9141,-2.957,-2.9626,-2.9646,-2.9665,-2.9646,-2.9646,-2.9665,-2.9665,-2.9665,-2.9665,-2.9646,-2.9375,-2.8965,-2.8926,-2.8691,-2.832,-2.8301,-2.8301,-2.8301,-2.8301,-2.8301,-2.8301,-2.8301,-2.8301,-2.8301,-2.8301,-2.8301,-2.8062,-2.6308,-2.5663,-2.5325,-2.3557,-2.2675,-2.2341,-2.2341,-2.2024,-2.171,-2.171,-2.171,-2.1389,-2.004,-1.9679,-1.9317,-1.7989,-1.7687,-1.7554,-1.7273,-1.7219,-1.7125,-1.678,-1.65,-1.6161,-1.5524,-1.5645,-1.5691,-1.5444,-1.5645,0.0,-1.5784,-1.5784,-1.5784,-1.5784,-1.5578,-1.5297,-1.5048,-1.4442,-1.4108,-1.4082,-1.3534,-1.3333,-1.3573,-1.2786,-1.2318,-1.2281,-0.9627,-0.7358,-0.5472,0.0,0.0,0.0,0.0,0.0,0.0,0.0,0.0,0.0,0.0,0.0,0.0,0.0,0.0,0.0,0.0,0.0,0.0,0.0,0.0,0.0,-2.2246,-2.3437,-2.3691,-2.4621,-2.5684,-2.6554,-2.7656,-2.8262,-2.7891,-2.8574,-2.9101,-2.9219,-2.9316,-2.957,-3.0,-2.9726,-2.9863,-3.0508,-3.0195,-3.0195,-3.0527,-3.0527,-3.0527,-3.0527,-3.0195,-2.9961,-2.9824,-2.9199,-2.8848,-2.873,-2.8418,-2.8301,-2.8301,-2.8301,-2.8301,-2.8301,-2.8301,-2.8301,-2.8301,-2.8301,-2.8301,-2.8208,-2.7699,-2.6686,-2.5539,-2.4987,-2.3893,-2.2759,-2.2759,-2.2457,-2.2158,-2.2158,-2.1908,-2.1592,-2.1253,-2.1135,-2.0794,-1.9369,-1.9072,-1.8731,-1.7737,-1.7514,-1.7434,-1.7139,-1.7018,-1.6777,-1.6187,-1.5925,-1.5758,-1.5725,-1.5731,-1.5784,-1.5784,-1.5784,-1.5784,-1.5784,-1.5704,-1.5591,-1.5297,-1.4981,-1.4579,-1.4108,-1.3534,-1.324,-1.332,-1.2879,-1.2309,-1.151,-1.0575,-0.8978,0.0,0.0,0.0,0.0,0.0,0.0,0.0,0.0,0.0,0.0,0.0,0.0,0.0,0.0,0.0,0.0,0.0,0.0,0.0,0.0,0.0,0.0,-2.3965,-2.5156,-2.5703,-2.623,-2.6816,-2.763,-2.8398,-2.8926,-2.8926,-2.9473,-2.9824,-2.9824,-3.0019,-3.0234,-3.0469,-3.0254,-3.0351,-3.0879,-3.0625,-3.0625,-3.0898,-3.0898,-3.0898,-3.0879,-3.0625,-3.0391,-3.0176,-2.9687,-2.9355,-2.918,-2.8945,-2.8828,-2.8828,-2.8828,-2.8828,-2.8789,0.0,0.0,0.0,0.0,-2.8301,-2.8301,-2.8301,-2.7626,-2.6739,-2.6739,-2.5929,-2.4915,-2.4915,-2.4576,-2.4237,-2.4077,-2.3862,-2.348,-2.2702,-2.2567,-2.2215,-2.0794,-2.0487,-2.0076,-1.8708,-1.8447,-1.8248,-1.7511,-1.7286,0.0,-1.675,-1.6299,-1.6019,-1.6019,-1.5912,-1.5784,-1.5784,-1.5784,-1.5784,-1.5784,-1.5784,-1.5712,-1.5418,-1.5017,0.0,0.0,0.0,-1.316,-1.3026,-1.2878,0.0,0.0,0.0,0.0,0.0,-0.7363,0.0,0.0,-0.6051,-0.6033,0.0,0.0,0.0,0.0,0.0,0.0,0.0,0.0,0.0,0.0,0.0,0.0,0.0,0.0,0.0,0.0,-2.5334,-2.6566,-2.7818,-2.7839,-2.7806,-2.7865,-2.8516,-2.9004,-2.9062,-2.9805,-3.0273,-3.0273,-3.0664,-3.0898,-3.0898,-3.0898,0.0,0.0,0.0,-3.0898,-3.0898,-3.0898,-3.0898,-3.0898,-3.0898,-3.0684,-3.0273,-3.0215,-3.0,-2.9704,-2.959,-2.9626,-2.9626,-2.9626,-2.9626,-2.9548,-2.8672,-2.834,-2.8301,-2.8301,-2.8301,-2.8301,-2.8301,0.0,0.0,-2.8301,-2.8047,-2.7787,-2.7787,-2.7441,-2.7012,-2.6641,-2.6465,-2.604,-2.4411,-2.3985,-2.3583,-2.2265,-2.1963,-2.1541,-2.0128,-1.9731,-1.9265,-1.8042,-1.7524,-1.7246,-1.7246,-1.6737,-1.6321,-1.6321,-1.6019,-1.5784,-1.5784,-1.5784,-1.5784,-1.5784,-1.5784,0.0,-1.5471,-1.4937,-1.4603,-1.4576,-1.3814,-1.324,-1.2998,-1.3012,-1.2583,-1.1606,-1.0697,-0.9829,-0.8922,-0.8168,-0.7583,-0.7152,-0.6478,-0.6445,0.0,0.0,0.0,0.0,0.0,0.0,0.0,0.0,0.0,0.0,0.0,0.0,0.0,0.0,0.0,-2.6722,-2.8042,-2.9113,-2.9704,-2.8886,-2.8301,-2.8633,-2.9121,-2.957,-2.9922,-3.043,-3.0762,-3.0762,-3.084,-3.0898,-3.0898,-3.0898,-3.0898,-3.0898,-3.0898,-3.0898,-3.0898,-3.0898,-3.0898,-3.0898,-3.0898,0.0,-3.0742,-3.0371,-3.0156,-3.0059,-2.9726,-2.9626,-2.9626,-2.9626,-2.9626,-2.9567,-2.9004,-2.8594,-2.8301,-2.8301,-2.8301,-2.8301,-2.8301,-2.8301,-2.8301,-2.8301,-2.8242,-2.8164,-2.8164,-2.7871,0.0,-2.7493,-2.6914,-2.6317,-2.5971,-2.5583,-2.4971,-2.3633,-2.3335,-2.2918,-2.1608,-2.0385,-1.9524,-1.9265,-1.83,-1.7502,-1.7502,-1.682,-1.6321,-1.6321,-1.6019,-1.5784,-1.5784,-1.5784,-1.5784,-1.5784,-1.5784,-1.5758,-1.5752,-1.5431,-1.5124,-1.4941,-1.4496,-1.4242,-1.4175,-1.4402,-1.4329,-1.3877,-1.366,-1.2533,-1.0377,-1.0241,-0.9292,-0.7672,-0.7414,-0.7292,0.0,0.0,0.0,0.0,0.0,0.0,0.0,0.0,0.0,0.0,0.0,-2.3165,-2.5771,0.0,-2.825,-2.9489,-2.9721,-2.9854,-3.0265,-2.9164,-2.8437,-2.8867,-2.9297,-2.9726,-3.0156,-3.0625,-3.0898,-3.0898,-3.0898,-3.0898,-3.0898,-3.0898,-3.0898,-3.0898,-3.0898,-3.0898,-3.0898,-3.0898,-3.0898,-3.0898,-3.0898,-3.0898,-3.0879,-3.0644,-3.0547,-3.0527,-3.0332,-3.0234,-3.0234,-3.0234,-3.0098,-2.9863,-2.9648,-2.9297,-2.8906,-2.8691,-2.8613,-2.8574,-2.8359,-2.8301,-2.8301,-2.8301,-2.8301,-2.8301,-2.8301,-2.8144,-2.793,-2.7787,-2.7207,-2.666,-2.6445,-2.6055,-2.5528,-2.4873,-2.4707,-2.4344,-2.2968,-2.2165,-2.1253,-1.9886,-1.9072,-1.8408,-1.774,-1.7152,-1.671,-1.6513,-1.6112,-1.5784,-1.5784,-1.5784,-1.5784,-1.5784,-1.5784,-1.5784,-1.5784,-1.5565,-1.5271,-1.5022,-1.483,-1.4736,-1.4736,-1.4928,-1.4941,-1.475,-1.4231,-1.3335,-1.2097,-1.158,-1.0527,-0.8893,-0.881,-0.8398,0.0,0.0,0.0,0.0,0.0,0.0,0.0,0.0,-2.384,-2.711,-2.6651,-2.6574,-2.955,-3.0341,-3.088,-3.1922,-3.1257,-3.0701,-3.1017,-2.9723,-2.8953,-2.9607,-2.9549,-2.9648,-3.0137,-3.0527,-3.0801,-3.0879,-3.0898,-3.0898,-3.0898,-3.0898,-3.0898,-3.0898,-3.0898,-3.0898,-3.0898,-3.0898,-3.0898,-3.0898,-3.0898,-3.0898,-3.0898,-3.0898,-3.0898,-3.0898,-3.0898,-3.0898,-3.0898,-3.0898,-3.0664,-3.0332,-3.0332,-3.0117,-2.9746,-2.9141,-2.8926,-2.8848,-2.8437,-2.8301,-2.8301,-2.8301,-2.8301,-2.8301,-2.8301,-2.8301,-2.8223,-2.7943,-2.7422,-2.6934,-2.6602,-2.6133,-2.5693,-2.5693,-2.5693,-2.5382,-2.4295,-2.3899,-2.3018,-2.0845,-1.9989,-1.9265,-1.8146,-1.7549,-1.7099,-1.6754,-1.6259,-1.5851,-1.5784,-1.5784,-1.5784,-1.5784,-1.5784,-1.5784,-1.5784,-1.5618,-1.5378,-1.515,-1.5182,-1.5182,-1.5182,-1.5182,-1.5182,-1.5182,-1.4309,-1.3755,-1.352,-1.2667,-1.1678,-1.0448,-1.0448,-0.9591,-2.2268,-2.2443,-2.3371,-2.4858,-2.4837,-2.5613,0.0,0.0,-2.7607,-3.1546,-3.0944,-3.0194,-3.1541,-3.2626,-3.3292,-3.3458,-3.3691,-3.3923,-3.392,-3.1695,-3.0683,-3.2353,-3.0422,-2.9316,-3.0117,-3.0234,-3.0449,-3.0859,-3.0898,-3.0898,-3.0898,-3.0898,-3.0898,-3.0898,-3.0898,-3.0898,-3.0898,-3.0898,-3.0898,-3.0898,-3.0898,-3.0898,-3.0898,-3.0898,-3.0898,-3.0898,-3.0898,-3.0898,-3.0898,-3.0898,-3.0859,-3.082,-3.082,-3.0781,-3.0586,-2.9375,-2.8926,-2.8848,-2.8437,-2.8301,-2.8301,-2.8301,-2.8301,-2.8301,-2.8301,-2.8301,-2.8281,-2.8242,-2.7637,-2.7012,-2.6953,-2.6348,-2.5693,-2.5693,-2.5693,-2.5645,-2.5479,-2.4559,-2.3583,-2.3285,-2.1253,-1.9524,-1.942,-1.8156,-1.7099,-1.6754,-1.6433,-1.6126,-1.5858,-1.5784,-1.5784,-1.5784,-1.5784,-1.5784,-1.5784,-1.5758,-1.5718,-1.5691,-1.5725,-1.5725,-1.5725,-1.5725,-1.5725,-1.5725,-1.5576,-1.4946,-1.3837,-1.3717,-1.3116,-1.2144,-1.2144,-1.0653,-2.6038,-2.5862,-2.6013,0.0,-2.8523,-2.9194,-3.1639,-3.0772,-3.0248,-3.3015,-3.2913,-3.2677,-3.3842,-3.4711,-3.5275,0.0,-3.4776,-3.4385,-3.4385,-3.2705,-3.1761,-3.252,-3.1568,-3.1222,-3.2099,-3.0978,-3.0596,-3.1552,-3.1186,-3.0898,-3.0898,-3.0898,-3.0898,-3.0898,-3.0898,-3.0898,-3.0898,-3.0898,-3.0898,-3.0898,-3.0898,-3.0898,-3.0898,-3.0898,-3.0898,-3.0898,-3.0898,-3.0898,-3.0898,-3.0898,-3.0898,-3.0898,-3.0898,-3.0898,-3.0762,-2.9687,-2.9297,-2.9199,-2.8516,-2.8301,-2.8301,-2.8301,-2.8301,-2.8301,-2.8301,-2.8301,-2.8301,-2.8301,-2.7851,-2.7324,-2.709,-2.6562,-2.6055,-2.5752,-2.5693,-2.5479,-2.4707,-2.4097,-2.3235,-2.1608,-2.0385,-1.9369,-1.8551,-1.7893,-1.7353,-1.7058,-1.6616,-1.6233,-1.6099,-1.5939,-1.5784,-1.5784,-1.5784,-1.5784,-1.5784,-1.5784,-1.5784,-1.5784,-1.5784,-1.5784,-1.5784,-1.5784,-1.5784,-1.5784,-1.5784,-1.5534,-1.4997,-1.4997,-1.4497,-1.3518,-1.3518,-1.2544,-2.7971,-2.8122,0.0,-3.0357,-3.119,-3.1861,-3.2882,-3.2474,-3.2394,-3.4225,-3.4533,-3.4698,-3.5569,-3.6107,-3.6405,-3.6405,-3.5571,-3.4921,-3.4921,-3.3749,-3.2937,-3.3146,-3.2528,-3.2622,-3.3986,-3.1846,-3.1081,-3.2674,-3.1499,-3.0916,-3.1478,-3.1112,-3.0898,-3.0898,-3.0898,-3.0898,-3.0898,-3.0898,-3.0898,-3.0898,-3.0898,-3.0898,-3.0898,-3.0898,-3.0898,-3.0898,-3.0898,-3.0898,-3.0898,-3.0898,-3.0898,-3.0898,-3.0898,-3.0898,-3.0801,-3.0019,-2.9724,-2.9473,-2.8711,-2.8398,-2.8301,-2.8301,-2.8301,-2.8301,-2.8301,-2.8301,-2.8301,-2.8301,-2.7988,-2.7559,-2.7129,-2.6699,-2.6269,-2.5791,-2.5693,-2.5333,-2.3998,-2.3683,-2.2968,-2.0641,-1.9886,-1.9265,-1.8304,-1.7832,-1.7515,-1.7353,-1.6884,-1.6509,-1.6348,-1.6019,-1.5784,-1.5784,-1.5784,-1.5784,-1.5784,-1.5784,-1.5784,-1.5784,-1.5784,-1.5784,-1.5784,-1.5784,-1.5784,-1.5784,-1.5912,-1.5952,-1.5952,-1.6032,-1.5719,-1.5083,-1.5083,-1.4511,-2.67,0.0,-2.998,-3.1085,-3.1755,-3.2656,-3.4902,-3.4475,-3.4149,-3.5968,-3.6307,-3.6332,-3.638,-3.6405,-3.6405,-3.6405,-3.6358,-3.6358,-3.6358,-3.5162,-3.4583,-3.5351,-3.3098,-3.2566,-3.5161,-3.2757,-3.1902,-3.419,-3.1793,-3.1057,-3.2943,-3.1652,-3.0898,-3.0898,-3.0898,-3.0898,-3.0898,-3.0898,-3.0898,-3.0898,-3.0898,-3.0898,-3.0898,-3.0898,-3.0898,-3.0898,-3.0898,-3.0898,-3.0898,-3.0898,-3.0898,-3.0898,-3.0898,-3.0898,-3.084,-3.0351,-2.9922,-2.9512,-2.9062,-2.8633,-2.8301,-2.8301,-2.8301,-2.8301,-2.8301,-2.8301,-2.8301,-2.8301,-2.7988,-2.7559,-2.7129,-2.6699,-2.6269,-2.5791,-2.5693,-2.5333,-2.3998,-2.3683,-2.3285,-2.1895,-2.0538,-1.9576,-1.9524,-1.8447,-1.7582,-1.7569,-1.7367,-1.6965,-1.6402,-1.6019,-1.5784,-1.5784,-1.5784,-1.5784,-1.5784,-1.5784,-1.5784,-1.5784,-1.5784,-1.5784,-1.5784,-1.5784,-1.5784,-1.5784,-1.6112,-1.6259,-1.6308,-1.654,-1.6834,-1.7114,-1.7114,-1.6483,-2.875,0.0,-3.1286,-3.3144,-3.3986,-3.4647,-3.5812,-3.5774,-3.5536,-3.5762,-3.5529,-3.5278,-3.5278,-3.4977,-3.4977,-3.5705,-3.5805,-3.5956,-3.6355,-3.6001,-3.5808,-3.606,-3.5276,-3.5134,-3.5987,-3.3426,0.0,-3.5144,-3.2942,-3.1978,-3.3056,-3.171,-3.0898,-3.0898,-3.0898,-3.0898,-3.0898,-3.0898,-3.0898,-3.0898,-3.0898,-3.0898,-3.0898,-3.0898,-3.0898,-3.0898,-3.0898,-3.0898,-3.0898,-3.0898,-3.0898,-3.0898,-3.0898,-3.0898,-3.0879,-3.0723,-3.0195,-2.9512,-2.9062,-2.8652,-2.8301,-2.8301,-2.8301,-2.8301,-2.8301,-2.8301,-2.8301,-2.8301,-2.8184,-2.7988,-2.7559,-2.7129,-2.6699,-2.6269,-2.5957,-2.5333,-2.3998,-2.3683,-2.3035,-2.0743,-1.9937,-1.9317,-1.8461,-1.7898,-1.7515,-1.738,-1.7048,-1.6714,-1.6375,-1.6019,-1.5784,-1.5784,-1.5784,-1.5784,-1.5784,-1.5784,-1.5784,-1.5784,-1.5784,-1.5784,-1.5784,-1.5784,-1.5925,-1.6126,-1.6219,-1.6366,-1.6567,-1.666,-1.686,-1.7206,-1.7206,-1.7094,-3.0532,-3.1712,-3.2717,-3.4505,-3.5429,-3.5931,-3.6329,-3.6207,-3.5906,-3.5307,-3.465,-3.4148,-3.4148,-3.3671,-3.3721,-3.4981,-3.5207,-3.5504,-3.6304,-3.6405,-3.6329,-3.6081,-3.6081,-3.6081,0.0,0.0,0.0,-3.6128,-3.3617,-3.2432,-3.351,-3.1839,-3.0898,-3.0898,-3.0898,-3.0898,-3.0898,-3.0898,-3.0898,-3.0898,-3.0898,-3.0898,-3.0898,-3.0898,-3.0898,-3.0898,-3.0898,-3.0898,-3.0898,-3.0898,-3.0898,-3.0898,-3.0898,-3.0898,-3.0898,-3.0898,-3.043,-2.9726,-2.9297,-2.8769,-2.8301,-2.8301,-2.8301,-2.8301,-2.8301,-2.8301,-2.8301,-2.8301,-2.8301,-2.8203,-2.7826,-2.7461,-2.7109,-2.6523,-2.6172,-2.5525,-2.4035,-2.3683,-2.2885,-2.0128,-1.9576,-1.9161,-1.7845,-1.7582,-1.7515,-1.738,-1.7099,-1.6714,-1.6375,-1.6112,-1.5952,-1.5798,-1.5784,-1.5784,-1.5784,-1.5784,-1.5784,-1.5784,-1.5784,-1.5824,-1.5979,-1.5992,-1.6126,-1.642,-1.6576,-1.6723,-1.686,-1.6967,-1.7114,-1.7353,-1.7353,-1.746,-3.1863,-3.3119,-3.4248,-3.5282,-3.5981,-3.6405,-3.638,-3.5906,-3.5282,-3.4675,-3.3671,-3.2893,-3.2842,-3.2416,-3.2641,-3.4324,-3.463,-3.5102,-3.6254,-3.6405,-3.6182,0.0,0.0,0.0,0.0,0.0,0.0,-3.7039,-3.3727,-3.2479,-3.4225,-3.2133,-3.0898,-3.0898,-3.0898,-3.0898,-3.0898,-3.0898,-3.0898,-3.0898,-3.0898,-3.0898,-3.0898,-3.0898,-3.0898,-3.0898,-3.0898,-3.0898,-3.0898,-3.0898,-3.0898,-3.0898,-3.0898,-3.0898,-3.0898,-3.0898,-3.0586,-3.0137,-2.9746,-2.9043,-2.832,-2.832,-2.832,-2.8301,-2.8301,-2.8301,-2.8301,-2.8301,-2.8301,-2.8203,-2.7865,-2.7728,-2.7513,-2.6621,-2.6406,-2.5902,-2.4189,-2.3782,-2.2985,-2.0231,-1.9576,-1.9072,-1.7845,-1.7582,-1.7582,-1.7582,-1.7393,-1.7018,-1.6442,-1.6348,-1.6179,-1.5838,-1.5845,-1.5845,-1.5845,-1.5784,-1.5784,-1.5798,-1.5845,-1.5979,-1.6308,-1.6286,-1.6433,-1.6727,-1.7058,-1.7206,-1.7219,-1.7501,-1.7582,-1.7582,-1.7582,-1.7582,-3.3018,-3.4274,-3.5257,-3.5981,-3.6304,-3.6304,-3.5855,-3.5282,-3.4424,-3.2616,-3.1386,-3.0382,-2.9528,-2.993,-3.0934,-3.2591,-3.3897,0.0,-3.6254,-3.6405,0.0,-3.6734,0.0,-3.6935,-3.7337,-3.7387,0.0,0.0,-3.4243,-3.3203,-3.3407,-3.1822,-3.0898,-3.0898,-3.0898,-3.0898,-3.0898,-3.0898,-3.0898,-3.0898,-3.0898,-3.0898,-3.0898,-3.0898,-3.0898,-3.0898,-3.0898,-3.0898,-3.0898,-3.0898,-3.0898,-3.0898,-3.0898,-3.0898,-3.0898,-3.0898,-3.0586,-3.0176,-3.0078,-2.9473,-2.8769,-2.8769,-2.8555,-2.8301,-2.8301,-2.8301,-2.8301,-2.8301,-2.8301,-2.8262,-2.8164,-2.7891,-2.7591,-2.6992,-2.6621,-2.617,-2.538,-2.5167,-2.4412,-2.171,-1.9524,-1.7989,-1.7687,-1.7582,-1.7582,-1.7582,-1.7515,-1.7393,-1.7032,-1.6727,-1.6486,-1.6192,-1.6152,-1.6152,-1.6152,-1.5952,-1.5925,-1.6152,-1.6152,-1.6192,-1.6321,-1.6486,-1.674,-1.7085,-1.7166,-1.7313,-1.7527,-1.7542,-1.7582,-1.7582,-1.7582,-1.7582,-3.4223,-3.5253,-3.5981,-3.6329,-3.6182,-3.573,-3.47,-3.3847,-3.2566,-3.0105,-2.8925,-2.7996,-2.6866,-2.7971,-2.9503,0.0,0.0,0.0,-3.5855,-3.6207,-3.6606,0.0,-3.7186,0.0,-3.7939,-3.7444,-3.679,0.0,-3.4811,-3.3616,-3.2742,-3.1552,-3.0898,-3.0898,-3.0898,-3.0898,-3.0898,-3.0898,-3.0898,-3.0898,-3.0898,-3.0898,-3.0898,-3.0898,-3.0898,-3.0898,-3.0898,-3.0898,-3.0898,-3.0898,-3.0898,-3.0898,-3.0898,-3.0898,-3.0898,-3.0898,-3.0723,-3.0508,-3.0508,-2.9941,-2.918,-2.8984,-2.8633,-2.8301,-2.8301,-2.8301,-2.8301,-2.8301,-2.8301,-2.8301,-2.8301,-2.8125,-2.7832,-2.7402,-2.6973,-2.6543,-2.6113,-2.583,-2.4922,-2.2215,-1.9472,-1.7582,-1.7582,-1.7582,-1.7582,-1.7582,-1.7582,-1.7528,-1.7407,-1.7139,-1.674,-1.6313,-1.6321,-1.6321,-1.6321,-1.6126,-1.6152,-1.6446,-1.646,-1.6526,-1.6697,-1.682,-1.7034,-1.738,-1.7393,-1.7474,-1.7582,-1.7582,-1.7582,-1.7582,-1.7582,-1.7582,-3.5332,-3.6006,-3.6405,-3.6405,-3.5906,-3.4956,-3.3345,-3.1989,-3.0281,-2.7519,0.0,-2.5711,-2.4682,-2.6289,-2.8197,-2.9478,0.0,-3.4198,-3.5332,-3.6081,-3.6732,-3.7236,-3.7362,-3.7638,-3.8165,-3.7087,-3.6466,-3.6763,-3.555,-3.4075,-3.2392,-3.1603,-3.1112,-3.0898,-3.0898,-3.0898,-3.0898,-3.0898,-3.0898,-3.0898,-3.0898,-3.0898,-3.0898,-3.0898,-3.0898,-3.0898,-3.0898,-3.0898,-3.0898,-3.0898,-3.0898,-3.0898,-3.0898,-3.0898,-3.0898,-3.0898,-3.0898,-3.0898,-3.0898,-3.0351,-2.957,-2.9141,-2.8691,-2.8301,-2.8301,-2.8301,-2.8301,-2.8301,-2.8301,-2.8301,-2.8301,-2.8301,-2.8184,-2.7826,-2.7324,-2.6894,-2.6484,-2.5739,-2.4461,-2.2165,-1.9472,-1.7582,-1.7582,-1.7582,-1.7582,-1.7582,-1.7582,-1.7582,-1.7582,-1.742,-1.7045,-1.6496,-1.6442,-1.6442,-1.6442,-1.6402,-1.646,-1.674,-1.6767,-1.6874,-1.7192,-1.7233,-1.738,-1.7582,-1.7582,-1.7582,-1.7582,-1.7582,-1.7582,-1.7582,-1.7582,-1.7582,-3.6056,-3.6329,-3.6405,-3.6405,-3.5604,-3.4379,-3.2742,-3.0809,0.0,0.0,-2.4399,-2.3471,-2.2874,-2.4556,-2.6691,-2.8712,0.0,0.0,0.0,0.0,-3.7236,0.0,0.0,0.0,0.0,0.0,0.0,0.0,-3.7098,-3.5808,-3.3064,-3.2809,-3.215,-3.0937,-3.0898,-3.0898,-3.0898,-3.0898,-3.0898,-3.0898,-3.0898,-3.0898,-3.0898,-3.0898,-3.0898,-3.0898,-3.0898,-3.0898,-3.0898,-3.0898,-3.0898,-3.0898,-3.0898,-3.0898,-3.0898,-3.0898,-3.0898,-3.0898,-3.0898,-3.0547,-3.0019,-2.959,-2.8926,-2.8301,-2.8301,-2.8301,-2.8301,-2.8301,-2.8301,-2.8301,-2.8301,-2.8301,-2.8184,-2.7826,-2.7324,-2.6894,-2.6484,-2.4272,-2.2265,-2.1794,-1.9472,-1.7582,-1.7582,-1.7582,-1.7582,-1.7582,-1.7582,-1.7582,-1.7582,-1.7542,-1.7434,-1.7085,-1.7045,-1.7045,-1.7045,-1.6767,-1.6754,-1.7099,-1.7125,-1.7152,-1.7192,-1.7434,-1.7528,-1.7582,-1.7582,-1.7582,-1.7582,-1.7582,-1.7582,-1.7582,-1.7582,-1.7582,-3.6254,-3.6405,-3.6405,-3.6405,-3.5328,-3.3721,-3.1461,0.0,0.0,0.0,-2.2648,-2.202,-2.1167,-2.3301,0.0,-2.6581,0.0,0.0,0.0,0.0,0.0,0.0,0.0,0.0,0.0,0.0,-3.8582,-3.8635,-3.7902,-3.6541,-3.4348,-3.3529,-3.2416,-3.0957,-3.0898,-3.0898,-3.0898,-3.0898,-3.0898,-3.0898,-3.0898,-3.0898,-3.0898,-3.0898,-3.0898,-3.0898,-3.0898,-3.0898,-3.0898,-3.0898,-3.0898,-3.0898,-3.0898,-3.0898,-3.0898,-3.0898,-3.0898,-3.0898,-3.0898,-3.0586,-3.0156,-2.9961,-2.9316,-2.8574,-2.8359,-2.8301,-2.8301,-2.8301,-2.8301,-2.8301,-2.8301,-2.8301,-2.8242,-2.8047,-2.75,-2.6894,-2.6484,-2.449,-2.2517,-2.1845,-2.0025,-1.8408,-1.774,-1.7582,-1.7582,-1.7582,-1.7582,-1.7582,-1.7582,-1.7582,-1.7527,-1.7233,-1.7206,-1.7206,-1.7206,-1.7072,-1.7112,-1.7407,-1.742,-1.742,-1.742,-1.7502,-1.7582,-1.7582,-1.7582,-1.7582,-1.7582,-1.7582,-1.7582,-1.7582,-1.7582,-1.7582,-3.6254,-3.6405,-3.638,-3.6254,-3.4951,-3.2993,-3.0231,-2.7795,0.0,0.0,-2.1292,-2.0891,-2.0137,-2.2246,-2.4255,0.0,-2.7419,0.0,0.0,0.0,0.0,0.0,0.0,0.0,0.0,0.0,0.0,-3.9645,-3.8348,-3.6865,-3.5398,-3.3586,-3.2092,-3.0937,-3.0898,-3.0898,-3.0898,-3.0898,-3.0898,-3.0898,-3.0898,-3.0898,-3.0898,-3.0898,-3.0898,-3.0898,-3.0898,-3.0898,-3.0898,-3.0898,-3.0898,-3.0898,-3.0898,-3.0898,-3.0898,-3.0898,-3.0898,-3.0898,-3.0898,-3.0644,-3.0332,-3.0234,-2.9609,-2.8848,-2.8516,-2.8359,-2.8301,-2.8301,-2.8301,-2.8301,-2.8301,-2.8301,-2.8262,-2.8184,-2.7578,-2.6894,-2.6484,-2.5008,-2.3285,-2.1946,-2.0538,-1.9161,-1.7845,-1.7582,-1.7582,-1.7582,-1.7582,-1.7582,-1.7582,-1.7582,-1.7502,-1.7313,-1.73,-1.73,-1.73,-1.73,-1.7393,-1.7569,-1.7582,-1.7582,-1.7582,-1.7582,-1.7582,-1.7582,-1.7582,-1.7582,-1.7582,-1.7582,-1.7582,-1.7582,-1.7582,-1.7582,-3.6254,-3.6405,-3.6279,-3.5708,-3.4374,-3.2416,-2.959,0.0,0.0,-2.197,-2.0665,-2.0087,-2.0541,-2.127,-2.2447,-2.4449,-2.6766,-2.9202,0.0,0.0,0.0,0.0,0.0,0.0,0.0,0.0,-3.9517,-3.9697,-3.8348,-3.6865,-3.5398,-3.2664,-3.1054,-3.0898,-3.0898,-3.0898,-3.0898,-3.0898,-3.0898,-3.0898,-3.0898,-3.0898,-3.0898,-3.0898,-3.0898,-3.0898,-3.0898,-3.0898,-3.0898,-3.0898,-3.0898,-3.0898,-3.0898,-3.0898,-3.0898,-3.0898,-3.0898,-3.0898,-3.0898,-3.0859,-3.0762,-3.0332,-2.9609,-2.8906,-2.8867,-2.8594,-2.8301,-2.8301,-2.8301,-2.8301,-2.8301,-2.8301,-2.8203,-2.7812,-2.7363,-2.6894,-2.6484,-2.5008,-2.3285,-2.1946,-2.0538,-1.9161,-1.7845,-1.7582,-1.7582,-1.7582,-1.7582,-1.7582,-1.7582,-1.7582,-1.7569,-1.7542,-1.7542,-1.7542,-1.7542,-1.7542,-1.7555,-1.7582,-1.7582,-1.7582,-1.7582,-1.7582,-1.7582,-1.7582,-1.7582,-1.7582,-1.7582,-1.7582,-1.7582,-1.7582,-1.7582,-1.7582,-3.5529,-3.6107,-3.6279,-3.5633,-3.4048,-3.1913,-2.9439,0.0,-2.3778,-2.187,-2.0589,-1.9861,-2.0112,-2.0641,-2.1521,-2.305,-2.4299,-2.6154,-2.9302,0.0,0.0,0.0,0.0,0.0,0.0,0.0,-3.9697,-3.9697,-3.7477,-3.5945,-3.5343,-3.336,-3.1825,-3.0957,-3.0898,-3.0898,-3.0898,-3.0898,-3.0898,-3.0898,-3.0898,-3.0898,-3.0898,-3.0898,-3.0898,-3.0898,-3.0898,-3.0898,-3.0898,-3.0898,-3.0898,-3.0898,-3.0898,-3.0898,-3.0898,-3.0898,-3.0898,-3.0898,-3.0898,-3.0898,-3.0859,-3.0684,-3.0195,-2.959,-2.9082,-2.8633,-2.8301,-2.8301,-2.8301,-2.8301,-2.8301,-2.8301,-2.8262,-2.8086,-2.7715,-2.7285,-2.6855,-2.6006,-2.4858,-2.322,-2.1811,-2.0436,-1.902,-1.8146,-1.7582,-1.7582,-1.7582,-1.7582,-1.7582,-1.7582,-1.7582,-1.7582,-1.7582,-1.7582,-1.7582,-1.7582,-1.7582,-1.7582,-1.7582,-1.7582,-1.7582,-1.7582,-1.7582,-1.7582,-1.7582,-1.7582,-1.7582,-1.7582,-1.7582,-1.7582,-1.7582,-1.7582,-3.4806,-3.5579,-3.578,-3.5357,-3.3577,-3.1361,0.0,-2.6138,-2.3477,-2.1647,-2.0489,-1.9811,-1.9811,-2.0289,-2.0993,-2.192,-2.292,-2.465,-2.7695,-2.8875,0.0,0.0,0.0,-3.6684,0.0,-3.9396,-3.9697,-3.9697,-3.6942,-3.5288,-3.5288,-3.3473,-3.1977,-3.0957,-3.0898,-3.0898,-3.0898,-3.0898,-3.0898,-3.0898,-3.0898,-3.0898,-3.0898,-3.0898,-3.0898,-3.0898,-3.0898,-3.0898,-3.0898,-3.0898,-3.0898,-3.0898,-3.0898,-3.0898,-3.0898,-3.0898,-3.0898,-3.0898,-3.0898,-3.0898,-3.0898,-3.0898,-3.0488,-2.9902,-2.9297,-2.8809,-2.8457,-2.832,-2.8301,-2.8301,-2.8301,-2.8301,-2.8301,-2.8301,-2.7969,-2.7539,-2.7109,-2.668,-2.5733,-2.3555,-2.2366,-2.1151,-1.9317,-1.8251,-1.7582,-1.7582,-1.7582,-1.7582,-1.7582,-1.7582,-1.7582,-1.7582,-1.7582,-1.7582,-1.7582,-1.7582,-1.7582,-1.7582,-1.7582,-1.7582,-1.7582,-1.7582,-1.7582,-1.7582,-1.7582,-1.7582,-1.7582,-1.7582,-1.7582,-1.7582,-1.7582,-1.7582,-3.4274,-3.4726,-3.4751,-3.4726,-3.3043,-3.0683,0.0,-2.5586,-2.3376,-2.1169,-2.0239,-1.9811,-1.9811,-2.0289,-2.0867,-2.1418,-2.3351,-2.5553,-2.7795,-2.9553,0.0,0.0,0.0,-3.5403,-3.7036,-3.8718,-3.9697,-3.9697,-3.6942,-3.5288,-3.5288,-3.255,-3.0898,-3.0898,-3.0898,-3.0898,-3.0898,-3.0898,-3.0898,-3.0898,-3.0898,-3.0898,-3.0898,-3.0898,-3.0898,-3.0898,-3.0898,-3.0898,-3.0898,-3.0898,-3.0898,-3.0898,-3.0898,-3.0898,-3.0898,-3.0898,-3.0898,-3.0898,-3.0898,-3.0898,-3.0898,-3.0898,-3.0293,-2.957,-2.9626,-2.9258,-2.8828,-2.8418,-2.8301,-2.8301,-2.8301,-2.8301,-2.8301,-2.8301,-2.7969,-2.7539,-2.7109,-2.668,-2.5465,-2.2333,-2.1693,-2.0829,-1.8094,-1.7635,-1.7582,-1.7582,-1.7582,-1.7582,-1.7582,-1.7582,-1.7582,-1.7582,-1.7582,-1.7582,-1.7582,-1.7582,-1.7582,-1.7582,-1.7582,-1.7582,-1.7582,-1.7582,-1.7582,-1.7582,-1.7582,-1.7582,-1.7582,-1.7582,-1.7582,-1.7582,-1.7582,-1.7582,-3.111,-3.1888,-3.2164,-3.0994,-2.9679,-2.8147,-2.6515,-2.4431,-2.2548,-2.1471,-2.0464,-1.9811,-1.9811,-1.9962,-2.0765,-2.2874,-2.3803,-2.5159,-2.7745,0.0,0.0,0.0,0.0,-3.8316,0.0,0.0,-3.9697,-3.9697,-3.6942,-3.5288,-3.5288,-3.2493,-3.0898,-3.0898,-3.0898,-3.0898,-3.0898,-3.0898,-3.0898,-3.0898,-3.0898,-3.0898,-3.0898,-3.0898,-3.0898,-3.0898,-3.0898,-3.0898,-3.0898,-3.0898,-3.0898,-3.0898,-3.0898,-3.0898,-3.0898,-3.0898,-3.0898,-3.0898,-3.0898,-3.0898,-3.0898,-3.0898,-3.0488,-2.9941,-2.9648,-2.9062,-2.8457,-2.834,-2.8301,-2.8301,-2.8301,-2.8301,-2.8301,-2.8301,-2.8184,-2.7891,-2.7168,-2.6914,-2.6078,-2.3559,-2.2316,-2.1135,-1.9265,-1.8199,-1.7582,-1.7582,-1.7582,-1.7582,-1.7582,-1.7582,-1.7582,-1.7582,-1.7582,-1.7582,-1.7582,-1.7582,-1.7582,-1.7582,-1.7582,-1.7582,-1.7582,-1.7582,-1.7582,-1.7582,-1.7582,-1.7582,-1.7582,-1.7582,-1.7582,-1.7582,-1.7582,-1.7582,-2.8725,-2.9654,-2.9955,-2.9088,-2.7946,-2.665,-2.5285,-2.3602,-2.2046,-2.1066,-2.0288,-1.9811,-1.9811,-1.9987,-2.0765,-2.2723,-2.3577,-2.4883,0.0,0.0,0.0,0.0,0.0,0.0,0.0,-3.9446,-3.9465,-3.8921,-3.6649,-3.5068,-3.4515,-3.2207,-3.0898,-3.0898,-3.0898,-3.0898,-3.0898,-3.0898,-3.0898,-3.0898,-3.0898,-3.0898,-3.0898,-3.0898,-3.0898,-3.0898,-3.0898,-3.0898,0.0,-3.0898,-3.0898,-3.0898,-3.0898,-3.0898,-3.0898,-3.0898,-3.0898,-3.0898,-3.0898,-3.0898,-3.0898,-3.0898,-3.0469,-2.9863,-2.9277,-2.8711,-2.8301,-2.8301,-2.8301,-2.8301,-2.8301,-2.8301,-2.8301,-2.8301,-2.8301,-2.8105,-2.7402,-2.675,-2.5638,-2.3571,-2.1962,-2.0487,-1.9072,-1.8146,-1.7582,-1.7582,-1.7582,-1.7582,-1.7582,-1.7582,-1.7582,-1.7582,-1.7582,-1.7582,-1.7582,-1.7582,-1.7582,-1.7582,-1.7582,-1.7582,-1.7582,-1.7582,-1.7582,-1.7582,-1.7582,-1.7582,-1.7582,-1.7582,-1.7582,-1.7582,-1.7582,-1.7649,0.0,-2.772,-2.7921,-2.8311,-2.7293,-2.5795,-2.418,-2.2975,0.0,-2.0188,-1.9836,-1.9836,-1.9911,-2.0365,-2.0943,-2.1669,-2.3125,-2.4933,0.0,0.0,0.0,0.0,-3.6383,0.0,-3.8065,-3.8968,-3.8973,-3.7583,-3.6054,-3.457,-3.3191,-3.171,-3.0898,-3.0898,-3.0898,-3.0898,-3.0898,-3.0898,-3.0898,-3.0898,-3.0898,-3.0898,-3.0898,-3.0898,-3.0898,-3.0898,-3.0898,-3.0898,-3.0898,-3.0898,-3.0898,-3.0898,-3.0898,-3.0898,-3.0898,-3.0898,-3.0898,-3.0898,-3.0898,-3.0898,-3.0879,-3.082,-3.0234,-2.947,-2.8555,-2.8301,-2.8301,-2.8301,-2.8301,-2.8301,-2.8301,-2.8301,-2.8301,-2.8301,-2.8301,-2.8184,-2.7649,-2.6177,-2.4435,-2.2547,-2.0789,-1.9161,-1.7845,-1.7582,-1.7582,-1.7582,-1.7582,-1.7582,-1.7582,-1.7582,-1.7582,-1.7582,-1.7582,-1.7582,-1.7582,-1.7582,-1.7582,-1.7582,-1.7582,-1.7582,-1.7582,-1.7582,-1.7582,-1.7582,-1.7582,-1.7582,-1.7582,-1.7582,-1.7582,-1.7582,-1.7609,-1.7769,-2.2824,0.0,-2.4782,-2.4054,-2.3577,-2.3075,0.0,-2.1571,-2.0968,-2.0566,-2.0112,-2.0062,-2.0941,-2.0893,-2.1571,-2.4205,-2.5335,-2.67,-2.89,0.0,0.0,-3.6985,-3.8341,-3.9145,-3.9295,-3.854,-3.7849,-3.753,-3.5101,-3.3473,-3.3134,-3.171,-3.0898,-3.0898,-3.0898,-3.0898,-3.0898,-3.0898,-3.0898,-3.0898,-3.0898,-3.0898,-3.0898,-3.0898,-3.0898,-3.0898,-3.0898,-3.0898,-3.0898,-3.0898,-3.0898,-3.0898,-3.0898,-3.0898,-3.0898,-3.0898,-3.0898,-3.0898,-3.0898,-3.0898,-3.0781,-3.0098,-2.9746,-2.947,-2.8555,-2.8301,-2.8301,-2.8301,-2.8301,-2.8301,-2.8301,-2.8301,-2.8301,-2.8301,-2.8301,-2.7898,-2.6305,-2.5459,-2.4105,-2.1186,-2.0061,-1.9161,-1.7845,-1.7582,-1.7582,-1.7582,-1.7582,-1.7582,-1.7582,-1.7582,-1.7582,-1.7582,-1.7582,-1.7582,-1.7582,-1.7582,-1.7582,-1.7582,-1.7582,-1.7582,-1.7582,-1.7582,-1.7582,-1.7582,-1.7582,-1.7582,-1.7582,-1.7582,-1.7582,-1.7582,-1.7822,-1.7916,-2.1069,-2.2322,-2.3421,-2.2819,-2.2669,-2.2518,-2.1995,-2.127,-2.0616,-2.0339,0.0,-2.0062,-2.0968,-2.132,-2.2171,-2.4481,-2.5963,0.0,0.0,0.0,0.0,-3.7839,-3.8994,-3.9697,-3.9697,-3.8348,-3.724,-3.6541,-3.4403,-3.2794,-3.215,-3.1325,-3.0898,-3.0898,-3.0898,-3.0898,-3.0898,-3.0898,-3.0898,-3.0898,-3.0898,-3.0898,-3.0898,-3.0898,-3.0898,-3.0898,-3.0898,-3.0898,-3.0898,-3.0898,-3.0898,-3.0898,-3.0898,-3.0898,-3.0898,-3.0898,-3.0898,-3.0898,-3.0898,-3.0898,-3.0742,-2.9863,-2.9626,-2.947,-2.8555,-2.8301,-2.8301,-2.8301,-2.8301,-2.8301,-2.8301,-2.8301,-2.8301,-2.8301,-2.8301,-2.7829,-2.6098,-2.4845,-2.3368,-2.1002,-1.9531,-1.8503,-1.7875,-1.7675,-1.7582,-1.7582,-1.7582,-1.7582,-1.7582,-1.7582,-1.7582,-1.7582,-1.7582,-1.7582,-1.7582,-1.7582,-1.7582,-1.7582,-1.7582,-1.7582,-1.7582,-1.7582,-1.7582,-1.7582,-1.7582,-1.7582,-1.7582,-1.7582,-1.7662,-1.7796,-1.7916,-1.8142,-2.0742,-2.2071,-2.317,-2.292,-2.297,-2.2945,-2.2322,0.0,0.0,0.0,0.0,0.0,-2.1069,-2.1995,0.0,-2.4305,0.0,0.0,-3.2817,-3.5177,-3.691,-3.7889,-3.8994,0.0,-3.9697,-3.8137,-3.6649,-3.5398,-3.3733,-3.2207,-3.0937,-3.0898,-3.0898,-3.0898,-3.0898,-3.0898,-3.0898,-3.0898,-3.0898,-3.0898,-3.0898,-3.0898,-3.0898,-3.0898,-3.0898,-3.0898,-3.0898,-3.0898,-3.0898,-3.0898,-3.0898,-3.0898,-3.0898,-3.0898,-3.0898,-3.0898,-3.0898,-3.0898,-3.0898,-3.084,-3.0644,-2.9844,-2.9531,-2.9316,-2.8535,-2.8301,-2.8301,-2.8301,-2.8301,-2.8301,-2.8301,-2.8301,-2.8228,-2.8014,-2.796,-2.7511,-2.5772,-2.3945,-2.2269,-2.1033,-1.9108,-1.7809,-1.8022,-1.7889,-1.7702,-1.7662,-1.7649,-1.7635,-1.7595,-1.7582,-1.7582,-1.7582,-1.7582,-1.7582,-1.7582,-1.7582,-1.7582,-1.7582,-1.7582,-1.7582,-1.7582,-1.7582,-1.7582,-1.7582,-1.7582,-1.7582,-1.7582,-1.7582,-1.7742,-1.7995,-1.8035,-1.8355,-2.1644,-2.2949,-2.3527,-2.2096,-2.2447,-2.2844,-2.1845,-2.1521,0.0,0.0,0.0,0.0,0.0,-2.4004,-2.4958,0.0,0.0,-3.1637,0.0,0.0,-3.7287,-3.7939,0.0,-3.9697,-3.9697,-3.721,-3.5563,-3.5288,-3.2758,-3.1112,-3.0898,-3.0898,-3.0898,-3.0898,-3.0898,-3.0898,-3.0898,-3.0898,-3.0898,-3.0898,-3.0898,-3.0898,-3.0898,-3.0898,-3.0898,-3.0898,-3.0898,-3.0898,-3.0898,-3.0898,-3.0898,-3.0898,-3.0898,-3.0898,-3.0898,-3.0898,-3.0898,-3.0898,-3.0898,-3.0625,-3.0215,-2.9726,-2.9316,-2.8926,-2.8437,-2.8301,-2.8301,-2.8301,-2.8301,-2.8301,-2.8301,-2.8301,-2.8014,-2.6717,-2.6445,-2.5663,-2.287,-2.1831,-2.0977,-1.9513,-1.8778,-1.837,-1.841,-1.8384,-1.8263,-1.7955,-1.7916,-1.7876,-1.7609,-1.7582,-1.7582,-1.7582,-1.7582,-1.7582,-1.7582,-1.7582,-1.7582,-1.7582,-1.7582,-1.7582,-1.7582,-1.7582,-1.7582,-1.7582,-1.7582,-1.7582,-1.7582,-1.7582,-1.7742,-1.7995,-1.8303,-1.8597,-2.074,-2.1995,-2.2975,-2.2498,-2.3678,-2.4707,-2.3904,-2.3502,-2.3201,0.0,0.0,0.0,0.0,0.0,-2.7092,-2.9955,0.0,-3.342,-3.5353,-3.6508,-3.7513,0.0,-3.9195,-3.9697,-3.9697,-3.7049,-3.5288,-3.5288,-3.255,-3.0898,-3.0898,-3.0898,-3.0898,-3.0898,-3.0898,-3.0898,-3.0898,-3.0898,-3.0898,-3.0898,-3.0898,-3.0898,-3.0898,-3.0898,-3.0898,-3.0898,-3.0898,-3.0898,-3.0898,-3.0898,-3.0898,-3.0898,-3.0898,-3.0898,-3.0898,-3.0898,-3.0898,-3.0898,-3.0898,-3.0586,-3.0137,-2.9707,-2.9277,-2.8848,-2.8418,-2.8301,-2.8301,-2.8301,-2.8301,-2.8301,-2.8301,-2.8301,-2.796,-2.6427,-2.61,-2.5261,-2.2251,-2.1317,-2.0706,-1.9405,-1.8798,-1.8544,-1.8691,-1.8597,-1.8437,-1.8303,-1.829,-1.8237,-1.809,-1.8076,-1.8076,-1.8076,-1.8076,-1.8009,-1.7849,-1.7836,-1.7756,-1.7595,-1.7582,-1.7582,-1.7582,-1.7582,-1.7582,-1.7582,-1.7582,-1.7582,-1.7582,-1.7756,-1.7983,-1.829,-1.8584,-1.8878,-2.0489,-2.1518,-2.2644,-2.3321,-2.4732,-2.5946,-2.5988,-2.5485,-2.4983,-2.4958,0.0,0.0,0.0,-2.7042,0.0,-3.2893,-3.3922,-3.4685,-3.5779,-3.6501,-3.7221,-3.814,-3.8784,-3.931,-3.9697,-3.7049,-3.5288,-3.5288,-3.255,-3.0898,-3.0898,-3.0898,-3.084,-3.0723,-3.0723,-3.0723,-3.0723,-3.0723,-3.0781,-3.0898,-3.0898,-3.0898,-3.0898,-3.0898,-3.0898,-3.0898,-3.0898,-3.0898,-3.0898,-3.0898,-3.0898,-3.0898,-3.0898,-3.0898,-3.0898,-3.0898,-3.0898,-3.0898,-3.0898,-3.0586,-3.0137,-2.9707,-2.9277,-2.8848,-2.8418,-2.8301,-2.8301,-2.8301,-2.8301,-2.8301,-2.8301,-2.8301,-2.7833,-2.5991,-2.5535,-2.4765,-2.1756,-2.0883,-2.0457,-1.955,-1.8998,-1.8771,-1.8985,-1.8838,-1.8677,-1.8597,-1.8597,-1.8571,-1.8504,-1.849,-1.849,-1.849,-1.849,-1.8397,-1.8115,-1.8102,-1.8023,-1.7716,-1.7622,-1.7582,-1.7582,-1.7582,-1.7582,-1.7582,-1.7582,-1.7622,-1.7689,-1.7876,-1.8182,-1.8597,-1.8824,-1.9078,-2.2443,-2.2945,-2.3321,-2.4399,-2.4431,-2.4707,-2.6716,-2.6314,-2.5963,-2.7494,-2.7821,0.0,0.0,-2.9628,-3.1863,-3.4223,-3.5031,-3.5211,-3.4655,-3.5342,-3.5985,-3.621,-3.7068,-3.819,-3.9569,-3.7049,-3.5288,-3.5288,-3.255,-3.0898,-3.0898,-3.0898,-3.0703,-3.0254,-3.0254,-3.0254,-3.0254,-3.0254,-3.0469,-3.0898,-3.0898,-3.0898,-3.0898,-3.0898,-3.0898,-3.0898,-3.0898,-3.0898,-3.0898,-3.0898,-3.0898,-3.0898,-3.0898,-3.0898,-3.0898,-3.0898,-3.0898,-3.0898,-3.0898,-3.0586,-3.0137,-2.9707,-2.9277,-2.8848,-2.8418,-2.8301,-2.8301,-2.8301,-2.8301,-2.8301,-2.8301,-2.8301,-2.7565,-2.4654,-2.3989,-2.3151,-2.0213,-1.9519,-1.9506,-1.9417,-1.9332,-1.9319,-1.939,-1.9377,-1.9212,-1.8931,-1.8891,-1.8798,-1.8531,-1.849,-1.849,-1.849,-1.849,-1.8477,-1.8464,-1.8464,-1.833,-1.7982,-1.7742,-1.7582,-1.7582,-1.7582,-1.7582,-1.7582,-1.7582,-1.7729,-1.7955,-1.7982,-1.8288,-1.8891,-1.8918,-1.9078,-2.1418,-2.2347,-2.3296,-2.4104,-2.4933,-2.6047,-2.7871,-2.8775,-2.9478,-3.0457,-3.0382,-3.0156,0.0,0.0,-3.3345,-3.4525,-3.5479,-3.6091,-3.6134,-3.6481,-3.68,-3.717,-3.6828,-3.688,-3.7761,-3.5196,-3.3634,-3.3879,-3.2055,-3.0898,-3.0898,-3.0625,-3.0371,-3.0195,-2.9941,-2.9941,-3.0195,-3.0195,-3.043,-3.0898,-3.0898,-3.0898,-3.0898,-3.0898,-3.0898,-3.0898,-3.0898,-3.0898,-3.0898,-3.0898,-3.0898,-3.0898,-3.0898,-3.0898,-3.0898,-3.0898,-3.0898,-3.0898,-3.0898,-3.0586,-3.0137,-2.9707,-2.9277,-2.8848,-2.8418,-2.8301,-2.8301,-2.8301,-2.8301,-2.8301,-2.8301,-2.7618,-2.6391,-2.4322,-2.3095,-2.187,-1.9822,-1.943,-1.943,-1.943,-1.943,-1.943,-1.943,-1.943,-1.939,-1.9212,-1.9199,-1.9158,-1.9052,-1.9038,-1.9038,-1.9038,-1.8865,-1.8758,-1.8758,-1.8597,-1.8437,-1.833,-1.8036,-1.7782,-1.7595,-1.7582,-1.7675,-1.7862,-1.7876,-1.8023,-1.833,-1.8504,-1.8704,-1.8931,-1.9118,-1.9265,-2.127,-2.2146,-2.3296,-2.4079,-2.5511,-2.7278,-2.9252,-3.0457,-3.1461,-3.2516,-3.2315,-3.1989,-3.2139,0.0,0.0,0.0,-3.5655,-3.6388,-3.6305,-3.6406,-3.6653,-3.7072,-3.6066,-3.5615,-3.6407,-3.3874,-3.2419,-3.2882,-3.1489,-3.0742,-3.0879,-3.0449,-3.0137,-3.0,-2.959,-2.9512,-2.9785,-2.9941,-3.0156,-3.0469,-3.0762,-3.0898,-3.0898,-3.0898,-3.0898,-3.0898,-3.0898,-3.0898,-3.0898,-3.0898,-3.0898,-3.0898,-3.0898,-3.0898,-3.0898,-3.0898,-3.0898,-3.0898,-3.0898,-3.0684,-3.0332,-2.9746,-2.9375,-2.9023,-2.8457,-2.8301,-2.8301,-2.8301,-2.8301,-2.8174,-2.7726,-2.6879,-2.5717,-2.4156,-2.2645,-2.1202,-1.9707,-1.943,-1.943,-1.943,-1.943,-1.943,-1.943,-1.943,-1.943,-1.943,-1.943,-1.943,-1.943,-1.943,-1.943,-1.943,-1.9185,-1.9065,-1.9065,-1.8878,-1.8731,-1.8637,-1.8437,-1.8129,-1.7876,-1.7862,-1.7969,-1.8129,-1.8129,-1.833,-1.8624,-1.8824,-1.8971,-1.9065,-1.9265,-1.943,-2.2447,-2.2694,-2.3371,-2.4499,-2.6088,-2.8058,-3.0758,-3.1009,-3.126,-3.347,-3.347,-3.3269,-3.3796,-3.3897,-3.4098,-3.465,-3.5655,-3.5906,-3.4581,-3.4764,-3.5073,-3.5222,-3.4377,-3.4364,-3.5833,-3.3418,-3.1936,-3.2343,-3.1007,-3.0391,-3.0859,-3.043,-3.0,-2.9626,-2.9141,-2.8906,-2.8926,-2.9355,-2.9626,-2.9646,-3.0469,-3.0879,-3.0879,-3.0898,-3.0898,-3.0898,-3.0898,-3.0898,-3.0898,-3.0898,-3.0898,-3.0898,-3.0898,-3.0898,-3.0898,-3.0898,-3.0898,-3.0898,-3.0898,-3.0879,-3.0742,-2.9863,-2.9626,-2.9414,-2.8555,-2.8301,-2.8301,-2.8301,-2.8301,-2.796,-2.6499,-2.61,-2.5717,-2.4156,-2.2645,-2.1202,-1.9707,-1.943,-1.943,-1.943,-1.943,-1.943,-1.943,-1.943,-1.943,-1.943,-1.943,-1.943,-1.943,-1.943,-1.943,-1.943,-1.943,-1.943,-1.943,-1.943,-1.9239,-1.8945,-1.8931,-1.8798,-1.8504,-1.849,-1.849,-1.849,-1.849,-1.8637,-1.8931,-1.8931,-1.9078,-1.943,-1.943,-1.943,-2.187,-2.2723,0.0,-2.5084,0.0,0.0,-3.1612,-3.2466,-3.3319,-3.4705,-3.4881,-3.4705,-3.4525,-3.4756,-3.5056,-3.5232,-3.5906,-3.6263,-3.5858,-3.5911,-3.601,-3.6033,-3.41,-3.3067,-3.3817,-3.137,-2.9919,-3.0434,-3.0027,-2.9824,-2.9961,-2.9531,-2.9238,-2.9121,-2.8691,-2.8613,-2.8906,-2.9043,-2.9258,-2.957,-2.9844,-3.0117,-3.041,-3.0742,-3.0898,-3.0898,-3.0898,-3.0898,-3.0898,-3.0898,-3.0898,-3.0898,-3.0898,-3.0898,-3.0898,-3.0898,-3.0898,-3.0898,-3.0898,-3.0684,-3.0312,-2.9746,-2.9355,-2.9004,-2.8457,-2.8301,-2.8301,-2.8301,-2.8301,-2.8174,-2.778,-2.6045,-2.41,-2.2589,-2.1145,-1.9924,-1.9475,-1.943,-1.943,-1.943,-1.943,-1.943,-1.943,-1.943,-1.943,-1.943,-1.943,-1.943,-1.943,-1.943,-1.943,-1.943,-1.943,-1.943,-1.943,-1.943,-1.939,-1.9239,-1.9239,-1.9011,-1.8517,-1.849,-1.8584,-1.8784,-1.8798,-1.8945,-1.9239,-1.9239,-1.9279,-1.943,-1.943,-1.943,-2.31,-2.418,0.0,-2.6942,-2.9101,-3.1386,-3.3101,0.0,0.0,0.0,-3.5658,-3.5408,-3.5056,-3.5282,-3.5508,-3.5508,-3.6006,-3.6405,-3.6405,-3.6405,-3.6216,-3.5667,-3.365,-3.219,-3.1935,-2.9954,-2.8848,-2.9277,-2.9316,-2.9394,-2.9607,-2.916,-2.8926,-2.8926,-2.8516,-2.8418,-2.8672,-2.8828,-2.8965,-2.9062,-2.9414,-2.9609,-2.9707,-3.0156,-3.0371,-3.0371,-3.0371,-3.0449,-3.0605,-3.0605,-3.0723,-3.0898,-3.0898,-3.0898,-3.0898,-3.0898,-3.0898,-3.0859,-3.0684,-3.043,-3.0098,-2.9512,-2.9141,-2.8848,-2.8418,-2.8301,-2.8301,-2.8301,-2.8301,-2.8174,-2.7565,-2.5608,-2.3599,-2.2702,-2.0873,-1.943,-1.943,-1.943,-1.943,-1.943,-1.943,-1.943,-1.943,-1.943,-1.943,-1.943,-1.943,-1.943,-1.943,-1.943,-1.943,-1.943,-1.943,-1.943,-1.943,-1.943,-1.943,-1.943,-1.943,-1.9269,-1.8851,-1.8838,-1.8918,-1.9092,-1.9105,-1.9185,-1.943,-1.943,-1.943,-1.943,-1.943,-1.943,-2.5184,-2.6314,-2.7645,-2.9428,-3.0783,0.0,-3.4981,-3.5583,-3.5755,-3.6304,0.0,-3.5583,-3.5583,-3.5583,-3.5583,-3.5583,-3.6031,-3.6405,-3.6405,-3.631,-3.5763,-3.4532,-3.3055,-3.1622,-3.0411,-2.9112,-2.8457,-2.8828,-2.8867,-2.9043,-2.9489,-2.9082,-2.8867,-2.8867,-2.8496,-2.8301,-2.8301,-2.8672,-2.8672,-2.8301,-2.9082,-2.9238,-2.8887,-2.9355,-2.9626,-2.9626,-2.9626,-2.9805,-3.0195,-3.0156,-3.043,-3.0879,-3.084,-3.0859,-3.0898,-3.0898,-3.0898,-3.082,-3.0351,-3.0176,-3.0,-2.918,-2.8887,-2.8789,-2.8398,-2.8301,-2.8301,-2.8301,-2.8301,-2.8014,-2.6662,-2.5041,-2.3822,-2.3822,-2.1544,-1.943,-1.943,-1.943,-1.943,-1.943,-1.943,-1.943,-1.943,-1.943,-1.943,-1.943,-1.943,-1.943,-1.943,-1.943,-1.943,-1.943,-1.943,-1.943,-1.943,-1.943,-1.943,-1.943,-1.943,-1.943,-1.943,-1.943,-1.943,-1.943,-1.943,-1.943,-1.943,-1.943,-1.943,-1.943,-1.943,-1.943,-2.4155,-2.5493,0.0,0.0,-3.224,-3.4399,-3.5855,-3.6182,-3.6254,-3.638,-3.6329,-3.6182,-3.6182,-3.6182,-3.6182,-3.6182,-3.6329,-3.6405,-3.6405,-3.5475,-3.4727,-3.4434,-3.2252,-3.0618,-3.0307,-2.9112,-2.834,-2.8418,-2.8437,-2.8476,-2.8555,-2.8476,-2.8437,-2.8437,-2.834,-2.8301,-2.8301,-2.8379,-2.8379,-2.8301,-2.8476,-2.8516,-2.8457,-2.9219,-2.9626,-2.9626,-2.9626,-2.9805,-3.0176,-2.9844,-3.0176,-3.0859,-3.0488,-3.0566,-3.0898,-3.0898,-3.0898,-3.082,-3.0351,-2.998,-2.9629,-2.9082,-2.8691,-2.8418,-2.832,-2.8301,-2.8301,-2.8301,-2.8301,-2.8228,-2.7906,-2.5827,-2.3822,-2.3822,-2.1544,-1.943,-1.943,-1.943,-1.943,-1.943,-1.943,-1.943,-1.943,-1.943,-1.943,-1.943,-1.943,-1.943,-1.943,-1.943,-1.943,-1.943,-1.943,-1.943,-1.943,-1.943,-1.943,-1.943,-1.943,-1.943,-1.943,-1.943,-1.943,-1.943,-1.943,-1.943,-1.943,-1.943,-1.943,-1.943,-1.943,-1.943,-2.4732,0.0,0.0,-3.1763,0.0,-3.5002,-3.6153,-3.6405,-3.6405,-3.6405,-3.6405,-3.6405,-3.6405,-3.6405,-3.6405,-3.6405,-3.6405,-3.6405,-3.6405,-3.5235,-3.4141,-3.3453,-3.1593,-3.0068,-2.9408,-2.8688,-2.8301,-2.8301,-2.8301,-2.8301,-2.8301,-2.8301,-2.8301,-2.8301,-2.8301,-2.8301,-2.8301,-2.8301,-2.8301,-2.8301,-2.8301,-2.8301,-2.832,-2.875,-2.8965,-2.8965,-2.8965,-2.9199,-2.957,-2.9355,-2.9648,-3.0254,-3.0215,-3.0351,-3.0566,-3.0566,-3.0566,-3.0469,-2.9805,-2.9453,-2.918,-2.875,-2.8476,-2.8301,-2.8301,-2.8301,-2.8301,-2.8301,-2.8301,-2.8301,-2.8301,-2.6045,-2.3822,-2.3822,-2.1544,-1.943,-1.943,-1.943,-1.943,-1.943,-1.943,-1.943,-1.943,-1.943,-1.943,-1.943,-1.943,-1.943,-1.943,-1.943,-1.943,-1.943,-1.943,-1.943,-1.943,-1.943,-1.943,-1.943,-1.943,-1.943,-1.943,-1.943,-1.943,-1.943,-1.943,-1.943,-1.943,-1.943,-1.943,-1.943,-1.943,-1.943,-2.5242,0.0,-2.9891,-3.3545,-3.4575,0.0,-3.5981,-3.6355,-3.6405,-3.6405,-3.6405,-3.6405,-3.6405,-3.6405,-3.6405,-3.6405,-3.6216,-3.6048,-3.6048,-3.4703,-3.3254,-3.2079,-3.0773,-2.9513,-2.8388,-2.8301,-2.8301,-2.8301,-2.8301,-2.8301,-2.8301,-2.8301,-2.8301,-2.8301,-2.8301,-2.8301,-2.8301,-2.8301,-2.8301,-2.8301,-2.8301,-2.8301,-2.8301,-2.8301,-2.8301,-2.8301,-2.8301,-2.8535,-2.8906,-2.8848,-2.9101,-2.9609,-2.9961,-3.0137,-3.0195,-3.0195,-3.0195,-3.0078,-2.9219,-2.8926,-2.8848,-2.8437,-2.8301,-2.8301,-2.8301,-2.8301,-2.8301,-2.8301,-2.8301,-2.8301,-2.8301,-2.6045,-2.3822,-2.3822,-2.1544,-1.943,-1.943,-1.943,-1.943,-1.943,-1.943,-1.943,-1.943,-1.943,-1.943,-1.943,-1.943,-1.943,-1.943,-1.943,-1.943,-1.943,-1.943,-1.943,-1.943,-1.943,-1.943,-1.943,-1.943,-1.943,-1.943,-1.943,-1.943,-1.943,-1.943,-1.943,-1.943,-1.943,-1.943,-1.943,-1.943,-1.943,-2.3195,0.0,-3.0256,0.0,-3.4022,-3.4831,0.0,0.0,-3.6405,0.0,-3.6405,-3.6405,-3.6405,-3.6405,-3.6405,-3.6405,-3.5427,-3.4678,-3.4678,-3.2454,-3.0773,-3.0566,-2.9355,-2.8495,-2.8301,-2.8301,-2.8301,-2.8301,-2.8301,-2.8301,-2.8301,-2.8301,-2.8301,-2.8301,-2.8301,-2.8301,-2.8301,-2.8301,-2.8301,-2.8301,-2.8301,-2.8301,-2.8301,-2.8301,-2.8301,-2.8301,-2.8301,-2.8535,-2.8887,-2.8516,-2.8848,-2.9626,-2.9629,-2.9883,-3.0195,-3.0195,-3.0195,-3.0078,-2.9219,-2.8926,-2.8848,-2.8437,-2.8301,-2.8301,-2.8301,-2.8301,-2.8301,-2.8301,-2.8301,-2.8301,-2.8301,-2.6045,-2.3822,-2.3822,-2.1544,-1.943,-1.943,-1.943,-1.943,-1.943,-1.943,-1.943,-1.943,-1.943,-1.943,-1.943,-1.943,-1.943,-1.943,-1.943,-1.943,-1.943,-1.943,-1.943,-1.943,-1.943,-1.943,-1.943,-1.943,-1.943,-1.943,-1.943,-1.943,-1.943,-1.943,-1.943,-1.943,-1.943,-1.943,-1.943,-1.943,-1.943,-2.4657,-2.7344,-2.998,0.0,-3.4148,-3.4831,-3.5382,-3.5981,-3.6405,-3.6405,-3.6405,-3.6168,-3.5427,-3.5906,-3.5906,-3.4338,-3.4264,-3.4117,-3.3304,-3.1542,-3.0307,-3.0307,-2.9112,-2.8301,-2.8301,-2.8301,-2.8301,-2.8301,-2.8301,-2.8301,-2.8301,-2.8301,-2.8301,-2.8301,-2.8301,-2.8301,-2.8301,-2.8301,-2.8301,-2.8301,-2.8301,-2.8301,-2.8301,-2.8301,-2.8301,-2.8301,-2.8301,-2.8398,-2.8555,-2.8359,-2.8516,-2.8887,-2.9121,-2.9316,-2.9473,-2.9473,-2.9473,-2.9394,-2.8769,-2.8574,-2.8535,-2.8359,-2.8301,-2.8301,-2.8301,-2.8301,-2.8301,-2.8301,-2.8301,-2.8301,-2.8301,-2.6045,-2.3822,-2.3822,-2.1544,-1.943,-1.943,-1.943,-1.943,-1.943,-1.943,-1.943,-1.943,-1.943,-1.943,-1.943,-1.943,-1.943,-1.943,-1.943,-1.943,-1.943,-1.943,-1.943,-1.943,-1.943,-1.943,-1.943,-1.943,-1.943,-1.943,-1.943,-1.943,-1.943,-1.943,-1.943,-1.943,-1.943,-1.943,-1.943,-1.9533,-1.9613,0.0,0.0,-2.8637,-3.2014,-3.347,-3.4274,0.0,0.0,-3.6063,0.0,-3.6068,-3.5763,-3.3723,-3.4775,-3.521,-3.3155,-3.3105,-3.3005,-3.1927,-3.0618,-2.9807,-2.9807,-2.89,-2.8301,-2.8301,-2.8301,-2.8301,-2.8301,-2.8301,-2.8301,-2.8301,-2.8301,-2.8301,-2.8301,-2.8301,-2.8301,-2.8301,-2.8301,-2.8301,-2.8301,-2.8301,-2.8301,-2.8301,-2.8301,-2.8301,-2.8301,-2.8301,-2.8301,-2.8301,-2.8301,-2.8301,-2.834,-2.875,-2.8984,-2.9082,-2.9082,-2.916,-2.918,-2.8633,-2.8457,-2.8437,-2.832,-2.8301,-2.8301,-2.8301,-2.8301,-2.832,-2.8418,-2.8379,-2.8267,-2.7968,-2.5933,-2.3825,-2.3335,-2.1332,-1.9452,-1.9386,-1.943,-1.943,-1.943,-1.943,-1.943,-1.943,-1.943,-1.943,-1.943,-1.943,-1.943,-1.943,-1.943,-1.943,-1.943,-1.943,-1.943,-1.943,-1.943,-1.943,-1.943,-1.943,-1.9457,-1.9479,-1.9479,-1.9506,-1.9586,-1.9586,-1.9519,-1.943,-1.943,-1.947,-1.9479,-1.9693,-1.984,0.0,-2.3747,0.0,-2.9176,-3.1185,0.0,0.0,0.0,-3.5183,-3.3911,-3.5108,-3.5186,-3.1214,-3.2705,-3.4434,-3.4337,-3.2151,-3.0463,-3.0411,-2.925,-2.8388,-2.8388,-2.8335,-2.8301,-2.8301,-2.8301,-2.8301,-2.8301,-2.8301,-2.8301,-2.8301,-2.8301,-2.8301,-2.8301,-2.8301,-2.8301,-2.8301,-2.8301,-2.8301,-2.8301,-2.8301,-2.8301,-2.8301,-2.8301,-2.8301,-2.8301,-2.8301,-2.8301,-2.8301,-2.8301,-2.8301,-2.834,-2.875,-2.918,-2.9531,-2.9531,-2.9785,-3.0019,-2.918,-2.8887,-2.8828,-2.8418,-2.8301,-2.8301,-2.8301,-2.8301,-2.8379,-2.8769,-2.8594,-2.8057,-2.705,-2.554,-2.3853,-2.2116,-2.0699,-1.9706,-1.9426,-1.943,-1.943,-1.943,-1.943,-1.943,-1.943,-1.943,-1.943,-1.943,-1.943,-1.943,-1.943,-1.943,-1.943,-1.943,-1.943,-1.943,-1.943,-1.943,-1.943,-1.943,-1.943,-1.9492,-1.9773,-1.9773,-1.9907,-2.0127,-2.0187,-1.992,-1.943,-1.943,-1.9506,-1.9773,-1.9786,-1.9947,0.0,0.0,0.0,-2.7971,-3.0206,-3.1888,-3.2641,-3.3972,-3.469,-3.3696,-3.4054,-3.3934,-3.1984,-3.3105,-3.3525,-3.0927,-3.038,-3.0016,-2.9144,-2.8601,-2.8301,-2.8301,-2.8301,-2.8301,-2.8301,-2.8301,-2.8301,-2.8301,-2.8301,-2.8301,-2.8301,-2.8301,-2.8301,-2.8301,-2.8301,-2.8301,-2.8301,-2.8301,-2.8301,-2.8301,-2.8301,-2.8301,-2.8301,-2.8301,-2.8301,-2.8301,-2.8301,-2.8301,-2.8301,-2.8301,-2.8301,-2.8301,-2.8457,-2.8613,-2.8789,-2.9062,-2.9238,-2.9336,-2.9023,-2.8926,-2.8848,-2.8437,-2.8301,-2.8301,-2.8301,-2.8476,-2.873,-2.8887,-2.9004,-2.881,-2.734,-2.5823,-2.3985,-2.1331,-2.0346,-2.0054,-1.9947,-1.9626,-1.943,-1.943,-1.943,-1.943,-1.943,-1.9519,-1.9639,-1.9639,-1.9639,-1.9639,-1.9639,-1.9479,-1.943,-1.943,-1.9533,-1.9639,-1.9639,-1.9813,-1.992,-1.992,-1.992,-1.9973,-2.0067,-2.008,-2.0134,-2.0227,-2.0167,-2.0134,-1.992,-1.992,-1.9973,-2.008,-2.0267,-2.0414,-2.0738,0.0,0.0,0.0,0.0,-2.998,-3.2039,-3.2766,-3.2889,-3.2418,-3.2509,-3.2282,-3.1012,-3.1906,-3.1951,-2.9387,-2.9355,-2.9303,-2.8441,-2.8301,-2.8301,-2.8301,-2.8301,-2.8301,-2.8301,-2.8301,-2.8301,-2.8301,-2.8301,-2.8301,-2.8301,-2.8301,-2.8301,-2.8301,-2.8301,-2.8301,-2.8301,-2.8301,-2.8301,-2.8301,-2.8301,-2.8301,-2.8301,-2.8301,-2.8301,-2.8301,-2.8301,-2.8301,-2.8301,-2.8301,-2.8301,-2.8301,-2.8301,-2.8379,-2.8555,-2.8984,-2.9219,-2.9355,-2.9355,-2.9355,-2.9258,-2.8691,-2.8613,-2.8691,-2.8555,-2.8789,-2.916,-2.9316,-2.9453,-2.9254,-2.776,-2.5768,-2.3535,-2.0942,-2.0307,-2.0167,-2.0167,-1.9933,-1.9653,-1.9653,-1.9653,-1.9653,-1.9653,-1.9813,-1.9947,-1.9947,-1.9947,-1.9907,-1.9813,-1.9626,-1.9506,-1.9506,-1.9679,-1.984,-1.9933,-2.012,-2.0167,-2.0167,-2.0167,-2.0281,-2.0374,-2.0374,-2.0428,-2.0521,-2.0521,-2.0521,-2.0521,-2.0334,-2.0281,-2.0388,-2.0588,-2.0722,0.0,0.0,0.0,0.0,0.0,0.0,-3.1804,0.0,-2.9601,-2.9893,-3.0449,-3.0236,-2.8058,-2.8737,-2.9782,-3.0171,-2.9144,-2.8301,-2.8301,-2.8301,-2.8301,-2.8301,-2.8301,-2.8301,-2.8301,-2.8301,-2.8301,-2.8301,-2.8301,-2.8301,-2.8301,-2.8301,-2.8301,-2.8301,-2.8301,-2.8301,-2.8301,-2.8301,-2.8301,-2.8301,-2.8301,-2.8301,-2.8301,-2.8301,-2.8301,-2.8301,-2.8301,-2.8301,-2.8301,-2.8301,-2.8301,-2.8301,-2.8301,-2.8555,-2.8965,-2.9414,-2.9844,-3.0195,-3.0195,-3.0195,-3.0059,-2.9219,-2.9219,-2.9492,-2.9062,-2.9238,-2.9668,-3.0078,-2.9922,-2.935,-2.8223,-2.5343,-2.2407,-2.1047,-2.0468,-2.0254,-2.0254,-2.0254,-2.0193,-2.018,-2.0167,-2.0167,-2.0167,-2.0241,-2.018,-2.018,-2.018,-2.0147,-1.9867,-1.9813,-1.9813,-1.9813,-1.9826,-1.9947,-2.0167,-2.0193,-2.0254,-2.0254,-2.0254,-2.0388,-2.0681,-2.0695,-2.0815,-2.1096,-2.1109,-2.1109,-2.1109,-2.0535,-2.0401,-2.0695,-2.0695,-2.0842,-1.9058,0.0,0.0,0.0,0.0,0.0,0.0,0.0,-2.8101,-2.8722,-2.8655,-2.8253,-2.737,-2.7495,-2.787,-2.8381,-2.8351,-2.8301,-2.8301,-2.8301,-2.8301,-2.8301,-2.8301,-2.8301,-2.8301,-2.8301,-2.8301,-2.8301,-2.8301,-2.8301,-2.8301,-2.8301,-2.8301,-2.8301,-2.8301,-2.8301,-2.8301,-2.8301,-2.8301,-2.8301,-2.8301,-2.8301,-2.8301,-2.8301,-2.8301,-2.8301,-2.8301,-2.8301,-2.8301,-2.8301,-2.8301,-2.832,-2.8633,-2.8809,-2.9004,-2.9746,-3.0098,-3.0195,-3.0195,-3.0195,-3.0098,-2.957,-2.9473,-2.9607,-2.9434,-2.9687,-3.0059,-3.0156,-3.0351,-2.9949,-2.726,-2.4984,-2.2965,-2.1401,-2.0922,-2.0869,-2.0869,-2.0869,-2.0735,-2.026,-2.0167,-2.0167,-2.0167,-2.0414,-2.0548,-2.0548,-2.0548,-2.0521,-2.0441,-2.0241,-2.0107,-2.0107,-2.0307,-2.0468,-2.0548,-2.0748,-2.0869,-2.0869,-2.0869,-2.0909,-2.0989,-2.0989,-2.1029,-2.1109,-2.1109,-2.1109,-2.1109,-2.0949,-2.0909,-2.0989,-2.0989,-2.1029,-1.9861,-2.0589,0.0,0.0,0.0,0.0,-2.6511,-2.6311,-2.5911,0.0,-2.6834,-2.6314,-2.6409,-2.6484,-2.668,-2.7285,-2.7598,-2.7891,-2.8242,-2.8301,-2.8301,-2.8301,-2.8301,-2.8301,-2.8301,-2.8301,-2.8301,-2.8301,-2.8301,-2.8301,-2.8301,-2.8301,-2.8301,-2.8301,-2.8301,-2.8301,-2.8301,-2.8301,-2.8301,-2.8301,-2.8301,-2.8301,-2.8301,-2.8301,-2.8301,-2.8301,-2.8301,-2.8301,-2.8301,-2.8301,-2.8301,-2.834,-2.875,-2.8926,-2.9023,-2.9883,-3.0078,-2.998,-3.0351,-3.0351,-3.0156,-2.9922,-2.9961,-3.0078,-2.9883,-3.0137,-3.0488,-3.0488,-3.0684,-3.0274,-2.7692,-2.5802,-2.4178,-2.2529,-2.1601,-2.1109,-2.1109,-2.1109,-2.1002,-2.0668,-2.0601,-2.0601,-2.0601,-2.0748,-2.0855,-2.0855,-2.0855,-2.0815,-2.0695,-2.0521,-2.0414,-2.0414,-2.0575,-2.0722,-2.0842,-2.1015,-2.1109,-2.1109,-2.1109,-2.1109,-2.1109,-2.1109,-2.1109,-2.1109,-2.1109,-2.1109,-2.1109,-2.1109,-2.1109,-2.1109,-2.1109,-2.1109,-2.1144,-2.1421,0.0,0.0,-2.3024,0.0,-2.6375,-2.4899,-2.3346,0.0,-2.4828,-2.431,-2.5195,-2.5382,-2.5674,-2.6523,-2.6777,-2.7168,-2.8027,-2.8144,-2.8164,-2.8223,-2.8223,-2.8242,-2.8281,-2.8301,-2.8301,-2.8301,-2.8301,-2.8301,-2.8301,-2.8301,-2.8301,-2.8301,-2.8301,-2.8301,-2.8301,-2.8301,-2.8301,-2.8301,-2.8301,-2.8301,-2.8301,-2.8301,-2.8301,-2.8301,-2.8301,-2.8301,-2.8301,-2.8301,-2.8301,-2.834,-2.8809,-2.8984,-2.9101,-2.9961,-3.0039,-2.988,-3.0625,-3.0625,-3.0273,-3.0273,-3.0547,-3.082,-3.0391,-3.0566,-3.0898,-3.0898,-3.0898,-3.0509,-2.8842,-2.7314,-2.5802,-2.4054,-2.2466,-2.1362,-2.1172,-2.1109,-2.1109,-2.1109,-2.1109,-2.1109,-2.1109,-2.1109,-2.1109,-2.1109,-2.1109,-2.1015,-2.0762,-2.0722,-2.0722,-2.0722,-2.0722,-2.0828,-2.1082,-2.1109,-2.1109,-2.1109,-2.1109,-2.1109,-2.1109,-2.1109,-2.1109,-2.1109,-2.1109,-2.1109,-2.1109,-2.1109,-2.1109,-2.1109,-2.1109,-2.1109,-2.2895,-2.3371,-2.3773,-2.2158,0.0,0.0,-2.172,-2.1442,-2.1559,0.0,-2.206,-2.2067,-2.2981,-2.3437,-2.3828,-2.4336,-2.5293,-2.6289,-2.7148,-2.7266,-2.7402,-2.7754,-2.7845,-2.793,-2.8262,-2.8301,-2.8301,-2.8301,-2.8301,-2.8301,-2.8301,-2.8301,-2.8301,-2.8301,-2.8301,-2.8301,-2.8301,-2.8301,-2.8301,-2.8301,-2.8301,-2.8301,-2.8301,-2.8301,-2.8301,-2.8301,-2.8301,-2.8301,-2.8301,-2.8301,-2.8301,-2.8359,-2.9141,-2.9453,-2.9551,-3.043,-3.0703,-3.0664,-3.084,-3.084,-3.0762,-3.0762,-3.082,-3.0879,-3.0781,-3.082,-3.0898,-3.0898,-3.0898,-3.0509,-2.8842,-2.817,-2.7211,-2.4301,-2.3325,-2.2716,-2.1411,-2.1109,-2.1109,-2.1109,-2.1109,-2.1109,-2.1109,-2.1109,-2.1109,-2.1109,-2.1109,-2.1082,-2.1029,-2.1029,-2.1029,-2.1029,-2.1029,-2.1042,-2.1109,-2.1109,-2.1109,-2.1109,-2.1109,-2.1109,-2.1109,-2.1109,-2.1109,-2.1109,-2.1109,-2.1109,-2.1109,-2.1109,-2.1109,-2.1109,-2.1109,-2.1109,-2.4324,-2.4349,-2.4457,-2.2878,0.0,0.0,0.0,-2.0642,-2.0567,-2.1186,-2.0916,-2.0887,-2.1997,-2.2012,-2.2268,-2.3345,-2.4199,-2.4922,-2.5352,-2.6328,-2.709,-2.7324,-2.7344,-2.7422,-2.7637,-2.7851,-2.8066,-2.8281,-2.8301,-2.8301,-2.8301,-2.8301,-2.8301,-2.8301,-2.8301,-2.8301,-2.8301,-2.8301,-2.8301,-2.8301,-2.8301,-2.8301,-2.8301,-2.8301,-2.8301,-2.8301,-2.8301,-2.8301,-2.8301,-2.8301,-2.8301,-2.8359,-2.9004,-2.9238,-2.9355,-3.0234,-3.041,-3.0293,-3.0742,-3.0742,-3.0586,-3.082,-3.0898,-3.0898,-3.0898,-3.0898,-3.0898,-3.0898,-3.0898,-3.0704,-2.9844,-2.9039,-2.7811,-2.5391,-2.4178,-2.3139,-2.1475,-2.1109,-2.1109,-2.1109,-2.1109,-2.1109,-2.1109,-2.1109,-2.1109,-2.1109,-2.1109,-2.1109,-2.1109,-2.1109,-2.1109,-2.1109,-2.1109,-2.1109,-2.1109,-2.1109,-2.1109,-2.1109,-2.1109,-2.1109,-2.1109,-2.1109,-2.1109,-2.1109,-2.1109,-2.1109,-2.1109,-2.1109,-2.1109,-2.1109,-2.1109,-2.1109,0.0,0.0,0.0,0.0,0.0,-2.2441,0.0,0.0,0.0,-2.0369,-1.998,0.0,0.0,0.0,0.0,-2.2229,0.0,0.0,-2.3301,-2.4941,-2.623,-2.6484,-2.666,-2.6797,-2.6894,-2.707,-2.7454,-2.8008,-2.7891,-2.791,-2.8164,-2.8242,-2.8301,-2.8301,-2.8301,-2.8301,-2.8301,-2.8301,-2.8301,-2.8301,-2.8301,-2.8301,-2.8301,-2.8301,-2.8301,-2.8301,-2.8301,-2.8301,-2.8301,-2.8301,-2.8301,-2.834,-2.875,-2.8965,-2.9141,-2.9902,-3.0039,-2.9922,-3.0644,-3.0644,-3.0391,-3.0762,-3.0898,-3.0898,-3.0898,-3.0898,-3.0898,-3.0898,-3.0898,-3.0898,-3.0898,-2.9903,-2.8486,-2.6832,-2.5253,-2.3621,-2.1915,-2.1362,-2.1109,-2.1109,-2.1109,-2.1109,-2.1109,-2.1109,-2.1109,-2.1109,-2.1109,-2.1109,-2.1109,-2.1109,-2.1109,-2.1109,-2.1109,-2.1109,-2.1109,-2.1109,-2.1109,-2.1109,-2.1109,-2.1109,-2.1109,-2.1109,-2.1109,-2.1109,-2.1109,-2.1109,-2.1109,-2.1109,-2.1109,-2.1109,-2.1109,-2.1109,0.0,0.0,0.0,0.0,-2.5298,0.0,0.0,0.0,-1.9088,-1.8042,0.0,0.0,0.0,0.0,0.0,0.0,0.0,0.0,-2.1541,-2.2383,-2.3437,-2.457,-2.5362,-2.5986,-2.6426,-2.5849,-2.5859,-2.707,-2.6415,-2.6523,-2.7676,-2.8086,-2.8301,-2.8301,-2.8301,-2.8301,-2.8301,-2.8301,-2.8301,-2.8301,-2.8301,-2.8301,-2.8301,-2.8301,-2.8301,-2.8301,-2.8301,-2.8301,-2.8301,-2.8301,-2.8301,-2.834,-2.875,-2.916,-2.9551,-3.0019,-3.043,-3.0762,-3.0859,-3.0859,-3.082,-3.0879,-3.0898,-3.0898,-3.0898,-3.0898,-3.0898,-3.0898,-3.0898,-3.0898,-3.0898,-3.0762,-3.0216,-2.8545,-2.6893,-2.5253,-2.3683,-2.2153,-2.1109,-2.1109,-2.1109,-2.1109,-2.1109,-2.1109,-2.1109,-2.1109,-2.1109,-2.1109,-2.1109,-2.1109,-2.1109,-2.1109,-2.1109,-2.1109,-2.1109,-2.1109,-2.1109,-2.1109,-2.1109,-2.1109,-2.1109,-2.1109,-2.1109,-2.1109,-2.1109,-2.1109,-2.1109,-2.1109,-2.1109,-2.1109,-2.1109,-2.1109,0.0,0.0,0.0,0.0,0.0,0.0,-1.9903,0.0,-1.9061,0.0,0.0,0.0,0.0,0.0,0.0,0.0,-2.0098,0.0,0.0,0.0,-2.2204,-2.3471,-2.3744,-2.4336,-2.5508,-2.5059,-2.5332,-2.6894,-2.5977,-2.6035,-2.763,-2.7885,-2.8047,-2.8281,-2.8301,-2.8301,-2.8301,-2.8301,-2.8301,-2.8301,-2.8301,-2.8301,-2.8301,-2.8301,-2.8301,-2.8301,-2.8301,-2.8301,-2.8301,-2.8301,-2.8301,-2.832,-2.8496,-2.8672,-2.8906,-2.959,-2.9961,-3.0195,-3.0703,-3.0898,-3.0898,-3.0898,-3.0898,-3.0898,-3.0898,-3.0898,-3.0898,-3.0898,-3.0898,-3.0898,-3.0898,-3.0898,-3.047,-2.8783,-2.7871,-2.6712,-2.4178,-2.3076,-2.2278,-2.1299,-2.1109,-2.1109,-2.1109,-2.1109,-2.1109,-2.1109,-2.1109,-2.1109,-2.1109,-2.1109,-2.1109,-2.1109,-2.1109,-2.1109,-2.1109,-2.1109,-2.1109,-2.1109,-2.1109,-2.1109,-2.1109,-2.1109,-2.1109,-2.1109,-2.1109,-2.1109,-2.1109,-2.1109,-2.1109,-2.1109,-2.1109,-2.1109,-2.8957,0.0,0.0,0.0,0.0,0.0,0.0,0.0,0.0,0.0,0.0,0.0,0.0,0.0,0.0,-1.918,0.0,-1.9824,0.0,-2.0079,0.0,0.0,0.0,-2.3047,-2.446,-2.3945,-2.4316,-2.6172,-2.5215,-2.5352,-2.7226,-2.7591,-2.7812,-2.8105,-2.8223,-2.8301,-2.8301,-2.8301,-2.8301,-2.8301,-2.8301,-2.8301,-2.8301,-2.8301,-2.8301,-2.8301,-2.8301,-2.8301,-2.8301,-2.8301,-2.8301,-2.8301,-2.8301,-2.8301,-2.8398,-2.9258,-2.9726,-3.0019,-3.0664,-3.0898,-3.0898,-3.0898,-3.0898,-3.0898,-3.0898,-3.0898,-3.0898,-3.0898,-3.0898,-3.0898,-3.0898,-3.0898,-3.0587,-2.9335,-2.8724,-2.7632,-2.484,-2.3931,-2.3076,-2.1425,-2.1109,-2.1109,-2.1109,-2.1109,-2.1109,-2.1109,-2.1109,-2.1109,-2.1109,-2.1109,-2.1109,-2.1109,-2.1109,-2.1109,-2.1109,-2.1109,-2.1109,-2.1109,-2.1109,-2.1109,-2.1109,-2.1109,-2.1109,-2.1109,-2.1109,-2.1109,-2.1109,-2.1109,-2.1109,-2.1109,-2.1109,-2.1109,-2.9942,-2.9665,-2.9171,-2.5833,-2.4355,0.0,0.0,0.0,-1.9783,0.0,0.0,0.0,0.0,0.0,-2.0233,-1.9414,-1.9648,0.0,0.0,0.0,0.0,0.0,0.0,0.0,-2.3227,-2.209,-2.2185,-2.4336,-2.3647,-2.4095,-2.6309,-2.7258,-2.7728,-2.7728,-2.8086,-2.8301,-2.8301,-2.8301,-2.8301,-2.8301,-2.8301,-2.8301,-2.8301,-2.8301,-2.8301,-2.8301,-2.8301,-2.8301,-2.8301,-2.8301,-2.8301,-2.8301,-2.8301,-2.8301,-2.8398,-2.9258,-3.0117,-3.0859,-3.0879,-3.0898,-3.0898,-3.0898,-3.0898,-3.0898,-3.0898,-3.0898,-3.0898,-3.0898,-3.0898,-3.0898,-3.0898,-3.0898,-3.0898,-3.082,-2.9589,-2.7931,-2.6288,-2.4717,-2.3076,-2.1425,-2.1109,-2.1109,-2.1109,-2.1109,-2.1109,-2.1109,-2.1109,-2.1109,-2.1109,-2.1109,-2.1109,-2.1109,-2.1109,-2.1109,-2.1109,-2.1109,-2.1109,-2.1109,-2.1109,-2.1109,-2.1109,-2.1109,-2.1109,-2.1109,-2.1109,-2.1109,-2.1109,-2.1109,-2.1109,-2.1109,-2.1109,-2.1109,-2.9466,-2.9501,-2.9394,-2.6538,-2.5232,-2.3743,-2.0457,0.0,0.0,0.0,0.0,0.0,0.0,0.0,-2.041,-1.9805,-1.9824,-1.9512,0.0,0.0,0.0,0.0,0.0,0.0,0.0,-2.1328,-2.197,-2.3867,-2.3203,-2.3789,-2.625,-2.6934,-2.7363,-2.7708,-2.8066,-2.8301,-2.8301,-2.8301,-2.8301,-2.8301,-2.8301,-2.8301,-2.8301,-2.8301,-2.8301,-2.8301,-2.8301,-2.8301,-2.8301,-2.8301,-2.8301,-2.8301,-2.8301,-2.8457,-2.8769,-2.9355,-2.9822,-3.0098,-3.0684,-3.0898,-3.0898,-3.0898,-3.0898,-3.0898,-3.0898,-3.0898,-3.0898,-3.0898,-3.0898,-3.0898,-3.0898,-3.0898,-3.0898,-3.0898,-2.9648,-2.7991,-2.6349,-2.4717,-2.3076,-2.1425,-2.1109,-2.1109,-2.1109,-2.1109,-2.1109,-2.1109,-2.1109,-2.1109,-2.1109,-2.1109,-2.1109,-2.1109,-2.1109,-2.1109,-2.1109,-2.1109,-2.1109,-2.1109,-2.1109,-2.1109,-2.1109,-2.1109,-2.1109,-2.1109,-2.1109,-2.1109,-2.1109,-2.1109,-2.1109,-2.1109,-2.1109,-2.1109,-2.8936,-2.8941,-2.8962,-2.6853,-2.5936,-2.4726,-2.1547,-2.183,-2.2393,0.0,0.0,0.0,0.0,0.0,-2.1172,-2.0879,-2.0312,-1.9473,0.0,-1.811,0.0,0.0,0.0,0.0,0.0,0.0,-2.1171,-2.3398,-2.2773,-2.3359,-2.5781,-2.6621,-2.7148,-2.7422,-2.7988,-2.8301,-2.8301,-2.8301,-2.8301,-2.8301,-2.8301,-2.8301,-2.8301,-2.8301,-2.8301,-2.8301,-2.8301,-2.8301,-2.8301,-2.8301,-2.8301,-2.8301,-2.8301,-2.8555,-2.8965,-2.9414,-2.9822,-3.0117,-3.0703,-3.0898,-3.0898,-3.0898,-3.0898,-3.0898,-3.0898,-3.0898,-3.0898,-3.0898,-3.0898,-3.0898,-3.0898,-3.0898,-3.0898,-3.0898,-3.0079,-2.8664,-2.647,-2.5208,-2.3807,-2.1538,-2.1109,-2.1109,-2.1109,-2.1109,-2.1109,-2.1109,-2.1109,-2.1109,-2.1109,-2.1109,-2.1109,-2.1109,-2.1109,-2.1109,-2.1109,-2.1109,-2.1109,-2.1109,-2.1109,-2.1109,-2.1109,-2.1109,-2.1109,-2.1109,-2.1109,-2.1109,-2.1109,-2.1109,-2.1109,-2.1109,-2.1109,-2.1109]},{"header":{"parameterUnit":"m.s-1","parameterCategory":1,"la1":30.6,"la2":29.2853,"lo1":-89.7004,"lo2":-87.6739,"dy":0.0162,"dx":0.0183,"nx":112,"ny":82,"refTime":"2026-05-17T12:00:00:Z","depth":0,"parameterNumber":3,"parameterNumberName":"V-component_of_WINDS"},"data":[0.0,0.0,0.0,0.0,0.0,0.0,0.0,0.0,0.0,0.0,0.0,0.0,0.0,0.0,0.0,0.0,0.0,0.0,0.0,0.0,0.0,0.0,0.0,0.0,0.0,0.0,0.0,0.0,0.0,0.0,0.0,0.0,0.0,0.0,0.0,0.0,0.0,0.0,0.0,0.0,0.0,0.0,0.0,0.0,0.0,0.0,0.0,0.0,0.0,0.0,0.0,0.0,0.0,0.0,0.0,0.0,0.0,0.0,0.0,0.0,0.0,0.0,0.0,0.0,0.0,0.0,0.0,0.0,0.0,0.0,0.0,0.0,0.0,0.0,0.0,0.0,0.0,0.0,0.0,0.0,0.0,0.0,0.0,0.0,0.0,0.0,0.0,0.0,0.0,0.0,0.0,2.9464,3.2118,3.3513,3.2839,3.2656,3.1262,2.8191,0.0,0.0,0.0,0.0,0.0,0.0,0.0,0.0,0.0,0.0,0.0,0.0,0.0,0.0,0.0,0.0,0.0,0.0,0.0,0.0,0.0,0.0,0.0,0.0,0.0,0.0,0.0,0.0,0.0,0.0,0.0,0.0,0.0,0.0,0.0,0.0,0.0,0.0,0.0,0.0,0.0,0.0,0.0,0.0,0.0,0.0,0.0,0.0,0.0,0.0,0.0,0.0,0.0,0.0,0.0,0.0,0.0,0.0,0.0,0.0,0.0,0.0,0.0,0.0,0.0,0.0,0.0,0.0,0.0,0.0,0.0,0.0,0.0,0.0,0.0,0.0,0.0,0.0,0.0,0.0,0.0,0.0,0.0,0.0,0.0,0.0,0.0,0.0,0.0,0.0,0.0,0.0,0.0,0.0,0.0,0.0,0.0,0.0,0.0,0.0,0.0,0.0,0.0,0.0,2.7493,3.1629,3.3109,3.3733,3.3623,3.2986,3.1518,2.8987,0.0,0.0,0.0,0.0,0.0,0.0,0.0,0.0,0.0,0.0,0.0,0.0,0.0,0.0,0.0,0.0,0.0,0.0,0.0,0.0,0.0,0.0,0.0,0.0,0.0,0.0,0.0,0.0,0.0,0.0,0.0,0.0,0.0,0.0,0.0,0.0,0.0,0.0,0.0,0.0,0.0,0.0,0.0,0.0,0.0,0.0,0.0,0.0,0.0,0.0,0.0,0.0,0.0,0.0,0.0,0.0,0.0,0.0,0.0,0.0,0.0,0.0,0.0,0.0,0.0,0.0,0.0,0.0,0.0,0.0,0.0,0.0,0.0,0.0,0.0,0.0,0.0,0.0,0.0,0.0,0.0,0.0,0.0,0.0,0.0,0.0,0.0,0.0,0.0,0.0,0.0,0.0,0.0,0.0,0.0,0.0,0.0,0.0,0.0,0.0,0.0,0.0,0.0,2.753,2.9329,3.2889,3.3587,3.3807,3.3807,3.3073,3.1555,2.917,2.6722,0.0,0.0,0.0,0.0,0.0,0.0,0.0,0.0,0.0,0.0,0.0,0.0,0.0,0.0,0.0,0.0,0.0,0.0,0.0,0.0,0.0,0.0,0.0,0.0,0.0,0.0,0.0,0.0,0.0,0.0,0.0,0.0,0.0,0.0,0.0,0.0,0.0,0.0,0.0,0.0,0.0,0.0,0.0,0.0,0.0,0.0,0.0,0.0,0.0,0.0,0.0,0.0,0.0,0.0,0.0,0.0,0.0,0.0,0.0,0.0,0.0,0.0,0.0,0.0,0.0,0.0,0.0,0.0,0.0,0.0,0.0,0.0,0.0,0.0,0.0,0.0,0.0,0.0,0.0,0.0,0.0,0.0,0.0,0.0,0.0,0.0,0.0,0.0,0.0,0.0,0.0,0.0,0.0,0.0,0.0,0.0,0.0,0.0,0.0,0.0,0.0,0.0,3.032,3.1568,3.3587,3.3807,3.3807,3.3807,3.2889,3.1372,2.9133,2.6576,0.0,0.0,0.0,0.0,0.0,0.0,0.0,0.0,0.0,0.0,0.0,0.0,0.0,0.0,0.0,0.0,0.0,0.0,0.0,0.0,0.0,0.0,0.0,0.0,0.0,0.0,0.0,0.0,0.0,0.0,0.0,0.0,0.0,0.0,0.0,0.0,0.0,0.0,0.0,0.0,0.0,0.0,0.0,0.0,0.0,0.0,0.0,0.0,0.0,0.0,0.0,0.0,0.0,0.0,0.0,0.0,0.0,0.0,0.0,0.0,0.0,0.0,0.0,0.0,0.0,0.0,0.0,0.0,0.0,0.0,0.0,0.0,0.0,0.0,0.0,0.0,0.0,0.0,0.0,0.0,0.0,0.0,0.0,0.0,0.0,0.0,0.0,0.0,0.0,0.0,0.0,0.0,0.0,0.0,0.0,0.0,0.0,0.0,0.0,0.0,0.0,0.0,3.0577,3.2766,3.3697,3.3807,3.3807,3.3807,3.2375,3.076,2.9097,2.6025,0.0,0.0,0.0,0.0,0.0,0.0,0.0,0.0,0.0,0.0,0.0,0.0,0.0,0.0,0.0,0.0,0.0,0.0,0.0,0.0,0.0,0.0,0.0,0.0,0.0,0.0,0.0,0.0,0.0,0.0,0.0,0.0,0.0,0.0,0.0,0.0,0.0,0.0,0.0,0.0,0.0,0.0,0.0,0.0,0.0,0.0,0.0,0.0,0.0,0.0,0.0,0.0,0.0,0.0,0.0,0.0,0.0,0.0,0.0,0.0,0.0,0.0,0.0,0.0,0.0,0.0,0.0,0.0,0.0,0.0,0.0,0.0,0.0,0.0,0.0,0.0,0.0,0.0,0.0,0.0,0.0,0.0,0.0,0.0,0.0,0.0,0.0,0.0,0.0,0.0,0.0,0.0,0.0,0.0,0.0,0.0,0.0,0.0,0.0,0.0,0.0,0.0,3.0467,3.2559,0.0,3.41,3.3807,3.3807,3.322,3.1788,2.917,0.0,0.0,0.0,0.0,0.0,0.0,0.0,0.0,0.0,0.0,0.0,0.0,0.0,0.0,0.0,0.0,0.0,0.0,0.0,0.0,0.0,0.0,0.0,0.0,0.0,0.0,0.0,0.0,0.0,0.0,0.0,0.0,0.0,0.0,0.0,0.0,0.0,0.0,0.0,0.0,0.0,0.0,0.0,0.0,0.0,0.0,0.0,0.0,0.0,0.0,0.0,0.0,0.0,0.0,0.0,0.0,0.0,0.0,0.0,0.0,0.0,0.0,0.0,0.0,0.0,0.0,0.0,0.0,0.0,0.0,0.0,0.0,0.0,0.0,0.0,0.0,0.0,0.0,0.0,0.0,0.0,0.0,0.0,0.0,0.0,0.0,0.0,0.0,0.0,0.0,0.0,0.0,0.0,0.0,0.0,0.0,0.0,0.0,0.0,0.0,0.0,0.0,2.8987,3.1237,3.3183,0.0,3.4491,3.41,3.3807,3.3109,3.1494,2.8803,0.0,0.0,0.0,0.0,0.0,0.0,0.0,0.0,0.0,0.0,0.0,0.0,0.0,0.0,0.0,0.0,0.0,0.0,0.0,0.0,0.0,0.0,0.0,0.0,0.0,0.0,0.0,0.0,0.0,0.0,0.0,0.0,0.0,0.0,0.0,0.0,0.0,0.0,0.0,0.0,0.0,0.0,0.0,0.0,0.0,0.0,0.0,0.0,0.0,0.0,0.0,0.0,0.0,0.0,0.0,0.0,0.0,0.0,0.0,0.0,0.0,0.0,0.0,0.0,0.0,0.0,0.0,0.0,0.0,0.0,0.0,0.0,0.0,0.0,0.0,0.0,0.0,0.0,0.0,0.0,0.0,0.0,0.0,0.0,0.0,0.0,0.0,0.0,0.0,0.0,0.0,0.0,0.0,0.0,0.0,0.0,0.0,0.0,0.0,0.0,0.0,0.0,2.9916,3.3023,3.5004,3.5041,3.5004,3.4674,3.388,3.1604,2.9549,0.0,0.0,0.0,0.0,0.0,0.0,0.0,0.0,0.0,0.0,0.0,0.0,0.0,0.0,0.0,0.0,0.0,0.0,0.0,0.0,0.0,0.0,0.0,0.0,0.0,0.0,0.0,0.0,0.0,0.0,0.0,0.0,0.0,0.0,0.0,0.0,0.0,0.0,0.0,0.0,0.0,0.0,0.0,0.0,0.0,0.0,0.0,0.0,0.0,0.0,0.0,0.0,0.0,0.0,0.0,0.0,0.0,0.0,0.0,0.0,0.0,0.0,0.0,0.0,0.0,0.0,0.0,0.0,0.0,0.0,0.0,0.0,0.0,0.0,0.0,0.0,0.0,0.0,0.0,0.0,0.0,0.0,0.0,0.0,0.0,0.0,0.0,0.0,0.0,0.0,0.0,0.0,0.0,0.0,0.0,0.0,0.0,0.0,0.0,0.0,0.0,0.0,0.0,3.065,3.3353,3.5445,3.6633,3.5701,3.4894,3.4674,3.2949,3.0772,2.8128,0.0,0.0,0.0,0.0,0.0,0.0,0.0,0.0,0.0,0.0,0.0,0.0,0.0,0.0,0.0,0.0,0.0,0.0,0.0,0.0,0.0,0.0,0.0,0.0,0.0,0.0,0.0,0.0,0.0,0.0,0.0,0.0,0.0,0.0,0.0,0.0,0.0,0.0,0.0,0.0,0.0,0.0,0.0,0.0,0.0,0.0,0.0,0.0,0.0,0.0,0.0,0.0,0.0,0.0,0.0,0.0,0.0,0.0,0.0,0.0,0.0,0.0,0.0,0.0,0.0,0.0,0.0,0.0,0.0,0.0,0.0,0.0,0.0,0.0,0.0,0.0,0.0,0.0,0.0,0.0,0.0,0.0,0.0,0.0,0.0,0.0,0.0,0.0,0.0,0.0,0.0,0.0,0.0,0.0,0.0,0.0,0.0,0.0,0.0,0.0,0.0,0.0,3.1029,3.41,3.6376,3.7382,3.6597,3.5738,3.5078,3.383,3.1655,2.8231,0.0,0.0,0.0,0.0,0.0,0.0,0.0,0.0,0.0,0.0,0.0,0.0,0.0,0.0,0.0,0.0,0.0,0.0,0.0,0.0,0.0,0.0,0.0,0.0,0.0,0.0,0.0,0.0,0.0,0.0,0.0,0.0,0.0,0.0,0.0,0.0,0.0,0.0,0.0,0.0,0.0,0.0,0.0,0.0,0.0,0.0,0.0,0.0,0.0,0.0,0.0,0.0,0.0,0.0,0.0,0.0,0.0,0.0,0.0,0.0,0.0,0.0,0.0,0.0,0.0,0.0,0.0,0.0,0.0,0.0,0.0,0.0,0.0,0.0,0.0,0.0,0.0,0.0,0.0,0.0,0.0,0.0,0.0,0.0,0.0,0.0,0.0,0.0,0.0,0.0,0.0,0.0,0.0,0.0,0.0,0.0,0.0,0.0,0.0,0.0,0.0,0.0,3.1213,3.5032,3.7529,3.7603,3.7529,3.6905,3.5371,3.4357,3.2232,2.8542,0.0,0.0,0.0,0.0,0.0,0.0,0.0,0.0,0.0,0.0,0.0,0.0,0.0,0.0,0.0,0.0,0.0,0.0,0.0,0.0,0.0,0.0,0.0,0.0,0.0,0.0,0.0,0.0,0.0,0.0,0.0,0.0,0.0,0.0,0.0,0.0,0.0,0.0,0.0,0.0,0.0,0.0,0.0,0.0,0.0,0.0,0.0,0.0,0.0,0.0,0.0,0.0,0.0,0.0,0.0,0.0,0.0,0.0,0.0,0.0,2.9881,2.8014,0.0,0.0,0.0,0.0,0.0,0.0,0.0,0.0,0.0,0.0,0.0,0.0,0.0,0.0,0.0,0.0,0.0,0.0,0.0,0.0,0.0,0.0,0.0,0.0,0.0,0.0,0.0,0.0,0.0,0.0,0.0,0.0,0.0,0.0,0.0,0.0,0.0,0.0,0.0,0.0,3.1959,3.5349,3.7749,3.8395,3.7896,3.7345,3.7015,3.5018,3.2685,3.0075,2.7961,0.0,0.0,0.0,0.0,0.0,0.0,0.0,0.0,0.0,0.0,0.0,0.0,0.0,0.0,0.0,0.0,0.0,0.0,0.0,0.0,0.0,0.0,0.0,0.0,0.0,0.0,0.0,0.0,0.0,0.0,0.0,0.0,0.0,0.0,0.0,0.0,0.0,0.0,0.0,0.0,0.0,0.0,0.0,0.0,0.0,0.0,0.0,0.0,0.0,0.0,0.0,0.0,0.0,0.0,0.0,0.0,0.0,0.0,0.0,3.3278,3.1888,0.0,0.0,0.0,0.0,0.0,0.0,0.0,0.0,0.0,0.0,0.0,0.0,0.0,0.0,0.0,0.0,0.0,0.0,0.0,0.0,0.0,0.0,0.0,0.0,0.0,0.0,0.0,0.0,0.0,0.0,0.0,0.0,0.0,0.0,0.0,0.0,0.0,0.0,0.0,0.0,3.2289,3.5826,3.8248,3.8652,3.8322,3.7918,3.7529,3.6317,3.4428,3.177,2.9793,0.0,0.0,0.0,0.0,0.0,0.0,0.0,0.0,0.0,0.0,0.0,0.0,0.0,0.0,0.0,0.0,0.0,0.0,0.0,0.0,0.0,0.0,0.0,0.0,0.0,0.0,0.0,0.0,0.0,0.0,0.0,0.0,0.0,0.0,0.0,0.0,0.0,0.0,0.0,0.0,0.0,0.0,0.0,0.0,0.0,0.0,0.0,0.0,0.0,0.0,0.0,0.0,0.0,3.9208,3.9648,3.9986,4.0087,4.0155,4.0011,3.7228,3.6629,3.7406,3.497,0.0,0.0,0.0,0.0,0.0,0.0,0.0,0.0,0.0,0.0,0.0,0.0,0.0,0.0,0.0,0.0,0.0,0.0,0.0,0.0,0.0,0.0,3.5202,3.5738,3.6413,3.6009,3.2632,0.0,0.0,0.0,0.0,0.0,0.0,0.0,0.0,0.0,0.0,0.0,3.2986,3.645,3.8762,3.8909,3.8799,3.8432,3.7786,3.7566,3.6292,3.3438,3.1721,2.9688,0.0,0.0,0.0,0.0,0.0,0.0,0.0,0.0,0.0,0.0,0.0,0.0,0.0,0.0,0.0,0.0,0.0,0.0,0.0,0.0,0.0,0.0,0.0,0.0,0.0,0.0,0.0,0.0,0.0,0.0,0.0,0.0,2.7689,2.9311,0.0,0.0,0.0,0.0,0.0,0.0,0.0,0.0,0.0,0.0,0.0,0.0,0.0,3.7652,3.8396,4.1035,4.2151,4.1745,4.4384,4.4993,4.3904,4.4519,4.4823,4.479,4.4338,0.0,3.8662,3.7001,0.0,0.0,0.0,0.0,0.0,0.0,0.0,0.0,0.0,0.0,0.0,0.0,0.0,0.0,0.0,0.0,0.0,0.0,0.0,0.0,0.0,0.0,3.9994,3.9386,3.935,3.9276,3.8726,3.41,2.9732,2.873,2.7409,2.6098,0.0,0.0,0.0,0.0,0.0,0.0,3.5422,3.7514,3.8982,3.968,3.9129,3.8652,3.8542,3.7896,3.6721,3.4825,3.3377,3.1885,3.0327,2.8184,0.0,0.0,0.0,0.0,0.0,0.0,0.0,0.0,0.0,0.0,0.0,0.0,0.0,0.0,0.0,0.0,0.0,0.0,0.0,0.0,0.0,0.0,0.0,0.0,0.0,0.0,0.0,0.0,0.0,2.7435,2.9973,3.0649,3.1157,3.0852,0.0,0.0,0.0,0.0,0.0,0.0,0.0,0.0,0.0,3.9276,4.0426,4.1576,4.276,4.4451,4.5365,4.5466,4.6786,4.709,4.6481,4.6786,4.6718,4.6312,4.6312,4.5196,4.32,4.0857,3.8734,3.6886,0.0,0.0,0.0,0.0,3.6825,3.6987,3.912,3.9367,3.8601,3.7765,0.0,0.0,0.0,0.0,0.0,0.0,0.0,3.7113,3.8026,4.0317,4.247,4.258,4.2616,4.247,4.2029,3.8982,3.5555,3.2876,3.1812,3.0344,2.7284,2.7871,0.0,0.0,0.0,3.4835,3.6721,3.8762,4.001,3.99,3.957,3.9203,3.8726,3.8395,3.7661,3.6486,3.5409,3.4191,3.2831,3.0882,2.9024,0.0,0.0,0.0,0.0,0.0,0.0,0.0,0.0,0.0,0.0,0.0,0.0,0.0,0.0,0.0,0.0,0.0,0.0,0.0,0.0,0.0,0.0,0.0,0.0,0.0,0.0,0.0,0.0,3.0277,3.2104,3.2307,3.366,3.3694,0.0,0.0,0.0,0.0,0.0,0.0,3.8903,3.9411,4.0696,4.3098,4.4079,4.5099,4.6278,4.6989,4.7631,4.8206,4.8206,4.8206,4.8206,4.8206,4.7902,4.7361,4.7361,4.7259,4.6853,4.4045,4.1941,4.0332,3.9261,3.8611,3.8502,4.0527,4.075,4.0547,4.3768,4.4121,4.2996,4.1813,4.1136,4.0198,3.6973,0.0,0.0,0.0,0.0,4.0267,4.1645,4.3057,4.4268,4.4856,4.5002,4.4782,4.3975,4.269,4.0634,3.6949,3.6105,3.4674,3.065,3.1654,0.0,0.0,0.0,3.7294,3.83,4.001,4.0948,4.0561,4.0157,3.9643,3.9056,3.8836,3.8358,3.7566,3.6942,3.609,3.4872,3.3213,3.1559,2.9913,0.0,0.0,0.0,0.0,0.0,0.0,0.0,0.0,0.0,0.0,0.0,0.0,0.0,0.0,0.0,0.0,0.0,0.0,0.0,0.0,0.0,0.0,0.0,0.0,0.0,0.0,0.0,0.0,0.0,3.5295,3.6715,0.0,0.0,0.0,0.0,3.755,3.8971,4.0485,4.1982,4.3498,4.4654,4.55,4.6891,4.7703,4.777,4.8511,4.8917,4.8951,4.8951,4.8951,4.8951,4.8951,4.8917,4.8883,4.8883,4.8511,4.7669,4.5399,4.4412,4.4175,4.2678,4.2364,4.2802,4.3148,4.3862,4.473,4.5212,4.5117,4.5009,4.6455,4.5285,4.3277,4.3057,4.1442,0.0,0.0,4.2616,4.3424,4.4305,4.5149,4.5773,4.5847,4.5847,4.5626,4.4819,4.3975,4.2633,4.012,3.9056,3.7955,3.6193,0.0,3.6905,3.6046,3.7441,3.9166,4.0728,4.1022,4.1389,4.2103,4.0818,3.9879,3.9827,3.9129,3.8358,3.7566,3.7456,3.7173,3.6608,3.4958,3.3747,3.3087,3.0124,0.0,0.0,0.0,0.0,0.0,0.0,0.0,0.0,0.0,0.0,0.0,0.0,0.0,0.0,0.0,0.0,0.0,0.0,0.0,0.0,0.0,0.0,0.0,0.0,0.0,0.0,0.0,0.0,3.8406,4.0231,0.0,3.8319,3.9469,4.0629,4.1407,4.2861,4.4553,4.6515,4.6684,4.7496,4.9187,4.9289,4.956,5.0002,5.0304,5.0439,5.0405,4.9932,4.9695,4.9695,4.9221,4.9018,4.9018,4.9018,4.8849,4.8545,4.7767,4.6853,4.5998,4.5864,4.5887,4.6108,4.6613,4.6795,4.683,4.734,4.7161,4.6783,4.7165,4.6303,4.5039,4.5039,4.4452,4.3975,4.5058,4.5608,4.5993,4.6801,4.7241,4.7462,4.7462,4.7058,4.6599,4.6305,4.5626,4.4635,4.3277,4.1515,3.9738,3.8138,3.8946,3.9386,3.8028,3.9643,4.1222,4.1809,4.2323,4.2543,4.2323,4.1772,4.1038,3.9989,3.9643,3.9129,3.8322,3.7786,3.7184,3.6487,3.5329,3.4203,3.3123,3.1657,2.9464,0.0,0.0,0.0,0.0,0.0,0.0,0.0,0.0,0.0,0.0,0.0,0.0,0.0,0.0,0.0,0.0,0.0,0.0,0.0,0.0,0.0,0.0,0.0,0.0,0.0,0.0,4.0189,4.0434,4.2868,4.3673,4.1407,4.3031,4.4519,4.5201,4.6481,4.7936,4.9661,4.9258,4.9664,5.1151,5.0744,5.071,5.1185,5.1185,5.1185,5.1185,5.071,5.0338,5.0067,4.9593,4.9255,4.9018,4.9018,4.9018,4.9018,4.9018,4.8409,4.759,4.7991,4.8129,4.8186,4.8653,4.8515,4.8208,4.8609,4.8451,4.8028,4.7844,4.7169,4.6456,4.6456,4.6295,4.6186,4.6731,4.6876,4.7025,4.7809,4.8015,4.8055,4.8267,4.7902,4.7443,4.7149,4.6672,4.6067,4.5259,4.359,4.1792,4.0194,4.1038,4.1479,4.012,4.1515,4.269,4.269,4.3167,4.3294,4.2763,4.247,4.1772,4.0414,3.979,3.9276,3.8726,3.7698,3.6978,3.6721,3.5349,3.4181,3.329,3.1948,3.0347,2.8466,0.0,0.0,0.0,0.0,0.0,0.0,0.0,0.0,0.0,0.0,0.0,0.0,0.0,0.0,0.0,0.0,0.0,0.0,0.0,0.0,0.0,0.0,0.0,3.7855,4.0527,4.2117,4.1508,4.4654,4.6041,4.3815,4.6249,4.8308,4.9018,4.9729,5.0473,5.1217,5.1185,5.1219,5.1252,5.1219,5.1219,5.1252,5.1252,5.1252,5.1252,5.1219,5.0879,5.0168,5.0101,4.9695,4.9052,4.9018,4.9018,4.9018,4.9018,4.9018,4.9018,4.9018,4.9018,4.9018,4.9018,4.9018,4.8975,4.8833,4.8778,4.8778,4.8703,4.8215,4.7639,4.7639,4.7097,4.6425,4.6425,4.6425,4.653,4.7212,4.7363,4.7512,4.8114,4.8267,4.8067,4.7296,4.7149,4.6892,4.6104,4.5333,4.4251,4.2653,4.2983,4.3258,4.2433,4.2983,0.0,4.3515,4.3515,4.3515,4.3515,4.28,4.2029,4.1205,3.968,3.8762,3.8689,3.7184,3.6633,3.7419,3.5128,3.3844,3.3857,3.1123,2.9929,3.045,0.0,0.0,0.0,0.0,0.0,0.0,0.0,0.0,0.0,0.0,0.0,0.0,0.0,0.0,0.0,0.0,0.0,0.0,0.0,0.0,0.0,3.8531,4.0595,4.1035,4.2753,4.4485,4.5877,4.7902,4.8951,4.8308,4.9492,5.0405,5.0608,5.0777,5.1217,5.1961,5.1488,5.1725,5.2841,5.23,5.23,5.2875,5.2875,5.2875,5.2875,5.23,5.1894,5.1657,5.0574,4.9965,4.9763,4.9221,4.9018,4.9018,4.9018,4.9018,4.9018,4.9018,4.9018,4.9018,4.9018,4.9018,4.8981,4.8957,4.8895,4.8799,4.8777,4.8583,4.8392,4.8392,4.7886,4.725,4.725,4.6849,4.6436,4.6635,4.6646,4.6842,4.7491,4.7653,4.7704,4.7916,4.7957,4.7736,4.6929,4.6599,4.5938,4.4324,4.3754,4.3441,4.3204,4.3368,4.3515,4.3515,4.3515,4.3515,4.3515,4.3294,4.2837,4.2029,4.1022,3.9921,3.8762,3.7184,3.6376,3.6597,3.5385,3.476,3.5033,3.3036,3.1966,0.0,0.0,0.0,0.0,0.0,0.0,0.0,0.0,0.0,0.0,0.0,0.0,0.0,0.0,0.0,0.0,0.0,0.0,0.0,0.0,0.0,0.0,4.1508,4.3572,4.4519,4.5432,4.6447,4.7736,4.9187,5.0101,5.0101,5.1048,5.1657,5.1657,5.1995,5.2367,5.2773,5.2401,5.257,5.3484,5.3044,5.3044,5.3518,5.3518,5.3518,5.3484,5.3044,5.2638,5.2266,5.142,5.0845,5.0541,5.0135,4.9932,4.9932,4.9932,4.9932,4.9864,0.0,0.0,0.0,0.0,4.9018,4.9018,4.9018,4.8954,4.8866,4.8866,4.8637,4.8375,4.8375,4.7846,4.7186,4.6873,4.6456,4.6082,4.6035,4.6014,4.6185,4.6842,4.6977,4.7154,4.7797,4.7899,4.7849,4.7625,4.7333,0.0,4.5865,4.4782,4.4011,4.4011,4.3718,4.3515,4.3515,4.3515,4.3515,4.3515,4.3515,4.3167,4.2359,4.1258,0.0,0.0,0.0,3.6156,3.5789,3.5261,0.0,0.0,0.0,0.0,0.0,3.5015,0.0,0.0,3.4314,3.4436,0.0,0.0,0.0,0.0,0.0,0.0,0.0,0.0,0.0,0.0,0.0,0.0,0.0,0.0,0.0,0.0,4.3333,4.5554,4.7582,4.7977,4.8041,4.8142,4.939,5.0236,5.0338,5.1623,5.2435,5.2435,5.3112,5.3518,5.3518,5.3518,0.0,0.0,0.0,5.3518,5.3518,5.3518,5.3518,5.3518,5.3518,5.3145,5.2435,5.2334,5.1961,5.132,5.1251,5.1185,5.1185,5.1185,5.1185,5.105,4.9661,4.9086,4.9018,4.9018,4.9018,4.9018,4.9018,0.0,0.0,4.9018,4.8578,4.8007,4.8007,4.753,4.6786,4.6143,4.5838,4.5677,4.5551,4.5468,4.5545,4.6161,4.6305,4.646,4.7132,4.7342,4.7533,4.8094,4.7662,4.7223,4.7223,4.5828,4.4691,4.4691,4.4011,4.3515,4.3515,4.3515,4.3515,4.3515,4.3515,0.0,4.2506,4.1038,4.012,4.0047,3.7955,3.6376,3.5591,3.5628,3.5782,3.5987,3.7,3.8007,3.9032,4.0832,4.1421,4.0823,3.6976,3.6783,0.0,0.0,0.0,0.0,0.0,0.0,0.0,0.0,0.0,0.0,0.0,0.0,0.0,0.0,0.0,4.2352,4.466,4.6478,4.7537,4.8312,4.9018,4.9593,5.0439,5.1217,5.1826,5.2706,5.3281,5.3281,5.3416,5.3518,5.3518,5.3518,5.3518,5.3518,5.3518,5.3518,5.3518,5.3518,5.3518,5.3518,5.3518,0.0,5.3247,5.2604,5.2232,5.2063,5.1488,5.1185,5.1185,5.1185,5.1185,5.1083,5.0236,4.9526,4.9018,4.9018,4.9018,4.9018,4.9018,4.9018,4.9018,4.9018,4.8917,4.8781,4.8781,4.8274,0.0,4.75,4.6616,4.5698,4.5671,4.5218,4.4934,4.552,4.5673,4.584,4.6472,4.7021,4.7428,4.7533,4.7829,4.8086,4.8086,4.6214,4.4691,4.4691,4.4011,4.3515,4.3515,4.3515,4.3515,4.3515,4.3515,4.3441,4.3277,4.2396,4.1552,4.0912,3.9827,3.9129,3.8946,3.957,3.9638,3.9053,3.9254,3.9751,4.0488,4.0885,4.1912,4.3508,4.2047,4.1354,0.0,0.0,0.0,0.0,0.0,0.0,0.0,0.0,0.0,0.0,0.0,3.5585,3.689,0.0,4.1491,4.3719,4.544,4.6749,4.7507,4.8418,4.9255,4.9999,5.0744,5.1488,5.2232,5.3044,5.3518,5.3518,5.3518,5.3518,5.3518,5.3518,5.3518,5.3518,5.3518,5.3518,5.3518,5.3518,5.3518,5.3518,5.3518,5.3518,5.3484,5.3078,5.2909,5.2875,5.2536,5.2367,5.2367,5.2367,5.2131,5.1725,5.1352,5.0744,5.0067,4.9695,4.956,4.9492,4.912,4.9018,4.9018,4.9018,4.9018,4.9018,4.9018,4.8748,4.8376,4.8007,4.7124,4.6177,4.5805,4.5128,4.4665,4.4988,4.5035,4.5188,4.5815,4.6209,4.6635,4.7277,4.7653,4.7955,4.8248,4.6966,4.5755,4.5369,4.4268,4.3515,4.3515,4.3515,4.3515,4.3515,4.3515,4.3515,4.3515,4.2763,4.1956,4.1132,4.0744,4.0487,4.0487,4.0875,4.0912,4.0524,4.104,4.1504,4.1841,4.2473,4.343,4.471,4.4288,4.3971,0.0,0.0,0.0,0.0,0.0,0.0,0.0,0.0,3.3039,3.3034,3.6016,3.8756,3.9214,4.0817,4.2699,4.4548,4.5586,4.6385,4.6972,4.8032,4.8908,4.9519,5.0416,5.1352,5.2198,5.2875,5.3348,5.3484,5.3518,5.3518,5.3518,5.3518,5.3518,5.3518,5.3518,5.3518,5.3518,5.3518,5.3518,5.3518,5.3518,5.3518,5.3518,5.3518,5.3518,5.3518,5.3518,5.3518,5.3518,5.3518,5.3112,5.2536,5.2536,5.2164,5.1522,5.0473,5.0101,4.9965,4.9255,4.9018,4.9018,4.9018,4.9018,4.9018,4.9018,4.9018,4.8883,4.8277,4.7496,4.665,4.6075,4.5263,4.4615,4.4615,4.4615,4.4748,4.5214,4.5425,4.579,4.6819,4.7234,4.7533,4.8055,4.7569,4.6819,4.603,4.4672,4.3698,4.3515,4.3515,4.3515,4.3515,4.3515,4.3515,4.3515,4.291,4.2249,4.1625,4.1572,4.1572,4.1572,4.1572,4.1572,4.1572,4.2458,4.2969,4.3044,4.3994,4.4751,4.5255,4.5255,4.5364,2.6596,2.6806,2.7914,2.9624,3.1155,3.3079,0.0,0.0,3.8173,3.8439,4.051,4.2038,4.1479,4.2519,4.3583,4.38,4.4507,4.5017,4.5116,4.6659,4.7703,4.7629,4.9161,5.0777,5.2164,5.2367,5.2739,5.345,5.3518,5.3518,5.3518,5.3518,5.3518,5.3518,5.3518,5.3518,5.3518,5.3518,5.3518,5.3518,5.3518,5.3518,5.3518,5.3518,5.3518,5.3518,5.3518,5.3518,5.3518,5.3518,5.345,5.3382,5.3382,5.3315,5.2976,5.0879,5.0101,4.9965,4.9255,4.9018,4.9018,4.9018,4.9018,4.9018,4.9018,4.9018,4.8984,4.8917,4.7868,4.6786,4.6684,4.5635,4.4615,4.4615,4.4615,4.4643,4.4692,4.5115,4.5545,4.5699,4.6635,4.7428,4.747,4.7299,4.6819,4.603,4.5149,4.4305,4.3571,4.3515,4.3515,4.3515,4.3515,4.3515,4.3515,4.3441,4.3331,4.3258,4.3204,4.3204,4.3204,4.3204,4.3204,4.3204,4.3382,4.3562,4.3886,4.4005,4.4636,4.5719,4.5719,4.5688,3.1031,3.0821,3.1001,0.0,3.4755,3.5972,3.7957,3.921,3.9959,3.9962,4.1751,4.3069,4.226,4.2864,4.3463,0.0,4.4212,4.4812,4.4812,4.5957,4.6756,4.666,4.7357,4.8424,4.9904,5.143,5.2202,5.1996,5.2943,5.3518,5.3518,5.3518,5.3518,5.3518,5.3518,5.3518,5.3518,5.3518,5.3518,5.3518,5.3518,5.3518,5.3518,5.3518,5.3518,5.3518,5.3518,5.3518,5.3518,5.3518,5.3518,5.3518,5.3518,5.3518,5.3281,5.142,5.0744,5.0574,4.939,4.9018,4.9018,4.9018,4.9018,4.9018,4.9018,4.9018,4.9018,4.9018,4.824,4.7327,4.6921,4.6007,4.5128,4.4716,4.4615,4.4692,4.5035,4.532,4.5724,4.6472,4.7021,4.7491,4.7858,4.7858,4.7516,4.6709,4.5498,4.4599,4.4232,4.3791,4.3515,4.3515,4.3515,4.3515,4.3515,4.3515,4.3515,4.3515,4.3515,4.3515,4.3515,4.3515,4.3515,4.3515,4.3515,4.3563,4.371,4.371,4.4289,4.5454,4.5454,4.5814,3.3335,3.3514,0.0,3.6178,3.7669,3.8736,3.9361,4.0553,4.1463,4.1242,4.2455,4.3426,4.2767,4.303,4.329,4.329,4.3927,4.4396,4.4396,4.5196,4.5647,4.5205,4.5603,4.6159,4.6671,4.9509,5.1094,5.0555,5.2165,5.3146,5.3042,5.3348,5.3518,5.3518,5.3518,5.3518,5.3518,5.3518,5.3518,5.3518,5.3518,5.3518,5.3518,5.3518,5.3518,5.3518,5.3518,5.3518,5.3518,5.3518,5.3518,5.3518,5.3518,5.3518,5.3348,5.1995,5.1354,5.1048,4.9729,4.9187,4.9018,4.9018,4.9018,4.9018,4.9018,4.9018,4.9018,4.9018,4.8477,4.7733,4.6989,4.6244,4.55,4.4784,4.4615,4.4776,4.5372,4.5494,4.5815,4.691,4.7277,4.7533,4.7995,4.8173,4.8122,4.7516,4.6232,4.5205,4.4764,4.4011,4.3515,4.3515,4.3515,4.3515,4.3515,4.3515,4.3515,4.3515,4.3515,4.3515,4.3515,4.3515,4.3515,4.3515,4.3718,4.3828,4.3828,4.4048,4.4699,4.5741,4.5741,4.6376,3.175,0.0,3.5729,3.7045,3.9477,4.1704,4.2152,4.2954,4.3512,4.3247,4.3269,4.3299,4.326,4.329,4.329,4.329,4.3329,4.3329,4.3329,4.4205,4.4264,4.2694,4.4122,4.4516,4.2749,4.6351,4.9008,4.94,5.1252,5.2202,5.196,5.2939,5.3518,5.3518,5.3518,5.3518,5.3518,5.3518,5.3518,5.3518,5.3518,5.3518,5.3518,5.3518,5.3518,5.3518,5.3518,5.3518,5.3518,5.3518,5.3518,5.3518,5.3518,5.3518,5.3416,5.257,5.1826,5.1116,5.0338,4.9593,4.9018,4.9018,4.9018,4.9018,4.9018,4.9018,4.9018,4.9018,4.8477,4.7733,4.6989,4.6244,4.55,4.4784,4.4615,4.4776,4.5372,4.5494,4.5699,4.6294,4.6955,4.7406,4.7428,4.7899,4.8306,4.8269,4.7553,4.6452,4.4911,4.4011,4.3515,4.3515,4.3515,4.3515,4.3515,4.3515,4.3515,4.3515,4.3515,4.3515,4.3515,4.3515,4.3515,4.3515,4.4268,4.4672,4.4654,4.5443,4.625,4.7021,4.7021,4.7701,3.4262,0.0,3.7285,3.9499,4.1136,4.2312,4.2869,4.3205,4.3301,4.2809,4.2342,4.2043,4.2043,4.1683,4.1683,4.2551,4.2671,4.2851,4.323,4.3576,4.3633,4.3069,4.3563,4.3678,4.3079,4.5483,0.0,4.7711,5.0007,5.1551,5.1888,5.2904,5.3518,5.3518,5.3518,5.3518,5.3518,5.3518,5.3518,5.3518,5.3518,5.3518,5.3518,5.3518,5.3518,5.3518,5.3518,5.3518,5.3518,5.3518,5.3518,5.3518,5.3518,5.3518,5.3484,5.3213,5.23,5.1116,5.0338,4.9627,4.9018,4.9018,4.9018,4.9018,4.9018,4.9018,4.9018,4.9018,4.8815,4.8477,4.7733,4.6989,4.6244,4.55,4.4959,4.4776,4.5372,4.5494,4.5825,4.6864,4.7255,4.7512,4.7935,4.819,4.8122,4.759,4.6838,4.592,4.4838,4.4011,4.3515,4.3515,4.3515,4.3515,4.3515,4.3515,4.3515,4.3515,4.3515,4.3515,4.3515,4.3515,4.3754,4.4305,4.4562,4.4966,4.5516,4.5773,4.6324,4.7113,4.7113,4.761,3.6387,3.7793,3.899,4.1212,4.2222,4.2821,4.32,4.315,4.2791,4.2171,4.1294,4.0696,4.0696,4.0127,4.0187,4.1782,4.2051,4.2312,4.317,4.329,4.32,4.3,4.3,4.3,0.0,0.0,0.0,4.5931,4.8799,5.0665,5.099,5.2598,5.3518,5.3518,5.3518,5.3518,5.3518,5.3518,5.3518,5.3518,5.3518,5.3518,5.3518,5.3518,5.3518,5.3518,5.3518,5.3518,5.3518,5.3518,5.3518,5.3518,5.3518,5.3518,5.3518,5.3518,5.2706,5.1488,5.0744,4.983,4.9018,4.9018,4.9018,4.9018,4.9018,4.9018,4.9018,4.9018,4.9018,4.8849,4.8075,4.7564,4.6955,4.594,4.5331,4.5116,4.5441,4.5494,4.59,4.7132,4.7406,4.7575,4.8209,4.8306,4.8122,4.759,4.6819,4.592,4.4838,4.4268,4.3828,4.3551,4.3515,4.3515,4.3515,4.3515,4.3515,4.3515,4.3515,4.3625,4.3901,4.3938,4.4305,4.5112,4.5388,4.5792,4.6324,4.6617,4.7021,4.7516,4.7516,4.781,3.7973,3.9469,4.0816,4.2141,4.288,4.329,4.326,4.2791,4.2141,4.1324,4.0127,3.92,3.914,3.8631,3.8901,4.0905,4.1362,4.1833,4.311,4.329,4.312,0.0,0.0,0.0,0.0,0.0,0.0,4.4338,4.7722,4.9657,4.9566,5.2053,5.3518,5.3518,5.3518,5.3518,5.3518,5.3518,5.3518,5.3518,5.3518,5.3518,5.3518,5.3518,5.3518,5.3518,5.3518,5.3518,5.3518,5.3518,5.3518,5.3518,5.3518,5.3518,5.3518,5.3518,5.2976,5.2198,5.1522,5.0304,4.9052,4.9052,4.9052,4.9018,4.9018,4.9018,4.9018,4.9018,4.9018,4.8849,4.8142,4.7906,4.7534,4.6109,4.5737,4.5665,4.5492,4.5442,4.585,4.7088,4.7406,4.7653,4.8209,4.8306,4.8306,4.8306,4.7626,4.6599,4.5021,4.4764,4.4452,4.3662,4.3534,4.3534,4.3534,4.3515,4.3515,4.3551,4.3534,4.3901,4.4654,4.4745,4.5149,4.5957,4.6709,4.7113,4.7149,4.792,4.8306,4.8306,4.8306,4.8306,3.9349,4.0846,4.2111,4.288,4.317,4.317,4.2731,4.2141,4.1025,3.8871,3.7404,3.6207,3.519,3.5669,3.6866,3.8841,4.0397,0.0,4.311,4.329,0.0,4.3778,0.0,4.4018,4.4496,4.4556,0.0,0.0,4.7786,4.9458,5.1197,5.27,5.3518,5.3518,5.3518,5.3518,5.3518,5.3518,5.3518,5.3518,5.3518,5.3518,5.3518,5.3518,5.3518,5.3518,5.3518,5.3518,5.3518,5.3518,5.3518,5.3518,5.3518,5.3518,5.3518,5.3518,5.2976,5.2266,5.2097,5.1048,4.983,4.983,4.9458,4.9018,4.9018,4.9018,4.9018,4.9018,4.9018,4.8951,4.8781,4.8308,4.7669,4.6752,4.6109,4.5557,4.4973,4.4824,4.5196,4.6425,4.7428,4.8114,4.8267,4.8306,4.8306,4.8306,4.8122,4.7626,4.6636,4.5957,4.5296,4.4488,4.4378,4.4378,4.4378,4.3828,4.3754,4.4378,4.4378,4.4488,4.4691,4.5296,4.5993,4.6782,4.7003,4.7406,4.7993,4.8196,4.8306,4.8306,4.8306,4.8306,4.0786,4.2013,4.288,4.32,4.312,4.2581,4.1354,4.0337,3.8811,3.5878,3.4472,3.3365,3.2018,3.3335,3.516,0.0,0.0,0.0,4.2731,4.315,4.3529,0.0,4.4317,0.0,4.5214,4.5727,4.6355,0.0,4.8244,4.9604,5.1394,5.2771,5.3518,5.3518,5.3518,5.3518,5.3518,5.3518,5.3518,5.3518,5.3518,5.3518,5.3518,5.3518,5.3518,5.3518,5.3518,5.3518,5.3518,5.3518,5.3518,5.3518,5.3518,5.3518,5.3518,5.3518,5.3213,5.2841,5.2841,5.186,5.0541,5.0202,4.9593,4.9018,4.9018,4.9018,4.9018,4.9018,4.9018,4.9018,4.9018,4.8714,4.8206,4.7462,4.6718,4.5974,4.5229,4.4852,4.4961,4.6185,4.7449,4.8306,4.8306,4.8306,4.8306,4.8306,4.8306,4.8159,4.7663,4.6929,4.5993,4.4819,4.4691,4.4691,4.4691,4.4305,4.4378,4.5186,4.5223,4.5406,4.5718,4.6214,4.6801,4.759,4.7626,4.7846,4.8306,4.8306,4.8306,4.8306,4.8306,4.8306,4.2201,4.291,4.329,4.329,4.2791,4.1752,3.9738,3.8123,3.6088,3.2796,0.0,3.0642,2.9415,3.133,3.3604,3.513,0.0,4.0756,4.2201,4.3,4.3678,4.4377,4.4526,4.4855,4.5484,4.6417,4.7203,4.7911,4.8818,4.9812,5.0968,5.2467,5.3348,5.3518,5.3518,5.3518,5.3518,5.3518,5.3518,5.3518,5.3518,5.3518,5.3518,5.3518,5.3518,5.3518,5.3518,5.3518,5.3518,5.3518,5.3518,5.3518,5.3518,5.3518,5.3518,5.3518,5.3518,5.3518,5.3518,5.257,5.1217,5.0473,4.9695,4.9018,4.9018,4.9018,4.9018,4.9018,4.9018,4.9018,4.9018,4.9018,4.8815,4.8075,4.7327,4.6583,4.5872,4.5264,4.5169,4.6209,4.7449,4.8306,4.8306,4.8306,4.8306,4.8306,4.8306,4.8306,4.8306,4.77,4.6672,4.5168,4.5021,4.5021,4.5021,4.4911,4.5223,4.5993,4.6067,4.6361,4.7076,4.7186,4.759,4.8306,4.8306,4.8306,4.8306,4.8306,4.8306,4.8306,4.8306,4.8306,4.297,4.32,4.329,4.329,4.2432,4.1063,3.902,3.6716,0.0,0.0,2.9142,2.8034,2.726,2.9265,3.1809,3.4294,0.0,0.0,0.0,0.0,4.4377,0.0,0.0,0.0,0.0,0.0,0.0,0.0,4.8786,4.974,5.1651,5.1999,5.2592,5.345,5.3518,5.3518,5.3518,5.3518,5.3518,5.3518,5.3518,5.3518,5.3518,5.3518,5.3518,5.3518,5.3518,5.3518,5.3518,5.3518,5.3518,5.3518,5.3518,5.3518,5.3518,5.3518,5.3518,5.3518,5.3518,5.2909,5.1995,5.1251,5.0101,4.9018,4.9018,4.9018,4.9018,4.9018,4.9018,4.9018,4.9018,4.9018,4.8815,4.8075,4.7327,4.6583,4.5872,4.589,4.6161,4.6342,4.7449,4.8306,4.8306,4.8306,4.8306,4.8306,4.8306,4.8306,4.8306,4.8196,4.7736,4.6782,4.6672,4.6672,4.6672,4.6067,4.603,4.6819,4.6892,4.6966,4.7076,4.7736,4.8159,4.8306,4.8306,4.8306,4.8306,4.8306,4.8306,4.8306,4.8306,4.8306,4.311,4.329,4.329,4.329,4.2102,4.0187,3.7494,0.0,0.0,0.0,2.6991,2.6243,2.5226,2.7769,0.0,3.1748,0.0,0.0,0.0,0.0,0.0,0.0,0.0,0.0,0.0,0.0,4.8072,4.803,4.8512,4.9496,5.1043,5.1631,5.2383,5.3484,5.3518,5.3518,5.3518,5.3518,5.3518,5.3518,5.3518,5.3518,5.3518,5.3518,5.3518,5.3518,5.3518,5.3518,5.3518,5.3518,5.3518,5.3518,5.3518,5.3518,5.3518,5.3518,5.3518,5.3518,5.3518,5.2976,5.2232,5.1894,5.0777,4.9492,4.912,4.9018,4.9018,4.9018,4.9018,4.9018,4.9018,4.9018,4.8917,4.8578,4.7631,4.6583,4.5872,4.5818,4.6039,4.6318,4.7176,4.7955,4.8248,4.8306,4.8306,4.8306,4.8306,4.8306,4.8306,4.8306,4.7993,4.7186,4.7113,4.7113,4.7113,4.6746,4.6856,4.7663,4.77,4.77,4.77,4.8086,4.8306,4.8306,4.8306,4.8306,4.8306,4.8306,4.8306,4.8306,4.8306,4.8306,4.311,4.329,4.326,4.311,4.1654,3.932,3.6028,3.3125,0.0,0.0,2.5375,2.4896,2.3999,2.6512,2.8906,0.0,3.2677,0.0,0.0,0.0,0.0,0.0,0.0,0.0,0.0,0.0,0.0,4.7352,4.821,4.9256,5.032,5.1594,5.2627,5.345,5.3518,5.3518,5.3518,5.3518,5.3518,5.3518,5.3518,5.3518,5.3518,5.3518,5.3518,5.3518,5.3518,5.3518,5.3518,5.3518,5.3518,5.3518,5.3518,5.3518,5.3518,5.3518,5.3518,5.3518,5.3518,5.3078,5.2536,5.2367,5.1285,4.9965,4.939,4.912,4.9018,4.9018,4.9018,4.9018,4.9018,4.9018,4.8951,4.8815,4.7767,4.6583,4.5872,4.5583,4.5699,4.627,4.6955,4.7575,4.8209,4.8306,4.8306,4.8306,4.8306,4.8306,4.8306,4.8306,4.8086,4.7406,4.7369,4.7369,4.7369,4.7369,4.7626,4.8269,4.8306,4.8306,4.8306,4.8306,4.8306,4.8306,4.8306,4.8306,4.8306,4.8306,4.8306,4.8306,4.8306,4.8306,4.311,4.329,4.314,4.265,4.0965,3.8631,3.5342,0.0,0.0,2.6183,2.4627,2.3939,2.4425,2.5292,2.6752,2.9202,3.1898,3.4801,0.0,0.0,0.0,0.0,0.0,0.0,0.0,0.0,4.7409,4.7309,4.821,4.9256,5.032,5.2274,5.3382,5.3518,5.3518,5.3518,5.3518,5.3518,5.3518,5.3518,5.3518,5.3518,5.3518,5.3518,5.3518,5.3518,5.3518,5.3518,5.3518,5.3518,5.3518,5.3518,5.3518,5.3518,5.3518,5.3518,5.3518,5.3518,5.3518,5.345,5.3281,5.2536,5.1285,5.0067,4.9999,4.9526,4.9018,4.9018,4.9018,4.9018,4.9018,4.9018,4.8849,4.8173,4.7394,4.6583,4.5872,4.5583,4.5699,4.627,4.6955,4.7575,4.8209,4.8306,4.8306,4.8306,4.8306,4.8306,4.8306,4.8306,4.8269,4.8196,4.8196,4.8196,4.8196,4.8196,4.8233,4.8306,4.8306,4.8306,4.8306,4.8306,4.8306,4.8306,4.8306,4.8306,4.8306,4.8306,4.8306,4.8306,4.8306,4.8306,4.2342,4.303,4.314,4.256,4.0576,3.8033,3.5162,0.0,2.8338,2.6063,2.4537,2.367,2.3969,2.4545,2.5591,2.747,2.9022,3.1239,3.4921,0.0,0.0,0.0,0.0,0.0,0.0,0.0,4.7309,4.7309,4.8841,4.9931,5.0358,5.174,5.2835,5.3484,5.3518,5.3518,5.3518,5.3518,5.3518,5.3518,5.3518,5.3518,5.3518,5.3518,5.3518,5.3518,5.3518,5.3518,5.3518,5.3518,5.3518,5.3518,5.3518,5.3518,5.3518,5.3518,5.3518,5.3518,5.3518,5.3518,5.345,5.3145,5.23,5.1251,5.0371,4.9593,4.9018,4.9018,4.9018,4.9018,4.9018,4.9018,4.8951,4.8646,4.8003,4.7259,4.6515,4.5966,4.5664,4.5819,4.6377,4.6999,4.7674,4.8055,4.8306,4.8306,4.8306,4.8306,4.8306,4.8306,4.8306,4.8306,4.8306,4.8306,4.8306,4.8306,4.8306,4.8306,4.8306,4.8306,4.8306,4.8306,4.8306,4.8306,4.8306,4.8306,4.8306,4.8306,4.8306,4.8306,4.8306,4.8306,4.1572,4.2402,4.2641,4.2231,4.0104,3.7375,0.0,3.115,2.7979,2.5741,2.4418,2.361,2.361,2.4126,2.4963,2.6123,2.7375,2.9442,3.3006,3.4412,0.0,0.0,0.0,4.3718,0.0,4.695,4.7309,4.7309,4.9247,5.0397,5.0397,5.1667,5.2697,5.3484,5.3518,5.3518,5.3518,5.3518,5.3518,5.3518,5.3518,5.3518,5.3518,5.3518,5.3518,5.3518,5.3518,5.3518,5.3518,5.3518,5.3518,5.3518,5.3518,5.3518,5.3518,5.3518,5.3518,5.3518,5.3518,5.3518,5.3518,5.3518,5.2807,5.1792,5.0744,4.9898,4.9289,4.9052,4.9018,4.9018,4.9018,4.9018,4.9018,4.9018,4.8443,4.7699,4.6955,4.621,4.5716,4.5736,4.6112,4.6682,4.7512,4.8015,4.8306,4.8306,4.8306,4.8306,4.8306,4.8306,4.8306,4.8306,4.8306,4.8306,4.8306,4.8306,4.8306,4.8306,4.8306,4.8306,4.8306,4.8306,4.8306,4.8306,4.8306,4.8306,4.8306,4.8306,4.8306,4.8306,4.8306,4.8306,4.0846,4.1384,4.1414,4.1384,3.9379,3.6567,0.0,3.0492,2.7859,2.5173,2.4066,2.361,2.361,2.4126,2.4814,2.5525,2.7829,3.052,3.3125,3.522,0.0,0.0,0.0,4.2192,4.4137,4.6142,4.7309,4.7309,4.9247,5.0397,5.0397,5.2345,5.3518,5.3518,5.3518,5.3518,5.3518,5.3518,5.3518,5.3518,5.3518,5.3518,5.3518,5.3518,5.3518,5.3518,5.3518,5.3518,5.3518,5.3518,5.3518,5.3518,5.3518,5.3518,5.3518,5.3518,5.3518,5.3518,5.3518,5.3518,5.3518,5.3518,5.2469,5.1217,5.1185,5.0676,4.9932,4.9221,4.9018,4.9018,4.9018,4.9018,4.9018,4.9018,4.8443,4.7699,4.6955,4.621,4.5821,4.6301,4.6389,4.6783,4.8075,4.8287,4.8306,4.8306,4.8306,4.8306,4.8306,4.8306,4.8306,4.8306,4.8306,4.8306,4.8306,4.8306,4.8306,4.8306,4.8306,4.8306,4.8306,4.8306,4.8306,4.8306,4.8306,4.8306,4.8306,4.8306,4.8306,4.8306,4.8306,4.8306,3.7075,3.8003,3.8332,3.7019,3.537,3.3544,3.1599,2.9116,2.6871,2.5531,2.4388,2.361,2.361,2.3789,2.4747,2.726,2.8368,2.9983,3.3066,0.0,0.0,0.0,0.0,4.5663,0.0,0.0,4.7309,4.7309,4.9247,5.0397,5.0397,5.2381,5.3518,5.3518,5.3518,5.3518,5.3518,5.3518,5.3518,5.3518,5.3518,5.3518,5.3518,5.3518,5.3518,5.3518,5.3518,5.3518,5.3518,5.3518,5.3518,5.3518,5.3518,5.3518,5.3518,5.3518,5.3518,5.3518,5.3518,5.3518,5.3518,5.3518,5.2807,5.186,5.1352,5.0338,4.9289,4.9086,4.9018,4.9018,4.9018,4.9018,4.9018,4.9018,4.8815,4.8308,4.7056,4.6616,4.6329,4.5866,4.6136,4.6646,4.7533,4.8035,4.8306,4.8306,4.8306,4.8306,4.8306,4.8306,4.8306,4.8306,4.8306,4.8306,4.8306,4.8306,4.8306,4.8306,4.8306,4.8306,4.8306,4.8306,4.8306,4.8306,4.8306,4.8306,4.8306,4.8306,4.8306,4.8306,4.8306,4.8306,3.4233,3.534,3.5699,3.4743,3.3305,3.169,3.0133,2.8128,2.6273,2.5106,2.4178,2.361,2.361,2.3819,2.4747,2.7081,2.8098,2.9654,0.0,0.0,0.0,0.0,0.0,0.0,0.0,4.701,4.7452,4.7849,4.9416,5.055,5.093,5.2557,5.3518,5.3518,5.3518,5.3518,5.3518,5.3518,5.3518,5.3518,5.3518,5.3518,5.3518,5.3518,5.3518,5.3518,5.3518,5.3518,0.0,5.3518,5.3518,5.3518,5.3518,5.3518,5.3518,5.3518,5.3518,5.3518,5.3518,5.3518,5.3518,5.3518,5.2773,5.1725,5.071,4.9729,4.9018,4.9018,4.9018,4.9018,4.9018,4.9018,4.9018,4.9018,4.9018,4.868,4.7462,4.716,4.6975,4.6386,4.6565,4.6977,4.7653,4.8055,4.8306,4.8306,4.8306,4.8306,4.8306,4.8306,4.8306,4.8306,4.8306,4.8306,4.8306,4.8306,4.8306,4.8306,4.8306,4.8306,4.8306,4.8306,4.8306,4.8306,4.8306,4.8306,4.8306,4.8306,4.8306,4.8306,4.8306,4.8489,0.0,3.3036,3.3275,3.3815,3.2527,3.0673,2.8816,2.738,0.0,2.4059,2.364,2.364,2.3729,2.4216,2.4903,2.5824,2.756,2.9714,0.0,0.0,0.0,0.0,4.3359,0.0,4.5364,4.6646,4.7807,4.8759,4.9852,5.0892,5.1849,5.2904,5.3518,5.3518,5.3518,5.3518,5.3518,5.3518,5.3518,5.3518,5.3518,5.3518,5.3518,5.3518,5.3518,5.3518,5.3518,5.3518,5.3518,5.3518,5.3518,5.3518,5.3518,5.3518,5.3518,5.3518,5.3518,5.3518,5.3518,5.3518,5.3484,5.3382,5.2367,5.0914,4.9458,4.9018,4.9018,4.9018,4.9018,4.9018,4.9018,4.9018,4.9018,4.9018,4.9018,4.8815,4.8132,4.7837,4.7699,4.7671,4.7527,4.7575,4.8209,4.8306,4.8306,4.8306,4.8306,4.8306,4.8306,4.8306,4.8306,4.8306,4.8306,4.8306,4.8306,4.8306,4.8306,4.8306,4.8306,4.8306,4.8306,4.8306,4.8306,4.8306,4.8306,4.8306,4.8306,4.8306,4.8306,4.8306,4.8379,4.882,2.72,0.0,2.9535,2.8667,2.8098,2.75,0.0,2.5651,2.4933,2.4455,2.3969,2.3909,2.4956,2.4844,2.5651,2.8846,3.0193,3.175,3.4442,0.0,0.0,4.4077,4.5693,4.6651,4.683,4.7806,4.8553,4.88,5.048,5.1667,5.1885,5.2904,5.3518,5.3518,5.3518,5.3518,5.3518,5.3518,5.3518,5.3518,5.3518,5.3518,5.3518,5.3518,5.3518,5.3518,5.3518,5.3518,5.3518,5.3518,5.3518,5.3518,5.3518,5.3518,5.3518,5.3518,5.3518,5.3518,5.3518,5.3518,5.3315,5.2131,5.1522,5.0914,4.9458,4.9018,4.9018,4.9018,4.9018,4.9018,4.9018,4.9018,4.9018,4.9018,4.9018,4.8934,4.8701,4.8135,4.7823,4.8291,4.7839,4.7575,4.8209,4.8306,4.8306,4.8306,4.8306,4.8306,4.8306,4.8306,4.8306,4.8306,4.8306,4.8306,4.8306,4.8306,4.8306,4.8306,4.8306,4.8306,4.8306,4.8306,4.8306,4.8306,4.8306,4.8306,4.8306,4.8306,4.8306,4.8306,4.8967,4.939,2.5053,2.6602,2.7974,2.7255,2.7076,2.6896,2.6213,2.5292,2.4515,2.4186,0.0,2.3909,2.4933,2.5352,2.6422,2.9175,3.0941,0.0,0.0,0.0,0.0,4.5095,4.6471,4.7309,4.7309,4.821,4.8973,4.9496,5.1005,5.2101,5.2592,5.3179,5.3518,5.3518,5.3518,5.3518,5.3518,5.3518,5.3518,5.3518,5.3518,5.3518,5.3518,5.3518,5.3518,5.3518,5.3518,5.3518,5.3518,5.3518,5.3518,5.3518,5.3518,5.3518,5.3518,5.3518,5.3518,5.3518,5.3518,5.3518,5.3247,5.1725,5.1185,5.0914,4.9458,4.9018,4.9018,4.9018,4.9018,4.9018,4.9018,4.9018,4.9018,4.9018,4.9018,4.9063,4.9343,4.8762,4.8448,4.9477,4.8647,4.8045,4.8781,4.8563,4.8306,4.8306,4.8306,4.8306,4.8306,4.8306,4.8306,4.8306,4.8306,4.8306,4.8306,4.8306,4.8306,4.8306,4.8306,4.8306,4.8306,4.8306,4.8306,4.8306,4.8306,4.8306,4.8306,4.8306,4.8526,4.8893,4.939,5.0014,2.4664,2.6303,2.7675,2.7375,2.7435,2.7405,2.6602,0.0,0.0,0.0,0.0,0.0,2.5053,2.6213,0.0,2.8966,0.0,0.0,3.911,4.1923,4.3988,4.5155,4.6471,0.0,4.7309,4.8377,4.9416,5.032,5.1451,5.2557,5.345,5.3518,5.3518,5.3518,5.3518,5.3518,5.3518,5.3518,5.3518,5.3518,5.3518,5.3518,5.3518,5.3518,5.3518,5.3518,5.3518,5.3518,5.3518,5.3518,5.3518,5.3518,5.3518,5.3518,5.3518,5.3518,5.3518,5.3518,5.3518,5.3416,5.3078,5.1691,5.115,5.0777,4.9424,4.9018,4.9018,4.9018,4.9018,4.9018,4.9018,4.9018,4.9015,4.9138,4.9168,4.9376,5.0174,4.9644,4.9434,5.0777,4.9779,4.893,4.9684,4.915,4.8636,4.8526,4.8489,4.8453,4.8343,4.8306,4.8306,4.8306,4.8306,4.8306,4.8306,4.8306,4.8306,4.8306,4.8306,4.8306,4.8306,4.8306,4.8306,4.8306,4.8306,4.8306,4.8306,4.8306,4.8746,4.961,4.9721,5.0602,2.5794,2.735,2.8038,2.6333,2.6752,2.7285,2.6033,2.5591,0.0,0.0,0.0,0.0,0.0,2.8607,2.9744,0.0,0.0,3.7704,0.0,0.0,4.4436,4.5214,0.0,4.7309,4.7309,4.9044,5.0204,5.0397,5.217,5.3348,5.3518,5.3518,5.3518,5.3518,5.3518,5.3518,5.3518,5.3518,5.3518,5.3518,5.3518,5.3518,5.3518,5.3518,5.3518,5.3518,5.3518,5.3518,5.3518,5.3518,5.3518,5.3518,5.3518,5.3518,5.3518,5.3518,5.3518,5.3518,5.3518,5.3044,5.2334,5.1488,5.0777,5.0101,4.9255,4.9018,4.9018,4.9018,4.9018,4.9018,4.9018,4.9018,4.9138,4.9722,4.9867,5.023,5.1519,5.1119,5.08,5.1673,5.1071,5.0472,5.0582,5.0508,5.0178,4.95,4.939,4.9114,4.8379,4.8306,4.8306,4.8306,4.8306,4.8306,4.8306,4.8306,4.8306,4.8306,4.8306,4.8306,4.8306,4.8306,4.8306,4.8306,4.8306,4.8306,4.8306,4.8306,4.8746,4.961,5.0288,5.1096,2.4717,2.6213,2.738,2.6811,2.8218,2.9445,2.8487,2.8008,2.7649,0.0,0.0,0.0,0.0,0.0,3.2287,3.5699,0.0,3.9828,4.2132,4.3509,4.4706,0.0,4.6711,4.7309,4.7309,4.9166,5.0397,5.0397,5.2345,5.3518,5.3518,5.3518,5.3518,5.3518,5.3518,5.3518,5.3518,5.3518,5.3518,5.3518,5.3518,5.3518,5.3518,5.3518,5.3518,5.3518,5.3518,5.3518,5.3518,5.3518,5.3518,5.3518,5.3518,5.3518,5.3518,5.3518,5.3518,5.3518,5.3518,5.2976,5.2198,5.1454,5.071,4.9965,4.9221,4.9018,4.9018,4.9018,4.9018,4.9018,4.9018,4.9018,4.9168,4.9833,5.0004,5.039,5.179,5.1463,5.1249,5.2422,5.1646,5.0949,5.1353,5.1096,5.0655,5.0288,5.0251,5.0105,4.9701,4.9664,4.9664,4.9664,4.9664,4.9481,4.904,4.9003,4.8783,4.8343,4.8306,4.8306,4.8306,4.8306,4.8306,4.8306,4.8306,4.8306,4.8306,4.8783,4.9407,5.0251,5.1059,5.1867,2.4418,2.5644,2.7046,2.7854,2.9475,3.0853,3.0971,3.0372,2.9774,2.9744,0.0,0.0,0.0,3.2228,0.0,3.92,4.0427,4.152,4.3404,4.4378,4.5253,4.6267,4.7154,4.7581,4.7309,4.9166,5.0397,5.0397,5.2345,5.3518,5.3518,5.3518,5.3416,5.3213,5.3213,5.3213,5.3213,5.3213,5.3315,5.3518,5.3518,5.3518,5.3518,5.3518,5.3518,5.3518,5.3518,5.3518,5.3518,5.3518,5.3518,5.3518,5.3518,5.3518,5.3518,5.3518,5.3518,5.3518,5.3518,5.2976,5.2198,5.1454,5.071,4.9965,4.9221,4.9018,4.9018,4.9018,4.9018,4.9018,4.9018,4.9018,4.9195,5.0061,5.0251,5.0635,5.2042,5.1851,5.1768,5.2993,5.2197,5.1573,5.216,5.1756,5.1316,5.1096,5.1096,5.1022,5.0839,5.0802,5.0802,5.0802,5.0802,5.0545,4.9941,4.9904,4.9517,4.8673,4.8416,4.8306,4.8306,4.8306,4.8306,4.8306,4.8306,4.8416,4.86,4.928,5.0124,5.1096,5.172,5.2417,2.6806,2.7405,2.7854,2.9142,2.9116,2.9445,3.1839,3.136,3.0941,3.2766,3.3155,0.0,0.0,3.531,3.7973,4.0786,4.1841,4.2809,4.4456,4.5851,4.6686,4.6661,4.7874,4.8335,4.7366,4.9166,5.0397,5.0397,5.2345,5.3518,5.3518,5.3518,5.3179,5.2401,5.2401,5.2401,5.2401,5.2401,5.2773,5.3518,5.3518,5.3518,5.3518,5.3518,5.3518,5.3518,5.3518,5.3518,5.3518,5.3518,5.3518,5.3518,5.3518,5.3518,5.3518,5.3518,5.3518,5.3518,5.3518,5.2976,5.2198,5.1454,5.071,4.9965,4.9221,4.9018,4.9018,4.9018,4.9018,4.9018,4.9018,4.9018,4.9346,5.0689,5.1008,5.1393,5.2828,5.3088,5.3051,5.3167,5.3115,5.3078,5.3093,5.3057,5.2784,5.2013,5.1903,5.1646,5.0912,5.0802,5.0802,5.0802,5.0802,5.0765,5.0729,5.0729,5.0362,4.9574,4.8746,4.8306,4.8306,4.8306,4.8306,4.8306,4.8306,4.871,4.95,4.9574,5.0418,5.1903,5.1977,5.2417,2.5525,2.6632,2.7824,2.8727,2.9714,3.0972,3.3215,3.4292,3.513,3.6297,3.6207,3.5938,0.0,0.0,3.9738,4.1145,4.2282,4.3298,4.4325,4.495,4.5445,4.5799,4.6822,4.7525,4.7578,4.9458,5.0815,5.1308,5.2696,5.3518,5.3518,5.3044,5.2604,5.23,5.186,5.186,5.23,5.23,5.2706,5.3518,5.3518,5.3518,5.3518,5.3518,5.3518,5.3518,5.3518,5.3518,5.3518,5.3518,5.3518,5.3518,5.3518,5.3518,5.3518,5.3518,5.3518,5.3518,5.3518,5.2976,5.2198,5.1454,5.071,4.9965,4.9221,4.9018,4.9018,4.9018,4.9018,4.9018,4.9018,4.9316,4.9896,5.085,5.1419,5.1994,5.3017,5.3203,5.3203,5.3203,5.3203,5.3203,5.3203,5.3203,5.3093,5.2784,5.2747,5.2637,5.2344,5.2307,5.2307,5.2307,5.183,5.1536,5.1536,5.1096,5.0655,5.0362,4.9554,4.8857,4.8343,4.8306,4.8563,4.9077,4.9114,4.9517,5.0362,5.0839,5.1389,5.2013,5.2527,5.2931,2.5292,2.6393,2.7824,2.8697,3.0402,3.2437,3.4861,3.6297,3.7494,3.8751,3.8512,3.8123,3.8302,0.0,0.0,0.0,4.2491,4.3558,4.4337,4.4658,4.4961,4.5374,4.6475,4.7263,4.7446,4.9286,5.0766,5.149,5.2536,5.3247,5.3484,5.2739,5.2198,5.1961,5.1251,5.1116,5.1589,5.186,5.2232,5.2773,5.3281,5.3518,5.3518,5.3518,5.3518,5.3518,5.3518,5.3518,5.3518,5.3518,5.3518,5.3518,5.3518,5.3518,5.3518,5.3518,5.3518,5.3518,5.3518,5.3145,5.2536,5.1522,5.0879,5.027,4.9289,4.9018,4.9018,4.9018,4.9018,4.9046,4.9256,4.9634,5.0202,5.0929,5.1618,5.2312,5.306,5.3203,5.3203,5.3203,5.3203,5.3203,5.3203,5.3203,5.3203,5.3203,5.3203,5.3203,5.3203,5.3203,5.3203,5.3203,5.2711,5.238,5.238,5.1867,5.1463,5.1206,5.0655,4.9978,4.9114,4.9077,4.937,4.9978,4.9978,5.0362,5.1169,5.172,5.2123,5.238,5.2931,5.3203,2.6752,2.7106,2.7914,2.9262,3.1091,3.3364,3.6656,3.6956,3.7255,3.9888,3.9888,3.9649,4.0277,4.0397,4.0636,4.1294,4.2491,4.3654,4.4662,4.5408,4.5811,4.5696,4.7208,4.7844,4.6803,4.851,5.0008,5.0768,5.1732,5.2638,5.345,5.2706,5.1961,5.1185,5.0473,5.0067,5.0101,5.0845,5.1185,5.1219,5.2773,5.3484,5.3484,5.3518,5.3518,5.3518,5.3518,5.3518,5.3518,5.3518,5.3518,5.3518,5.3518,5.3518,5.3518,5.3518,5.3518,5.3518,5.3518,5.3484,5.3247,5.1725,5.1185,5.0947,4.9458,4.9018,4.9018,4.9018,4.9018,4.9168,4.9838,5.0004,5.0202,5.0929,5.1618,5.2312,5.306,5.3203,5.3203,5.3203,5.3203,5.3203,5.3203,5.3203,5.3203,5.3203,5.3203,5.3203,5.3203,5.3203,5.3203,5.3203,5.3203,5.3203,5.3203,5.3203,5.2858,5.205,5.2013,5.1646,5.0839,5.0802,5.0802,5.0802,5.0802,5.1206,5.2013,5.2013,5.2417,5.3203,5.3203,5.3203,2.6063,2.7081,0.0,2.9894,0.0,0.0,3.7674,3.8691,3.9709,4.1452,4.1662,4.1452,4.1145,4.1512,4.1871,4.2081,4.2791,4.3409,4.3693,4.3953,4.4074,4.4004,4.5665,4.6897,4.7083,4.8887,5.0289,5.1028,5.1359,5.1657,5.1894,5.115,5.0642,5.0439,4.9695,4.956,5.0067,5.0304,5.0676,5.1217,5.1691,5.2164,5.2672,5.3247,5.3518,5.3518,5.3518,5.3518,5.3518,5.3518,5.3518,5.3518,5.3518,5.3518,5.3518,5.3518,5.3518,5.3518,5.3518,5.3145,5.2503,5.1522,5.0845,5.0236,4.9289,4.9018,4.9018,4.9018,4.9018,4.9046,4.9226,5.0033,5.0955,5.1643,5.2335,5.2937,5.3146,5.3203,5.3203,5.3203,5.3203,5.3203,5.3203,5.3203,5.3203,5.3203,5.3203,5.3203,5.3203,5.3203,5.3203,5.3203,5.3203,5.3203,5.3203,5.3203,5.3093,5.2858,5.2858,5.2234,5.0875,5.0802,5.1059,5.161,5.1646,5.205,5.2858,5.2858,5.2968,5.3203,5.3203,5.3203,2.753,2.8816,0.0,3.2108,3.4681,3.7404,3.9535,0.0,0.0,0.0,4.259,4.2291,4.1871,4.2141,4.241,4.241,4.291,4.329,4.329,4.329,4.3448,4.3849,4.5269,4.6509,4.7346,4.8761,4.9965,5.071,5.0777,5.0913,5.1151,5.0507,5.0101,5.0101,4.939,4.9221,4.9661,4.9932,5.0168,5.0338,5.0947,5.1285,5.1454,5.2232,5.2604,5.2604,5.2604,5.2739,5.301,5.301,5.3213,5.3518,5.3518,5.3518,5.3518,5.3518,5.3518,5.345,5.3145,5.2706,5.2131,5.1116,5.0473,4.9965,4.9221,4.9018,4.9018,4.9018,4.9018,4.9046,4.9346,5.0258,5.1189,5.1593,5.2486,5.3203,5.3203,5.3203,5.3203,5.3203,5.3203,5.3203,5.3203,5.3203,5.3203,5.3203,5.3203,5.3203,5.3203,5.3203,5.3203,5.3203,5.3203,5.3203,5.3203,5.3203,5.3203,5.3203,5.3203,5.2763,5.1793,5.1756,5.1977,5.2454,5.2491,5.2711,5.3203,5.3203,5.3203,5.3203,5.3203,5.3203,3.0013,3.136,3.2946,3.507,3.6686,0.0,4.1782,4.25,4.2611,4.317,0.0,4.25,4.25,4.25,4.25,4.25,4.294,4.329,4.329,4.3369,4.3771,4.4699,4.5706,4.6662,4.7506,4.845,4.9289,4.9932,4.9999,5.0304,5.0948,5.0371,4.9999,4.9999,4.9357,4.9018,4.9018,4.9661,4.9661,4.9018,5.0371,5.0642,5.0033,5.0845,5.1185,5.1185,5.1185,5.1623,5.23,5.2232,5.2706,5.3484,5.3416,5.345,5.3518,5.3518,5.3518,5.3382,5.257,5.2266,5.1961,5.0541,5.0033,4.9864,4.9187,4.9018,4.9018,4.9018,4.9018,4.9138,4.9751,5.05,5.1086,5.1086,5.2172,5.3203,5.3203,5.3203,5.3203,5.3203,5.3203,5.3203,5.3203,5.3203,5.3203,5.3203,5.3203,5.3203,5.3203,5.3203,5.3203,5.3203,5.3203,5.3203,5.3203,5.3203,5.3203,5.3203,5.3203,5.3203,5.3203,5.3203,5.3203,5.3203,5.3203,5.3203,5.3203,5.3203,5.3203,5.3203,5.3203,5.3203,2.8786,3.0315,0.0,0.0,3.8422,4.0995,4.2731,4.312,4.311,4.326,4.32,4.312,4.312,4.312,4.312,4.312,4.32,4.329,4.329,4.4004,4.4548,4.4774,4.6276,4.7373,4.7572,4.845,4.9086,4.9221,4.9255,4.9323,4.9458,4.9323,4.9255,4.9255,4.9086,4.9018,4.9018,4.9154,4.9154,4.9018,4.9323,4.939,4.9289,5.0608,5.1185,5.1185,5.1185,5.1623,5.2266,5.1691,5.2266,5.345,5.2807,5.2942,5.3518,5.3518,5.3518,5.3382,5.257,5.1928,5.1319,5.0371,4.9695,4.9221,4.9052,4.9018,4.9018,4.9018,4.9018,4.9015,4.9199,5.0146,5.1086,5.1086,5.2172,5.3203,5.3203,5.3203,5.3203,5.3203,5.3203,5.3203,5.3203,5.3203,5.3203,5.3203,5.3203,5.3203,5.3203,5.3203,5.3203,5.3203,5.3203,5.3203,5.3203,5.3203,5.3203,5.3203,5.3203,5.3203,5.3203,5.3203,5.3203,5.3203,5.3203,5.3203,5.3203,5.3203,5.3203,5.3203,5.3203,5.3203,2.9475,0.0,0.0,3.7853,0.0,4.1713,4.2991,4.329,4.329,4.329,4.329,4.329,4.329,4.329,4.329,4.329,4.329,4.329,4.329,4.4197,4.4999,4.5416,4.6728,4.777,4.8225,4.8702,4.9018,4.9018,4.9018,4.9018,4.9018,4.9018,4.9018,4.9018,4.9018,4.9018,4.9018,4.9018,4.9018,4.9018,4.9018,4.9018,4.9052,4.9796,5.0168,5.0168,5.0168,5.0574,5.1217,5.0845,5.1352,5.2401,5.2334,5.257,5.2942,5.2942,5.2942,5.2773,5.1623,5.1014,5.0541,4.9796,4.9323,4.9018,4.9018,4.9018,4.9018,4.9018,4.9018,4.9018,4.9018,5.0033,5.1086,5.1086,5.2172,5.3203,5.3203,5.3203,5.3203,5.3203,5.3203,5.3203,5.3203,5.3203,5.3203,5.3203,5.3203,5.3203,5.3203,5.3203,5.3203,5.3203,5.3203,5.3203,5.3203,5.3203,5.3203,5.3203,5.3203,5.3203,5.3203,5.3203,5.3203,5.3203,5.3203,5.3203,5.3203,5.3203,5.3203,5.3203,5.3203,5.3203,3.0016,0.0,3.5701,3.9978,4.1205,0.0,4.288,4.323,4.329,4.329,4.329,4.329,4.329,4.329,4.329,4.329,4.3448,4.3536,4.3536,4.4517,4.5561,4.6349,4.7273,4.8161,4.8923,4.9018,4.9018,4.9018,4.9018,4.9018,4.9018,4.9018,4.9018,4.9018,4.9018,4.9018,4.9018,4.9018,4.9018,4.9018,4.9018,4.9018,4.9018,4.9018,4.9018,4.9018,4.9018,4.9424,5.0067,4.9965,5.0405,5.1285,5.1894,5.2198,5.23,5.23,5.23,5.2097,5.0608,5.0101,4.9965,4.9255,4.9018,4.9018,4.9018,4.9018,4.9018,4.9018,4.9018,4.9018,4.9018,5.0033,5.1086,5.1086,5.2172,5.3203,5.3203,5.3203,5.3203,5.3203,5.3203,5.3203,5.3203,5.3203,5.3203,5.3203,5.3203,5.3203,5.3203,5.3203,5.3203,5.3203,5.3203,5.3203,5.3203,5.3203,5.3203,5.3203,5.3203,5.3203,5.3203,5.3203,5.3203,5.3203,5.3203,5.3203,5.3203,5.3203,5.3203,5.3203,5.3203,5.3203,2.7705,0.0,3.6058,0.0,4.0546,4.1602,0.0,0.0,4.329,0.0,4.329,4.329,4.329,4.329,4.329,4.329,4.4043,4.4586,4.4586,4.6134,4.7273,4.7406,4.8257,4.8861,4.9018,4.9018,4.9018,4.9018,4.9018,4.9018,4.9018,4.9018,4.9018,4.9018,4.9018,4.9018,4.9018,4.9018,4.9018,4.9018,4.9018,4.9018,4.9018,4.9018,4.9018,4.9018,4.9018,4.9424,5.0033,4.939,4.9965,5.1185,5.1319,5.1758,5.23,5.23,5.23,5.2097,5.0608,5.0101,4.9965,4.9255,4.9018,4.9018,4.9018,4.9018,4.9018,4.9018,4.9018,4.9018,4.9018,5.0033,5.1086,5.1086,5.2172,5.3203,5.3203,5.3203,5.3203,5.3203,5.3203,5.3203,5.3203,5.3203,5.3203,5.3203,5.3203,5.3203,5.3203,5.3203,5.3203,5.3203,5.3203,5.3203,5.3203,5.3203,5.3203,5.3203,5.3203,5.3203,5.3203,5.3203,5.3203,5.3203,5.3203,5.3203,5.3203,5.3203,5.3203,5.3203,5.3203,5.3203,2.9385,3.2587,3.5729,0.0,4.0696,4.1602,4.2261,4.288,4.329,4.329,4.329,4.3488,4.4043,4.3654,4.3654,4.475,4.4856,4.4968,4.5525,4.6763,4.7572,4.7572,4.845,4.9018,4.9018,4.9018,4.9018,4.9018,4.9018,4.9018,4.9018,4.9018,4.9018,4.9018,4.9018,4.9018,4.9018,4.9018,4.9018,4.9018,4.9018,4.9018,4.9018,4.9018,4.9018,4.9018,4.9018,4.9187,4.9458,4.912,4.939,5.0033,5.0439,5.0777,5.1048,5.1048,5.1048,5.0913,4.983,4.9492,4.9424,4.912,4.9018,4.9018,4.9018,4.9018,4.9018,4.9018,4.9018,4.9018,4.9018,5.0033,5.1086,5.1086,5.2172,5.3203,5.3203,5.3203,5.3203,5.3203,5.3203,5.3203,5.3203,5.3203,5.3203,5.3203,5.3203,5.3203,5.3203,5.3203,5.3203,5.3203,5.3203,5.3203,5.3203,5.3203,5.3203,5.3203,5.3203,5.3203,5.3203,5.3203,5.3203,5.3203,5.3203,5.3203,5.3203,5.3203,5.3203,5.3203,5.3665,5.3885,0.0,0.0,3.4204,3.8153,3.9888,4.0846,0.0,0.0,4.3169,0.0,4.3367,4.3771,4.5264,4.451,4.4167,4.5634,4.567,4.5742,4.6454,4.7373,4.7933,4.7933,4.8576,4.9018,4.9018,4.9018,4.9018,4.9018,4.9018,4.9018,4.9018,4.9018,4.9018,4.9018,4.9018,4.9018,4.9018,4.9018,4.9018,4.9018,4.9018,4.9018,4.9018,4.9018,4.9018,4.9018,4.9018,4.9018,4.9018,4.9018,4.9018,4.9086,4.9796,5.0202,5.0371,5.0371,5.0507,5.0541,4.9593,4.9289,4.9255,4.9052,4.9018,4.9018,4.9018,4.9018,4.9052,4.9221,4.9154,4.9083,4.9433,5.0487,5.1386,5.1353,5.247,5.3445,5.3261,5.3203,5.3203,5.3203,5.3203,5.3203,5.3203,5.3203,5.3203,5.3203,5.3203,5.3203,5.3203,5.3203,5.3203,5.3203,5.3203,5.3203,5.3203,5.3203,5.3203,5.3203,5.3203,5.3277,5.3518,5.3518,5.3592,5.3812,5.3812,5.3628,5.3203,5.3203,5.3314,5.3518,5.4106,5.4509,0.0,2.8364,0.0,3.4771,3.7165,0.0,0.0,0.0,4.268,4.3599,4.3548,4.4136,4.6936,4.5957,4.4774,4.4849,4.6346,4.7473,4.7506,4.8321,4.8923,4.8923,4.8954,4.9018,4.9018,4.9018,4.9018,4.9018,4.9018,4.9018,4.9018,4.9018,4.9018,4.9018,4.9018,4.9018,4.9018,4.9018,4.9018,4.9018,4.9018,4.9018,4.9018,4.9018,4.9018,4.9018,4.9018,4.9018,4.9018,4.9018,4.9018,4.9086,4.9796,5.0541,5.115,5.115,5.1589,5.1995,5.0541,5.0033,4.9932,4.9221,4.9018,4.9018,4.9018,4.9018,4.9154,4.983,4.9526,4.9338,5.074,5.1647,5.219,5.2102,5.3226,5.4142,5.3371,5.3203,5.3203,5.3203,5.3203,5.3203,5.3203,5.3203,5.3203,5.3203,5.3203,5.3203,5.3203,5.3203,5.3203,5.3203,5.3203,5.3203,5.3203,5.3203,5.3203,5.3203,5.3203,5.3555,5.4326,5.4326,5.4693,5.5486,5.5464,5.473,5.3203,5.3203,5.3592,5.4326,5.4363,5.4803,0.0,0.0,0.0,3.3335,3.5998,3.8003,3.8901,4.0487,4.2176,4.3519,4.3685,4.4223,4.632,4.567,4.541,4.7172,4.7572,4.7803,4.8385,4.8798,4.9018,4.9018,4.9018,4.9018,4.9018,4.9018,4.9018,4.9018,4.9018,4.9018,4.9018,4.9018,4.9018,4.9018,4.9018,4.9018,4.9018,4.9018,4.9018,4.9018,4.9018,4.9018,4.9018,4.9018,4.9018,4.9018,4.9018,4.9018,4.9018,4.9018,4.9018,4.9018,4.9289,4.956,4.9864,5.0338,5.0642,5.0811,5.027,5.0101,4.9965,4.9255,4.9018,4.9018,4.9018,4.9323,4.9763,5.0033,5.0236,5.0663,5.1691,5.2509,5.3245,5.4153,5.4781,5.5097,5.4803,5.3922,5.3203,5.3203,5.3203,5.3203,5.3203,5.3628,5.3959,5.3959,5.3959,5.3959,5.3959,5.3518,5.3203,5.3203,5.3665,5.3959,5.3959,5.4436,5.473,5.473,5.473,5.4876,5.5133,5.517,5.5317,5.5574,5.5596,5.5317,5.473,5.473,5.4876,5.517,5.5684,5.6088,2.4769,0.0,0.0,0.0,0.0,3.5729,3.8182,3.9661,4.1071,4.3118,4.3733,4.4433,4.6413,4.5993,4.6057,4.8192,4.8257,4.8289,4.8892,4.9018,4.9018,4.9018,4.9018,4.9018,4.9018,4.9018,4.9018,4.9018,4.9018,4.9018,4.9018,4.9018,4.9018,4.9018,4.9018,4.9018,4.9018,4.9018,4.9018,4.9018,4.9018,4.9018,4.9018,4.9018,4.9018,4.9018,4.9018,4.9018,4.9018,4.9018,4.9018,4.9018,4.9018,4.9154,4.9458,5.0202,5.0608,5.0845,5.0845,5.0845,5.0676,4.9695,4.956,4.9695,4.9458,4.9864,5.0507,5.0777,5.1014,5.1444,5.2486,5.3275,5.4128,5.5642,5.5794,5.5596,5.5596,5.4766,5.3995,5.3995,5.3995,5.3995,5.3995,5.4436,5.4803,5.4803,5.4803,5.4693,5.4436,5.3922,5.3592,5.3592,5.4069,5.4509,5.4766,5.528,5.5596,5.5596,5.5596,5.5721,5.5978,5.5978,5.6124,5.6381,5.6381,5.6381,5.6381,5.5868,5.5721,5.6014,5.6565,5.6932,0.0,0.0,0.0,0.0,0.0,0.0,3.7819,0.0,3.9371,4.2396,4.3485,4.4722,4.7396,4.7124,4.6749,4.7474,4.8385,4.9018,4.9018,4.9018,4.9018,4.9018,4.9018,4.9018,4.9018,4.9018,4.9018,4.9018,4.9018,4.9018,4.9018,4.9018,4.9018,4.9018,4.9018,4.9018,4.9018,4.9018,4.9018,4.9018,4.9018,4.9018,4.9018,4.9018,4.9018,4.9018,4.9018,4.9018,4.9018,4.9018,4.9018,4.9018,4.9018,4.9458,5.0168,5.0947,5.1691,5.23,5.23,5.23,5.2063,5.0608,5.0608,5.1082,5.0338,5.0642,5.1386,5.2097,5.1826,5.1613,5.308,5.404,5.4942,5.6479,5.6235,5.5647,5.5647,5.5647,5.5669,5.5633,5.5596,5.5596,5.5596,5.5611,5.5633,5.5633,5.5633,5.5354,5.4583,5.4436,5.4436,5.4436,5.4473,5.4803,5.5596,5.5669,5.5647,5.5647,5.5647,5.6014,5.6822,5.6859,5.7189,5.796,5.7997,5.7997,5.7997,5.6418,5.6051,5.6859,5.6859,5.7262,2.2763,0.0,0.0,0.0,0.0,0.0,0.0,0.0,3.5646,4.0641,4.1402,4.2384,4.635,4.6911,4.6962,4.7704,4.8492,4.9018,4.9018,4.9018,4.9018,4.9018,4.9018,4.9018,4.9018,4.9018,4.9018,4.9018,4.9018,4.9018,4.9018,4.9018,4.9018,4.9018,4.9018,4.9018,4.9018,4.9018,4.9018,4.9018,4.9018,4.9018,4.9018,4.9018,4.9018,4.9018,4.9018,4.9018,4.9018,4.9018,4.9018,4.9052,4.9593,4.9898,5.0236,5.1522,5.2131,5.23,5.23,5.23,5.2131,5.1217,5.1048,5.1151,5.098,5.142,5.2063,5.2232,5.257,5.3205,5.4675,5.5623,5.6486,5.7431,5.7483,5.7336,5.7336,5.7336,5.6969,5.5853,5.5596,5.5596,5.5596,5.6088,5.6455,5.6455,5.6455,5.6381,5.6161,5.5611,5.5244,5.5244,5.5794,5.6235,5.6455,5.7005,5.7336,5.7336,5.7336,5.7446,5.7666,5.7666,5.7776,5.7997,5.7997,5.7997,5.7997,5.7556,5.7446,5.7666,5.7666,5.7776,2.367,2.4537,0.0,0.0,0.0,0.0,3.2666,3.3376,3.462,0.0,4.1027,4.2009,4.5284,4.5872,4.621,4.7259,4.78,4.8308,4.8917,4.9018,4.9018,4.9018,4.9018,4.9018,4.9018,4.9018,4.9018,4.9018,4.9018,4.9018,4.9018,4.9018,4.9018,4.9018,4.9018,4.9018,4.9018,4.9018,4.9018,4.9018,4.9018,4.9018,4.9018,4.9018,4.9018,4.9018,4.9018,4.9018,4.9018,4.9018,4.9018,4.9086,4.9796,5.0101,5.027,5.1758,5.2097,5.1928,5.257,5.257,5.2232,5.1826,5.1894,5.2097,5.1758,5.2198,5.2807,5.2807,5.3145,5.3783,5.4939,5.5808,5.6616,5.7376,5.7774,5.7997,5.7997,5.7997,5.7703,5.6785,5.6602,5.6602,5.6602,5.7005,5.7299,5.7299,5.7299,5.7189,5.6859,5.6381,5.6088,5.6088,5.6528,5.6932,5.7262,5.774,5.7997,5.7997,5.7997,5.7997,5.7997,5.7997,5.7997,5.7997,5.7997,5.7997,5.7997,5.7997,5.7997,5.7997,5.7997,5.7997,2.5143,2.5472,0.0,0.0,2.7745,0.0,3.4218,3.4587,3.4857,0.0,4.0815,4.1895,4.3639,4.4073,4.4581,4.594,4.638,4.7056,4.8545,4.8748,4.8781,4.8883,4.8883,4.8917,4.8984,4.9018,4.9018,4.9018,4.9018,4.9018,4.9018,4.9018,4.9018,4.9018,4.9018,4.9018,4.9018,4.9018,4.9018,4.9018,4.9018,4.9018,4.9018,4.9018,4.9018,4.9018,4.9018,4.9018,4.9018,4.9018,4.9018,4.9086,4.9898,5.0202,5.0405,5.1894,5.2029,5.1624,5.3044,5.3044,5.2435,5.2435,5.2909,5.3382,5.2638,5.2942,5.3518,5.3518,5.3518,5.3651,5.4388,5.5084,5.5808,5.6668,5.7401,5.7904,5.7973,5.7997,5.7997,5.7997,5.7997,5.7997,5.7997,5.7997,5.7997,5.7997,5.7997,5.774,5.7042,5.6932,5.6932,5.6932,5.6932,5.7226,5.7923,5.7997,5.7997,5.7997,5.7997,5.7997,5.7997,5.7997,5.7997,5.7997,5.7997,5.7997,5.7997,5.7997,5.7997,5.7997,5.7997,5.7997,2.7345,2.7914,2.8647,2.8045,0.0,0.0,2.9896,3.0622,3.1963,0.0,3.5133,3.6276,3.9505,4.0595,4.1271,4.2151,4.3809,4.5534,4.7022,4.7225,4.7462,4.8071,4.8108,4.8376,4.8951,4.9018,4.9018,4.9018,4.9018,4.9018,4.9018,4.9018,4.9018,4.9018,4.9018,4.9018,4.9018,4.9018,4.9018,4.9018,4.9018,4.9018,4.9018,4.9018,4.9018,4.9018,4.9018,4.9018,4.9018,4.9018,4.9018,4.912,5.0473,5.1014,5.1183,5.2706,5.3179,5.3112,5.3416,5.3416,5.3281,5.3281,5.3382,5.3484,5.3315,5.3382,5.3518,5.3518,5.3518,5.3651,5.4388,5.4695,5.5179,5.6563,5.7015,5.7302,5.7844,5.7997,5.7997,5.7997,5.7997,5.7997,5.7997,5.7997,5.7997,5.7997,5.7997,5.7923,5.7776,5.7776,5.7776,5.7776,5.7776,5.7813,5.7997,5.7997,5.7997,5.7997,5.7997,5.7997,5.7997,5.7997,5.7997,5.7997,5.7997,5.7997,5.7997,5.7997,5.7997,5.7997,5.7997,5.7997,2.9052,2.9082,2.9602,2.9614,0.0,0.0,0.0,3.1261,3.1823,3.4572,3.4553,3.4935,3.7908,3.8125,3.8473,4.0333,4.1914,4.3166,4.391,4.5602,4.6921,4.7327,4.7361,4.7496,4.7868,4.824,4.8612,4.8984,4.9018,4.9018,4.9018,4.9018,4.9018,4.9018,4.9018,4.9018,4.9018,4.9018,4.9018,4.9018,4.9018,4.9018,4.9018,4.9018,4.9018,4.9018,4.9018,4.9018,4.9018,4.9018,4.9018,4.912,5.0236,5.0642,5.0845,5.2367,5.2672,5.2469,5.3247,5.3247,5.2976,5.3382,5.3518,5.3518,5.3518,5.3518,5.3518,5.3518,5.3518,5.3584,5.3979,5.4328,5.4878,5.6039,5.6616,5.7091,5.7821,5.7997,5.7997,5.7997,5.7997,5.7997,5.7997,5.7997,5.7997,5.7997,5.7997,5.7997,5.7997,5.7997,5.7997,5.7997,5.7997,5.7997,5.7997,5.7997,5.7997,5.7997,5.7997,5.7997,5.7997,5.7997,5.7997,5.7997,5.7997,5.7997,5.7997,5.7997,5.7997,5.7997,5.7997,5.7997,0.0,0.0,0.0,0.0,0.0,3.0676,0.0,0.0,0.0,3.5014,3.4607,0.0,0.0,0.0,0.0,3.8406,0.0,0.0,4.0358,4.32,4.5432,4.5872,4.6177,4.6413,4.6583,4.6887,4.7432,4.8511,4.8308,4.8342,4.8781,4.8917,4.9018,4.9018,4.9018,4.9018,4.9018,4.9018,4.9018,4.9018,4.9018,4.9018,4.9018,4.9018,4.9018,4.9018,4.9018,4.9018,4.9018,4.9018,4.9018,4.9086,4.9796,5.0168,5.0473,5.1792,5.2029,5.1826,5.3078,5.3078,5.2638,5.3281,5.3518,5.3518,5.3518,5.3518,5.3518,5.3518,5.3518,5.3518,5.3518,5.3946,5.4575,5.532,5.6059,5.685,5.7655,5.7904,5.7997,5.7997,5.7997,5.7997,5.7997,5.7997,5.7997,5.7997,5.7997,5.7997,5.7997,5.7997,5.7997,5.7997,5.7997,5.7997,5.7997,5.7997,5.7997,5.7997,5.7997,5.7997,5.7997,5.7997,5.7997,5.7997,5.7997,5.7997,5.7997,5.7997,5.7997,5.7997,5.7997,5.7997,0.0,0.0,0.0,0.0,3.3956,0.0,0.0,0.0,3.2731,3.1171,0.0,0.0,0.0,0.0,0.0,0.0,0.0,0.0,3.7405,3.8768,4.0595,4.2557,4.4039,4.5122,4.5771,4.466,4.479,4.6887,4.5867,4.594,4.7936,4.8646,4.9018,4.9018,4.9018,4.9018,4.9018,4.9018,4.9018,4.9018,4.9018,4.9018,4.9018,4.9018,4.9018,4.9018,4.9018,4.9018,4.9018,4.9018,4.9018,4.9086,4.9796,5.0507,5.1183,5.1995,5.2706,5.3281,5.345,5.345,5.3382,5.3484,5.3518,5.3518,5.3518,5.3518,5.3518,5.3518,5.3518,5.3518,5.3518,5.3551,5.3816,5.4544,5.5291,5.6059,5.6825,5.7522,5.7997,5.7997,5.7997,5.7997,5.7997,5.7997,5.7997,5.7997,5.7997,5.7997,5.7997,5.7997,5.7997,5.7997,5.7997,5.7997,5.7997,5.7997,5.7997,5.7997,5.7997,5.7997,5.7997,5.7997,5.7997,5.7997,5.7997,5.7997,5.7997,5.7997,5.7997,5.7997,5.7997,5.7997,0.0,0.0,0.0,0.0,0.0,0.0,3.2242,0.0,3.1566,0.0,0.0,0.0,0.0,0.0,0.0,0.0,3.481,0.0,0.0,0.0,3.8556,4.0756,4.123,4.2151,4.4181,4.3403,4.3876,4.6583,4.4993,4.5094,4.7736,4.8176,4.8578,4.8984,4.9018,4.9018,4.9018,4.9018,4.9018,4.9018,4.9018,4.9018,4.9018,4.9018,4.9018,4.9018,4.9018,4.9018,4.9018,4.9018,4.9018,4.9052,4.9357,4.9661,5.0067,5.1251,5.1894,5.23,5.3179,5.3518,5.3518,5.3518,5.3518,5.3518,5.3518,5.3518,5.3518,5.3518,5.3518,5.3518,5.3518,5.3518,5.3718,5.4419,5.4848,5.5379,5.6616,5.7116,5.7474,5.7927,5.7997,5.7997,5.7997,5.7997,5.7997,5.7997,5.7997,5.7997,5.7997,5.7997,5.7997,5.7997,5.7997,5.7997,5.7997,5.7997,5.7997,5.7997,5.7997,5.7997,5.7997,5.7997,5.7997,5.7997,5.7997,5.7997,5.7997,5.7997,5.7997,5.7997,5.7997,5.7997,3.834,0.0,0.0,0.0,0.0,0.0,0.0,0.0,0.0,0.0,0.0,0.0,0.0,0.0,0.0,3.322,0.0,3.4336,0.0,3.4866,0.0,0.0,0.0,3.9918,4.226,4.1474,4.2117,4.5331,4.3673,4.391,4.7158,4.7669,4.8173,4.868,4.8883,4.9018,4.9018,4.9018,4.9018,4.9018,4.9018,4.9018,4.9018,4.9018,4.9018,4.9018,4.9018,4.9018,4.9018,4.9018,4.9018,4.9018,4.9018,4.9018,4.9187,5.0676,5.1488,5.1995,5.3112,5.3518,5.3518,5.3518,5.3518,5.3518,5.3518,5.3518,5.3518,5.3518,5.3518,5.3518,5.3518,5.3518,5.3651,5.4168,5.4451,5.4969,5.6286,5.6721,5.7116,5.7881,5.7997,5.7997,5.7997,5.7997,5.7997,5.7997,5.7997,5.7997,5.7997,5.7997,5.7997,5.7997,5.7997,5.7997,5.7997,5.7997,5.7997,5.7997,5.7997,5.7997,5.7997,5.7997,5.7997,5.7997,5.7997,5.7997,5.7997,5.7997,5.7997,5.7997,5.7997,5.7997,4.1978,4.2365,4.1757,3.6894,3.6108,0.0,0.0,0.0,3.418,0.0,0.0,0.0,0.0,0.0,3.4957,3.3626,3.4032,0.0,0.0,0.0,0.0,0.0,0.0,0.0,4.013,3.8261,3.8522,4.2151,4.106,4.1839,4.5568,4.7094,4.7906,4.7906,4.8646,4.9018,4.9018,4.9018,4.9018,4.9018,4.9018,4.9018,4.9018,4.9018,4.9018,4.9018,4.9018,4.9018,4.9018,4.9018,4.9018,4.9018,4.9018,4.9018,4.9187,5.0676,5.2164,5.345,5.3484,5.3518,5.3518,5.3518,5.3518,5.3518,5.3518,5.3518,5.3518,5.3518,5.3518,5.3518,5.3518,5.3518,5.3518,5.3517,5.4074,5.4818,5.5581,5.634,5.7116,5.7881,5.7997,5.7997,5.7997,5.7997,5.7997,5.7997,5.7997,5.7997,5.7997,5.7997,5.7997,5.7997,5.7997,5.7997,5.7997,5.7997,5.7997,5.7997,5.7997,5.7997,5.7997,5.7997,5.7997,5.7997,5.7997,5.7997,5.7997,5.7997,5.7997,5.7997,5.7997,5.7997,4.4204,4.5211,4.5047,4.0381,3.9133,3.7996,3.3963,0.0,0.0,0.0,0.0,0.0,0.0,0.0,3.5261,3.4303,3.4336,3.3795,0.0,0.0,0.0,0.0,0.0,0.0,0.0,3.6941,3.8149,4.1339,4.0189,4.1204,4.5466,4.665,4.7394,4.7872,4.8612,4.9018,4.9018,4.9018,4.9018,4.9018,4.9018,4.9018,4.9018,4.9018,4.9018,4.9018,4.9018,4.9018,4.9018,4.9018,4.9018,4.9018,4.9018,4.9289,4.983,5.0845,5.1523,5.2131,5.3145,5.3518,5.3518,5.3518,5.3518,5.3518,5.3518,5.3518,5.3518,5.3518,5.3518,5.3518,5.3518,5.3518,5.3518,5.3518,5.4042,5.4787,5.5552,5.634,5.7116,5.7881,5.7997,5.7997,5.7997,5.7997,5.7997,5.7997,5.7997,5.7997,5.7997,5.7997,5.7997,5.7997,5.7997,5.7997,5.7997,5.7997,5.7997,5.7997,5.7997,5.7997,5.7997,5.7997,5.7997,5.7997,5.7997,5.7997,5.7997,5.7997,5.7997,5.7997,5.7997,5.7997,4.6083,4.7228,4.7261,4.3606,4.2427,4.1151,3.704,3.6784,3.7084,0.0,0.0,0.0,0.0,0.0,3.6671,3.6163,3.5182,3.3728,0.0,3.1447,0.0,0.0,0.0,0.0,0.0,0.0,3.6761,4.0527,3.9445,4.046,4.4654,4.6109,4.7022,4.7496,4.8477,4.9018,4.9018,4.9018,4.9018,4.9018,4.9018,4.9018,4.9018,4.9018,4.9018,4.9018,4.9018,4.9018,4.9018,4.9018,4.9018,4.9018,4.9018,4.9458,5.0168,5.0947,5.1523,5.2164,5.3179,5.3518,5.3518,5.3518,5.3518,5.3518,5.3518,5.3518,5.3518,5.3518,5.3518,5.3518,5.3518,5.3518,5.3518,5.3518,5.3848,5.4482,5.5495,5.6122,5.6773,5.7797,5.7997,5.7997,5.7997,5.7997,5.7997,5.7997,5.7997,5.7997,5.7997,5.7997,5.7997,5.7997,5.7997,5.7997,5.7997,5.7997,5.7997,5.7997,5.7997,5.7997,5.7997,5.7997,5.7997,5.7997,5.7997,5.7997,5.7997,5.7997,5.7997,5.7997,5.7997,5.7997]}]]